<?xml version="1.0" encoding="UTF-8" standalone="no" ?>
<gpx xmlns="http://www.topografix.com/GPX/1/1" xmlns:xsi="http://www.w3.org/2001/XMLSchema-instance" xsi:schemaLocation="http://www.topografix.com/GPX/1/1 http://www.topografix.com/GPX/1/1/gpx.xsd" version="1.1" creator="VisuGPX - https://www.visugpx.com">
  <metadata>
    <name>St Nom La Bretèche à Carrières Sous Poissy</name>
    <desc><![CDATA[www.pasapascourbevoie.com]]></desc>
  </metadata>
  <trk>
    <name><![CDATA[ON move]]></name>
    <trkseg>
      <trkpt lat="48.86764" lon="2.05112">
        <ele>132</ele>
        <time>2013-01-13T08:49:21Z</time>
      </trkpt>
      <trkpt lat="48.8676" lon="2.05107">
        <ele>132</ele>
        <time>2013-01-13T08:49:38Z</time>
      </trkpt>
      <trkpt lat="48.86763" lon="2.051">
        <ele>132</ele>
        <time>2013-01-13T08:49:44Z</time>
      </trkpt>
      <trkpt lat="48.86758" lon="2.05097">
        <ele>133</ele>
        <time>2013-01-13T08:49:53Z</time>
      </trkpt>
      <trkpt lat="48.86749" lon="2.051">
        <ele>135</ele>
        <time>2013-01-13T08:50:03Z</time>
      </trkpt>
      <trkpt lat="48.86744" lon="2.051">
        <ele>135</ele>
        <time>2013-01-13T08:50:08Z</time>
      </trkpt>
      <trkpt lat="48.86739" lon="2.051">
        <ele>136</ele>
        <time>2013-01-13T08:50:13Z</time>
      </trkpt>
      <trkpt lat="48.86735" lon="2.05101">
        <ele>136</ele>
        <time>2013-01-13T08:50:18Z</time>
      </trkpt>
      <trkpt lat="48.86729" lon="2.05101">
        <ele>136</ele>
        <time>2013-01-13T08:50:22Z</time>
      </trkpt>
      <trkpt lat="48.86724" lon="2.05098">
        <ele>136</ele>
        <time>2013-01-13T08:50:27Z</time>
      </trkpt>
      <trkpt lat="48.86719" lon="2.05097">
        <ele>137</ele>
        <time>2013-01-13T08:50:32Z</time>
      </trkpt>
      <trkpt lat="48.86713" lon="2.05095">
        <ele>137</ele>
        <time>2013-01-13T08:50:37Z</time>
      </trkpt>
      <trkpt lat="48.86707" lon="2.05094">
        <ele>137</ele>
        <time>2013-01-13T08:50:42Z</time>
      </trkpt>
      <trkpt lat="48.86702" lon="2.05095">
        <ele>138</ele>
        <time>2013-01-13T08:50:47Z</time>
      </trkpt>
      <trkpt lat="48.86696" lon="2.05094">
        <ele>138</ele>
        <time>2013-01-13T08:50:52Z</time>
      </trkpt>
      <trkpt lat="48.86689" lon="2.05095">
        <ele>138</ele>
        <time>2013-01-13T08:50:57Z</time>
      </trkpt>
      <trkpt lat="48.86684" lon="2.05093">
        <ele>139</ele>
        <time>2013-01-13T08:51:02Z</time>
      </trkpt>
      <trkpt lat="48.86679" lon="2.05094">
        <ele>139</ele>
        <time>2013-01-13T08:51:05Z</time>
      </trkpt>
      <trkpt lat="48.86675" lon="2.05081">
        <ele>142</ele>
        <time>2013-01-13T08:51:14Z</time>
      </trkpt>
      <trkpt lat="48.86674" lon="2.05073">
        <ele>141</ele>
        <time>2013-01-13T08:51:18Z</time>
      </trkpt>
      <trkpt lat="48.86673" lon="2.0506">
        <ele>141</ele>
        <time>2013-01-13T08:51:22Z</time>
      </trkpt>
      <trkpt lat="48.86671" lon="2.05053">
        <ele>142</ele>
        <time>2013-01-13T08:51:25Z</time>
      </trkpt>
      <trkpt lat="48.86671" lon="2.05045">
        <ele>142</ele>
        <time>2013-01-13T08:51:28Z</time>
      </trkpt>
      <trkpt lat="48.86672" lon="2.0503">
        <ele>142</ele>
        <time>2013-01-13T08:51:38Z</time>
      </trkpt>
      <trkpt lat="48.86676" lon="2.05025">
        <ele>143</ele>
        <time>2013-01-13T08:51:42Z</time>
      </trkpt>
      <trkpt lat="48.86681" lon="2.05023">
        <ele>143</ele>
        <time>2013-01-13T08:51:45Z</time>
      </trkpt>
      <trkpt lat="48.86687" lon="2.05022">
        <ele>142</ele>
        <time>2013-01-13T08:51:48Z</time>
      </trkpt>
      <trkpt lat="48.86692" lon="2.05026">
        <ele>142</ele>
        <time>2013-01-13T08:51:54Z</time>
      </trkpt>
      <trkpt lat="48.86697" lon="2.05026">
        <ele>142</ele>
        <time>2013-01-13T08:52:00Z</time>
      </trkpt>
      <trkpt lat="48.86702" lon="2.05029">
        <ele>141</ele>
        <time>2013-01-13T08:52:05Z</time>
      </trkpt>
      <trkpt lat="48.86705" lon="2.05034">
        <ele>141</ele>
        <time>2013-01-13T08:52:08Z</time>
      </trkpt>
      <trkpt lat="48.8671" lon="2.05034">
        <ele>141</ele>
        <time>2013-01-13T08:52:12Z</time>
      </trkpt>
      <trkpt lat="48.86718" lon="2.05033">
        <ele>141</ele>
        <time>2013-01-13T08:52:17Z</time>
      </trkpt>
      <trkpt lat="48.86723" lon="2.05036">
        <ele>140</ele>
        <time>2013-01-13T08:52:22Z</time>
      </trkpt>
      <trkpt lat="48.86728" lon="2.05036">
        <ele>140</ele>
        <time>2013-01-13T08:52:27Z</time>
      </trkpt>
      <trkpt lat="48.86732" lon="2.0504">
        <ele>140</ele>
        <time>2013-01-13T08:52:32Z</time>
      </trkpt>
      <trkpt lat="48.8674" lon="2.05041">
        <ele>140</ele>
        <time>2013-01-13T08:52:37Z</time>
      </trkpt>
      <trkpt lat="48.86745" lon="2.0504">
        <ele>140</ele>
        <time>2013-01-13T08:52:43Z</time>
      </trkpt>
      <trkpt lat="48.86751" lon="2.05036">
        <ele>137</ele>
        <time>2013-01-13T08:52:47Z</time>
      </trkpt>
      <trkpt lat="48.86757" lon="2.05037">
        <ele>137</ele>
        <time>2013-01-13T08:52:52Z</time>
      </trkpt>
      <trkpt lat="48.86765" lon="2.05032">
        <ele>137</ele>
        <time>2013-01-13T08:53:04Z</time>
      </trkpt>
      <trkpt lat="48.86768" lon="2.05026">
        <ele>137</ele>
        <time>2013-01-13T08:53:17Z</time>
      </trkpt>
      <trkpt lat="48.86774" lon="2.05025">
        <ele>137</ele>
        <time>2013-01-13T08:53:22Z</time>
      </trkpt>
      <trkpt lat="48.86779" lon="2.05022">
        <ele>137</ele>
        <time>2013-01-13T08:53:24Z</time>
      </trkpt>
      <trkpt lat="48.86782" lon="2.05016">
        <ele>137</ele>
        <time>2013-01-13T08:53:29Z</time>
      </trkpt>
      <trkpt lat="48.86786" lon="2.0501">
        <ele>137</ele>
        <time>2013-01-13T08:53:33Z</time>
      </trkpt>
      <trkpt lat="48.86792" lon="2.05008">
        <ele>137</ele>
        <time>2013-01-13T08:53:37Z</time>
      </trkpt>
      <trkpt lat="48.86797" lon="2.05003">
        <ele>137</ele>
        <time>2013-01-13T08:53:42Z</time>
      </trkpt>
      <trkpt lat="48.86798" lon="2.04995">
        <ele>140</ele>
        <time>2013-01-13T08:53:48Z</time>
      </trkpt>
      <trkpt lat="48.86803" lon="2.0499">
        <ele>140</ele>
        <time>2013-01-13T08:53:55Z</time>
      </trkpt>
      <trkpt lat="48.86807" lon="2.04987">
        <ele>139</ele>
        <time>2013-01-13T08:53:59Z</time>
      </trkpt>
      <trkpt lat="48.86814" lon="2.04985">
        <ele>139</ele>
        <time>2013-01-13T08:54:02Z</time>
      </trkpt>
      <trkpt lat="48.86819" lon="2.04979">
        <ele>139</ele>
        <time>2013-01-13T08:54:07Z</time>
      </trkpt>
      <trkpt lat="48.86825" lon="2.04973">
        <ele>139</ele>
        <time>2013-01-13T08:54:12Z</time>
      </trkpt>
      <trkpt lat="48.86827" lon="2.04965">
        <ele>139</ele>
        <time>2013-01-13T08:54:18Z</time>
      </trkpt>
      <trkpt lat="48.86837" lon="2.04967">
        <ele>137</ele>
        <time>2013-01-13T08:54:27Z</time>
      </trkpt>
      <trkpt lat="48.86842" lon="2.04964">
        <ele>137</ele>
        <time>2013-01-13T08:54:32Z</time>
      </trkpt>
      <trkpt lat="48.86845" lon="2.04959">
        <ele>137</ele>
        <time>2013-01-13T08:54:37Z</time>
      </trkpt>
      <trkpt lat="48.86851" lon="2.04956">
        <ele>137</ele>
        <time>2013-01-13T08:54:44Z</time>
      </trkpt>
      <trkpt lat="48.86855" lon="2.04951">
        <ele>137</ele>
        <time>2013-01-13T08:54:48Z</time>
      </trkpt>
      <trkpt lat="48.86861" lon="2.04949">
        <ele>137</ele>
        <time>2013-01-13T08:54:52Z</time>
      </trkpt>
      <trkpt lat="48.86866" lon="2.04944">
        <ele>137</ele>
        <time>2013-01-13T08:54:57Z</time>
      </trkpt>
      <trkpt lat="48.86871" lon="2.04944">
        <ele>136</ele>
        <time>2013-01-13T08:55:00Z</time>
      </trkpt>
      <trkpt lat="48.86876" lon="2.04943">
        <ele>136</ele>
        <time>2013-01-13T08:55:02Z</time>
      </trkpt>
      <trkpt lat="48.86883" lon="2.04946">
        <ele>136</ele>
        <time>2013-01-13T08:55:07Z</time>
      </trkpt>
      <trkpt lat="48.86887" lon="2.04945">
        <ele>136</ele>
        <time>2013-01-13T08:55:12Z</time>
      </trkpt>
      <trkpt lat="48.86893" lon="2.04947">
        <ele>136</ele>
        <time>2013-01-13T08:55:17Z</time>
      </trkpt>
      <trkpt lat="48.869" lon="2.04951">
        <ele>136</ele>
        <time>2013-01-13T08:55:22Z</time>
      </trkpt>
      <trkpt lat="48.86905" lon="2.04956">
        <ele>136</ele>
        <time>2013-01-13T08:55:25Z</time>
      </trkpt>
      <trkpt lat="48.86908" lon="2.04962">
        <ele>135</ele>
        <time>2013-01-13T08:55:28Z</time>
      </trkpt>
      <trkpt lat="48.86914" lon="2.04966">
        <ele>135</ele>
        <time>2013-01-13T08:55:33Z</time>
      </trkpt>
      <trkpt lat="48.86917" lon="2.04971">
        <ele>135</ele>
        <time>2013-01-13T08:55:37Z</time>
      </trkpt>
      <trkpt lat="48.86922" lon="2.04974">
        <ele>135</ele>
        <time>2013-01-13T08:55:42Z</time>
      </trkpt>
      <trkpt lat="48.86927" lon="2.04974">
        <ele>135</ele>
        <time>2013-01-13T08:55:47Z</time>
      </trkpt>
      <trkpt lat="48.86933" lon="2.04977">
        <ele>135</ele>
        <time>2013-01-13T08:55:50Z</time>
      </trkpt>
      <trkpt lat="48.86938" lon="2.04977">
        <ele>135</ele>
        <time>2013-01-13T08:55:54Z</time>
      </trkpt>
      <trkpt lat="48.86938" lon="2.04986">
        <ele>135</ele>
        <time>2013-01-13T08:56:04Z</time>
      </trkpt>
      <trkpt lat="48.86943" lon="2.04991">
        <ele>135</ele>
        <time>2013-01-13T08:56:10Z</time>
      </trkpt>
      <trkpt lat="48.86948" lon="2.04995">
        <ele>135</ele>
        <time>2013-01-13T08:56:15Z</time>
      </trkpt>
      <trkpt lat="48.86953" lon="2.04996">
        <ele>136</ele>
        <time>2013-01-13T08:56:18Z</time>
      </trkpt>
      <trkpt lat="48.86958" lon="2.04995">
        <ele>136</ele>
        <time>2013-01-13T08:56:22Z</time>
      </trkpt>
      <trkpt lat="48.86961" lon="2.05001">
        <ele>133</ele>
        <time>2013-01-13T08:56:27Z</time>
      </trkpt>
      <trkpt lat="48.86969" lon="2.05001">
        <ele>134</ele>
        <time>2013-01-13T08:56:37Z</time>
      </trkpt>
      <trkpt lat="48.86975" lon="2.05">
        <ele>136</ele>
        <time>2013-01-13T08:56:45Z</time>
      </trkpt>
      <trkpt lat="48.86981" lon="2.04998">
        <ele>136</ele>
        <time>2013-01-13T08:56:50Z</time>
      </trkpt>
      <trkpt lat="48.86984" lon="2.04993">
        <ele>137</ele>
        <time>2013-01-13T08:56:54Z</time>
      </trkpt>
      <trkpt lat="48.86988" lon="2.0499">
        <ele>137</ele>
        <time>2013-01-13T08:57:02Z</time>
      </trkpt>
      <trkpt lat="48.86994" lon="2.04988">
        <ele>137</ele>
        <time>2013-01-13T08:57:08Z</time>
      </trkpt>
      <trkpt lat="48.86998" lon="2.04985">
        <ele>137</ele>
        <time>2013-01-13T08:57:13Z</time>
      </trkpt>
      <trkpt lat="48.87004" lon="2.04986">
        <ele>140</ele>
        <time>2013-01-13T08:57:18Z</time>
      </trkpt>
      <trkpt lat="48.87009" lon="2.04986">
        <ele>140</ele>
        <time>2013-01-13T08:57:23Z</time>
      </trkpt>
      <trkpt lat="48.87014" lon="2.04985">
        <ele>141</ele>
        <time>2013-01-13T08:57:28Z</time>
      </trkpt>
      <trkpt lat="48.87018" lon="2.04986">
        <ele>141</ele>
        <time>2013-01-13T08:57:33Z</time>
      </trkpt>
      <trkpt lat="48.87023" lon="2.04988">
        <ele>142</ele>
        <time>2013-01-13T08:57:37Z</time>
      </trkpt>
      <trkpt lat="48.87027" lon="2.04992">
        <ele>142</ele>
        <time>2013-01-13T08:57:39Z</time>
      </trkpt>
      <trkpt lat="48.87032" lon="2.04998">
        <ele>142</ele>
        <time>2013-01-13T08:57:43Z</time>
      </trkpt>
      <trkpt lat="48.87036" lon="2.05003">
        <ele>140</ele>
        <time>2013-01-13T08:57:47Z</time>
      </trkpt>
      <trkpt lat="48.87041" lon="2.05008">
        <ele>140</ele>
        <time>2013-01-13T08:57:52Z</time>
      </trkpt>
      <trkpt lat="48.87047" lon="2.05008">
        <ele>141</ele>
        <time>2013-01-13T08:57:57Z</time>
      </trkpt>
      <trkpt lat="48.87052" lon="2.0501">
        <ele>141</ele>
        <time>2013-01-13T08:58:00Z</time>
      </trkpt>
      <trkpt lat="48.87062" lon="2.05013">
        <ele>142</ele>
        <time>2013-01-13T08:58:08Z</time>
      </trkpt>
      <trkpt lat="48.87067" lon="2.05015">
        <ele>142</ele>
        <time>2013-01-13T08:58:12Z</time>
      </trkpt>
      <trkpt lat="48.87071" lon="2.05019">
        <ele>142</ele>
        <time>2013-01-13T08:58:17Z</time>
      </trkpt>
      <trkpt lat="48.87079" lon="2.05021">
        <ele>143</ele>
        <time>2013-01-13T08:58:22Z</time>
      </trkpt>
      <trkpt lat="48.87082" lon="2.05029">
        <ele>142</ele>
        <time>2013-01-13T08:58:30Z</time>
      </trkpt>
      <trkpt lat="48.87083" lon="2.05036">
        <ele>149</ele>
        <time>2013-01-13T08:58:34Z</time>
      </trkpt>
      <trkpt lat="48.87086" lon="2.05044">
        <ele>149</ele>
        <time>2013-01-13T08:58:39Z</time>
      </trkpt>
      <trkpt lat="48.87089" lon="2.0505">
        <ele>149</ele>
        <time>2013-01-13T08:58:42Z</time>
      </trkpt>
      <trkpt lat="48.87093" lon="2.05056">
        <ele>149</ele>
        <time>2013-01-13T08:58:47Z</time>
      </trkpt>
      <trkpt lat="48.87097" lon="2.05061">
        <ele>149</ele>
        <time>2013-01-13T08:58:55Z</time>
      </trkpt>
      <trkpt lat="48.87099" lon="2.05069">
        <ele>148</ele>
        <time>2013-01-13T08:58:58Z</time>
      </trkpt>
      <trkpt lat="48.87105" lon="2.05073">
        <ele>149</ele>
        <time>2013-01-13T08:59:02Z</time>
      </trkpt>
      <trkpt lat="48.87108" lon="2.05081">
        <ele>149</ele>
        <time>2013-01-13T08:59:08Z</time>
      </trkpt>
      <trkpt lat="48.87107" lon="2.05088">
        <ele>148</ele>
        <time>2013-01-13T08:59:12Z</time>
      </trkpt>
      <trkpt lat="48.87106" lon="2.05096">
        <ele>148</ele>
        <time>2013-01-13T08:59:15Z</time>
      </trkpt>
      <trkpt lat="48.87106" lon="2.05105">
        <ele>148</ele>
        <time>2013-01-13T08:59:19Z</time>
      </trkpt>
      <trkpt lat="48.87104" lon="2.05114">
        <ele>148</ele>
        <time>2013-01-13T08:59:24Z</time>
      </trkpt>
      <trkpt lat="48.87106" lon="2.05121">
        <ele>148</ele>
        <time>2013-01-13T08:59:27Z</time>
      </trkpt>
      <trkpt lat="48.87108" lon="2.05128">
        <ele>148</ele>
        <time>2013-01-13T08:59:32Z</time>
      </trkpt>
      <trkpt lat="48.87111" lon="2.05134">
        <ele>148</ele>
        <time>2013-01-13T08:59:35Z</time>
      </trkpt>
      <trkpt lat="48.8711" lon="2.05143">
        <ele>147</ele>
        <time>2013-01-13T08:59:39Z</time>
      </trkpt>
      <trkpt lat="48.87111" lon="2.05151">
        <ele>147</ele>
        <time>2013-01-13T08:59:42Z</time>
      </trkpt>
      <trkpt lat="48.87114" lon="2.05162">
        <ele>147</ele>
        <time>2013-01-13T08:59:47Z</time>
      </trkpt>
      <trkpt lat="48.87115" lon="2.05169">
        <ele>146</ele>
        <time>2013-01-13T08:59:53Z</time>
      </trkpt>
      <trkpt lat="48.87115" lon="2.05179">
        <ele>146</ele>
        <time>2013-01-13T08:59:57Z</time>
      </trkpt>
      <trkpt lat="48.87121" lon="2.05187">
        <ele>146</ele>
        <time>2013-01-13T09:00:02Z</time>
      </trkpt>
      <trkpt lat="48.87123" lon="2.05193">
        <ele>147</ele>
        <time>2013-01-13T09:00:08Z</time>
      </trkpt>
      <trkpt lat="48.87128" lon="2.05198">
        <ele>147</ele>
        <time>2013-01-13T09:00:13Z</time>
      </trkpt>
      <trkpt lat="48.87134" lon="2.05191">
        <ele>147</ele>
        <time>2013-01-13T09:00:17Z</time>
      </trkpt>
      <trkpt lat="48.87139" lon="2.05188">
        <ele>148</ele>
        <time>2013-01-13T09:00:20Z</time>
      </trkpt>
      <trkpt lat="48.87142" lon="2.05184">
        <ele>148</ele>
        <time>2013-01-13T09:00:22Z</time>
      </trkpt>
      <trkpt lat="48.87148" lon="2.05182">
        <ele>149</ele>
        <time>2013-01-13T09:00:27Z</time>
      </trkpt>
      <trkpt lat="48.87152" lon="2.05186">
        <ele>149</ele>
        <time>2013-01-13T09:00:32Z</time>
      </trkpt>
      <trkpt lat="48.87158" lon="2.05185">
        <ele>150</ele>
        <time>2013-01-13T09:00:37Z</time>
      </trkpt>
      <trkpt lat="48.87163" lon="2.05181">
        <ele>151</ele>
        <time>2013-01-13T09:00:42Z</time>
      </trkpt>
      <trkpt lat="48.8717" lon="2.05179">
        <ele>156</ele>
        <time>2013-01-13T09:00:47Z</time>
      </trkpt>
      <trkpt lat="48.87177" lon="2.05174">
        <ele>156</ele>
        <time>2013-01-13T09:00:52Z</time>
      </trkpt>
      <trkpt lat="48.87181" lon="2.05171">
        <ele>157</ele>
        <time>2013-01-13T09:00:54Z</time>
      </trkpt>
      <trkpt lat="48.87186" lon="2.05168">
        <ele>157</ele>
        <time>2013-01-13T09:00:57Z</time>
      </trkpt>
      <trkpt lat="48.87191" lon="2.05167">
        <ele>158</ele>
        <time>2013-01-13T09:01:02Z</time>
      </trkpt>
      <trkpt lat="48.87197" lon="2.05166">
        <ele>161</ele>
        <time>2013-01-13T09:01:12Z</time>
      </trkpt>
      <trkpt lat="48.87202" lon="2.05169">
        <ele>159</ele>
        <time>2013-01-13T09:01:18Z</time>
      </trkpt>
      <trkpt lat="48.87207" lon="2.05172">
        <ele>160</ele>
        <time>2013-01-13T09:01:22Z</time>
      </trkpt>
      <trkpt lat="48.87214" lon="2.05174">
        <ele>161</ele>
        <time>2013-01-13T09:01:37Z</time>
      </trkpt>
      <trkpt lat="48.87219" lon="2.05172">
        <ele>162</ele>
        <time>2013-01-13T09:01:42Z</time>
      </trkpt>
      <trkpt lat="48.87225" lon="2.05173">
        <ele>163</ele>
        <time>2013-01-13T09:01:47Z</time>
      </trkpt>
      <trkpt lat="48.87231" lon="2.05168">
        <ele>164</ele>
        <time>2013-01-13T09:01:52Z</time>
      </trkpt>
      <trkpt lat="48.87236" lon="2.05168">
        <ele>165</ele>
        <time>2013-01-13T09:01:57Z</time>
      </trkpt>
      <trkpt lat="48.87243" lon="2.05158">
        <ele>168</ele>
        <time>2013-01-13T09:02:02Z</time>
      </trkpt>
      <trkpt lat="48.87247" lon="2.05159">
        <ele>168</ele>
        <time>2013-01-13T09:02:05Z</time>
      </trkpt>
      <trkpt lat="48.87252" lon="2.05156">
        <ele>172</ele>
        <time>2013-01-13T09:02:09Z</time>
      </trkpt>
      <trkpt lat="48.87258" lon="2.05155">
        <ele>173</ele>
        <time>2013-01-13T09:02:12Z</time>
      </trkpt>
      <trkpt lat="48.87264" lon="2.05153">
        <ele>174</ele>
        <time>2013-01-13T09:02:18Z</time>
      </trkpt>
      <trkpt lat="48.87269" lon="2.05155">
        <ele>174</ele>
        <time>2013-01-13T09:02:23Z</time>
      </trkpt>
      <trkpt lat="48.87277" lon="2.05154">
        <ele>175</ele>
        <time>2013-01-13T09:02:27Z</time>
      </trkpt>
      <trkpt lat="48.87286" lon="2.05151">
        <ele>176</ele>
        <time>2013-01-13T09:02:32Z</time>
      </trkpt>
      <trkpt lat="48.87291" lon="2.05148">
        <ele>176</ele>
        <time>2013-01-13T09:02:38Z</time>
      </trkpt>
      <trkpt lat="48.87296" lon="2.05148">
        <ele>176</ele>
        <time>2013-01-13T09:02:43Z</time>
      </trkpt>
      <trkpt lat="48.87302" lon="2.05147">
        <ele>177</ele>
        <time>2013-01-13T09:02:47Z</time>
      </trkpt>
      <trkpt lat="48.87307" lon="2.05147">
        <ele>177</ele>
        <time>2013-01-13T09:02:55Z</time>
      </trkpt>
      <trkpt lat="48.87312" lon="2.05145">
        <ele>177</ele>
        <time>2013-01-13T09:02:59Z</time>
      </trkpt>
      <trkpt lat="48.87317" lon="2.05142">
        <ele>178</ele>
        <time>2013-01-13T09:03:05Z</time>
      </trkpt>
      <trkpt lat="48.87322" lon="2.05142">
        <ele>178</ele>
        <time>2013-01-13T09:03:10Z</time>
      </trkpt>
      <trkpt lat="48.87327" lon="2.05138">
        <ele>178</ele>
        <time>2013-01-13T09:03:15Z</time>
      </trkpt>
      <trkpt lat="48.87332" lon="2.05136">
        <ele>178</ele>
        <time>2013-01-13T09:03:20Z</time>
      </trkpt>
      <trkpt lat="48.87337" lon="2.0514">
        <ele>181</ele>
        <time>2013-01-13T09:03:24Z</time>
      </trkpt>
      <trkpt lat="48.87347" lon="2.05142">
        <ele>181</ele>
        <time>2013-01-13T09:04:05Z</time>
      </trkpt>
      <trkpt lat="48.87352" lon="2.05142">
        <ele>181</ele>
        <time>2013-01-13T09:04:08Z</time>
      </trkpt>
      <trkpt lat="48.87357" lon="2.05143">
        <ele>181</ele>
        <time>2013-01-13T09:04:12Z</time>
      </trkpt>
      <trkpt lat="48.87368" lon="2.05143">
        <ele>181</ele>
        <time>2013-01-13T09:04:22Z</time>
      </trkpt>
      <trkpt lat="48.87376" lon="2.05145">
        <ele>181</ele>
        <time>2013-01-13T09:04:27Z</time>
      </trkpt>
      <trkpt lat="48.87383" lon="2.05145">
        <ele>181</ele>
        <time>2013-01-13T09:04:30Z</time>
      </trkpt>
      <trkpt lat="48.87388" lon="2.05142">
        <ele>181</ele>
        <time>2013-01-13T09:04:33Z</time>
      </trkpt>
      <trkpt lat="48.87395" lon="2.05143">
        <ele>181</ele>
        <time>2013-01-13T09:04:37Z</time>
      </trkpt>
      <trkpt lat="48.874" lon="2.05141">
        <ele>182</ele>
        <time>2013-01-13T09:04:39Z</time>
      </trkpt>
      <trkpt lat="48.87404" lon="2.05138">
        <ele>182</ele>
        <time>2013-01-13T09:04:42Z</time>
      </trkpt>
      <trkpt lat="48.87409" lon="2.05136">
        <ele>182</ele>
        <time>2013-01-13T09:04:45Z</time>
      </trkpt>
      <trkpt lat="48.87413" lon="2.05137">
        <ele>182</ele>
        <time>2013-01-13T09:04:53Z</time>
      </trkpt>
      <trkpt lat="48.87419" lon="2.05137">
        <ele>182</ele>
        <time>2013-01-13T09:04:58Z</time>
      </trkpt>
      <trkpt lat="48.87423" lon="2.05134">
        <ele>182</ele>
        <time>2013-01-13T09:05:00Z</time>
      </trkpt>
      <trkpt lat="48.87432" lon="2.05131">
        <ele>182</ele>
        <time>2013-01-13T09:05:08Z</time>
      </trkpt>
      <trkpt lat="48.87438" lon="2.05131">
        <ele>182</ele>
        <time>2013-01-13T09:05:12Z</time>
      </trkpt>
      <trkpt lat="48.87444" lon="2.05131">
        <ele>182</ele>
        <time>2013-01-13T09:05:15Z</time>
      </trkpt>
      <trkpt lat="48.87449" lon="2.05134">
        <ele>181</ele>
        <time>2013-01-13T09:05:18Z</time>
      </trkpt>
      <trkpt lat="48.87455" lon="2.05135">
        <ele>181</ele>
        <time>2013-01-13T09:05:22Z</time>
      </trkpt>
      <trkpt lat="48.87459" lon="2.05133">
        <ele>181</ele>
        <time>2013-01-13T09:05:47Z</time>
      </trkpt>
      <trkpt lat="48.87464" lon="2.05131">
        <ele>181</ele>
        <time>2013-01-13T09:05:52Z</time>
      </trkpt>
      <trkpt lat="48.87469" lon="2.05132">
        <ele>181</ele>
        <time>2013-01-13T09:05:55Z</time>
      </trkpt>
      <trkpt lat="48.87474" lon="2.05128">
        <ele>181</ele>
        <time>2013-01-13T09:05:58Z</time>
      </trkpt>
      <trkpt lat="48.87479" lon="2.05123">
        <ele>181</ele>
        <time>2013-01-13T09:06:02Z</time>
      </trkpt>
      <trkpt lat="48.87485" lon="2.05123">
        <ele>181</ele>
        <time>2013-01-13T09:06:08Z</time>
      </trkpt>
      <trkpt lat="48.87492" lon="2.05126">
        <ele>181</ele>
        <time>2013-01-13T09:06:12Z</time>
      </trkpt>
      <trkpt lat="48.87497" lon="2.05128">
        <ele>181</ele>
        <time>2013-01-13T09:06:14Z</time>
      </trkpt>
      <trkpt lat="48.87503" lon="2.05125">
        <ele>181</ele>
        <time>2013-01-13T09:06:17Z</time>
      </trkpt>
      <trkpt lat="48.87509" lon="2.05122">
        <ele>181</ele>
        <time>2013-01-13T09:06:22Z</time>
      </trkpt>
      <trkpt lat="48.87514" lon="2.05119">
        <ele>181</ele>
        <time>2013-01-13T09:06:25Z</time>
      </trkpt>
      <trkpt lat="48.8752" lon="2.05116">
        <ele>181</ele>
        <time>2013-01-13T09:06:28Z</time>
      </trkpt>
      <trkpt lat="48.87529" lon="2.05119">
        <ele>181</ele>
        <time>2013-01-13T09:06:32Z</time>
      </trkpt>
      <trkpt lat="48.87534" lon="2.05119">
        <ele>181</ele>
        <time>2013-01-13T09:06:34Z</time>
      </trkpt>
      <trkpt lat="48.8754" lon="2.05117">
        <ele>181</ele>
        <time>2013-01-13T09:06:37Z</time>
      </trkpt>
      <trkpt lat="48.87545" lon="2.05116">
        <ele>180</ele>
        <time>2013-01-13T09:06:42Z</time>
      </trkpt>
      <trkpt lat="48.87551" lon="2.05115">
        <ele>180</ele>
        <time>2013-01-13T09:06:45Z</time>
      </trkpt>
      <trkpt lat="48.87556" lon="2.05114">
        <ele>180</ele>
        <time>2013-01-13T09:06:48Z</time>
      </trkpt>
      <trkpt lat="48.87561" lon="2.05112">
        <ele>180</ele>
        <time>2013-01-13T09:06:52Z</time>
      </trkpt>
      <trkpt lat="48.87567" lon="2.05112">
        <ele>180</ele>
        <time>2013-01-13T09:06:55Z</time>
      </trkpt>
      <trkpt lat="48.87572" lon="2.05113">
        <ele>180</ele>
        <time>2013-01-13T09:06:58Z</time>
      </trkpt>
      <trkpt lat="48.87578" lon="2.05112">
        <ele>180</ele>
        <time>2013-01-13T09:07:02Z</time>
      </trkpt>
      <trkpt lat="48.87583" lon="2.05113">
        <ele>180</ele>
        <time>2013-01-13T09:07:05Z</time>
      </trkpt>
      <trkpt lat="48.87588" lon="2.05111">
        <ele>180</ele>
        <time>2013-01-13T09:07:09Z</time>
      </trkpt>
      <trkpt lat="48.87595" lon="2.05111">
        <ele>180</ele>
        <time>2013-01-13T09:07:12Z</time>
      </trkpt>
      <trkpt lat="48.87601" lon="2.05112">
        <ele>179</ele>
        <time>2013-01-13T09:07:15Z</time>
      </trkpt>
      <trkpt lat="48.87606" lon="2.05111">
        <ele>179</ele>
        <time>2013-01-13T09:07:17Z</time>
      </trkpt>
      <trkpt lat="48.87611" lon="2.05111">
        <ele>179</ele>
        <time>2013-01-13T09:07:22Z</time>
      </trkpt>
      <trkpt lat="48.87616" lon="2.0511">
        <ele>179</ele>
        <time>2013-01-13T09:07:27Z</time>
      </trkpt>
      <trkpt lat="48.8762" lon="2.05105">
        <ele>179</ele>
        <time>2013-01-13T09:07:32Z</time>
      </trkpt>
      <trkpt lat="48.87625" lon="2.051">
        <ele>179</ele>
        <time>2013-01-13T09:07:35Z</time>
      </trkpt>
      <trkpt lat="48.8764" lon="2.05095">
        <ele>179</ele>
        <time>2013-01-13T09:07:44Z</time>
      </trkpt>
      <trkpt lat="48.87645" lon="2.05096">
        <ele>179</ele>
        <time>2013-01-13T09:07:47Z</time>
      </trkpt>
      <trkpt lat="48.87651" lon="2.05095">
        <ele>179</ele>
        <time>2013-01-13T09:07:50Z</time>
      </trkpt>
      <trkpt lat="48.87656" lon="2.05097">
        <ele>179</ele>
        <time>2013-01-13T09:07:53Z</time>
      </trkpt>
      <trkpt lat="48.87661" lon="2.05097">
        <ele>179</ele>
        <time>2013-01-13T09:07:58Z</time>
      </trkpt>
      <trkpt lat="48.87667" lon="2.05094">
        <ele>177</ele>
        <time>2013-01-13T09:08:02Z</time>
      </trkpt>
      <trkpt lat="48.87672" lon="2.05095">
        <ele>177</ele>
        <time>2013-01-13T09:08:07Z</time>
      </trkpt>
      <trkpt lat="48.87677" lon="2.0509">
        <ele>177</ele>
        <time>2013-01-13T09:08:10Z</time>
      </trkpt>
      <trkpt lat="48.87683" lon="2.05089">
        <ele>177</ele>
        <time>2013-01-13T09:08:13Z</time>
      </trkpt>
      <trkpt lat="48.87688" lon="2.05087">
        <ele>177</ele>
        <time>2013-01-13T09:08:17Z</time>
      </trkpt>
      <trkpt lat="48.87694" lon="2.05082">
        <ele>176</ele>
        <time>2013-01-13T09:08:22Z</time>
      </trkpt>
      <trkpt lat="48.877" lon="2.05081">
        <ele>175</ele>
        <time>2013-01-13T09:08:27Z</time>
      </trkpt>
      <trkpt lat="48.87706" lon="2.0508">
        <ele>175</ele>
        <time>2013-01-13T09:08:30Z</time>
      </trkpt>
      <trkpt lat="48.87711" lon="2.05078">
        <ele>175</ele>
        <time>2013-01-13T09:08:33Z</time>
      </trkpt>
      <trkpt lat="48.87716" lon="2.05074">
        <ele>175</ele>
        <time>2013-01-13T09:08:37Z</time>
      </trkpt>
      <trkpt lat="48.87721" lon="2.05073">
        <ele>174</ele>
        <time>2013-01-13T09:08:42Z</time>
      </trkpt>
      <trkpt lat="48.87718" lon="2.05081">
        <ele>174</ele>
        <time>2013-01-13T09:08:48Z</time>
      </trkpt>
      <trkpt lat="48.8772" lon="2.05075">
        <ele>174</ele>
        <time>2013-01-13T09:08:55Z</time>
      </trkpt>
      <trkpt lat="48.87725" lon="2.0507">
        <ele>174</ele>
        <time>2013-01-13T09:09:03Z</time>
      </trkpt>
      <trkpt lat="48.87731" lon="2.05074">
        <ele>174</ele>
        <time>2013-01-13T09:09:07Z</time>
      </trkpt>
      <trkpt lat="48.87735" lon="2.05078">
        <ele>173</ele>
        <time>2013-01-13T09:09:13Z</time>
      </trkpt>
      <trkpt lat="48.8774" lon="2.05078">
        <ele>173</ele>
        <time>2013-01-13T09:09:17Z</time>
      </trkpt>
      <trkpt lat="48.87745" lon="2.05075">
        <ele>173</ele>
        <time>2013-01-13T09:09:22Z</time>
      </trkpt>
      <trkpt lat="48.8775" lon="2.05066">
        <ele>173</ele>
        <time>2013-01-13T09:09:27Z</time>
      </trkpt>
      <trkpt lat="48.87755" lon="2.05064">
        <ele>170</ele>
        <time>2013-01-13T09:09:34Z</time>
      </trkpt>
      <trkpt lat="48.8776" lon="2.05063">
        <ele>169</ele>
        <time>2013-01-13T09:09:40Z</time>
      </trkpt>
      <trkpt lat="48.87765" lon="2.05057">
        <ele>169</ele>
        <time>2013-01-13T09:09:47Z</time>
      </trkpt>
      <trkpt lat="48.8777" lon="2.05054">
        <ele>169</ele>
        <time>2013-01-13T09:09:53Z</time>
      </trkpt>
      <trkpt lat="48.87775" lon="2.05051">
        <ele>168</ele>
        <time>2013-01-13T09:09:57Z</time>
      </trkpt>
      <trkpt lat="48.87779" lon="2.0505">
        <ele>168</ele>
        <time>2013-01-13T09:10:02Z</time>
      </trkpt>
      <trkpt lat="48.87785" lon="2.05047">
        <ele>168</ele>
        <time>2013-01-13T09:10:07Z</time>
      </trkpt>
      <trkpt lat="48.8779" lon="2.05046">
        <ele>168</ele>
        <time>2013-01-13T09:10:12Z</time>
      </trkpt>
      <trkpt lat="48.87794" lon="2.05045">
        <ele>167</ele>
        <time>2013-01-13T09:10:17Z</time>
      </trkpt>
      <trkpt lat="48.878" lon="2.05042">
        <ele>167</ele>
        <time>2013-01-13T09:10:23Z</time>
      </trkpt>
      <trkpt lat="48.87804" lon="2.05038">
        <ele>167</ele>
        <time>2013-01-13T09:10:29Z</time>
      </trkpt>
      <trkpt lat="48.87809" lon="2.05037">
        <ele>167</ele>
        <time>2013-01-13T09:10:37Z</time>
      </trkpt>
      <trkpt lat="48.87814" lon="2.05039">
        <ele>166</ele>
        <time>2013-01-13T09:10:44Z</time>
      </trkpt>
      <trkpt lat="48.87819" lon="2.05041">
        <ele>166</ele>
        <time>2013-01-13T09:10:50Z</time>
      </trkpt>
      <trkpt lat="48.87823" lon="2.05038">
        <ele>166</ele>
        <time>2013-01-13T09:10:54Z</time>
      </trkpt>
      <trkpt lat="48.87829" lon="2.05038">
        <ele>166</ele>
        <time>2013-01-13T09:10:58Z</time>
      </trkpt>
      <trkpt lat="48.87834" lon="2.05034">
        <ele>160</ele>
        <time>2013-01-13T09:11:00Z</time>
      </trkpt>
      <trkpt lat="48.8784" lon="2.05034">
        <ele>160</ele>
        <time>2013-01-13T09:11:03Z</time>
      </trkpt>
      <trkpt lat="48.87848" lon="2.05029">
        <ele>160</ele>
        <time>2013-01-13T09:11:07Z</time>
      </trkpt>
      <trkpt lat="48.87855" lon="2.05028">
        <ele>159</ele>
        <time>2013-01-13T09:11:12Z</time>
      </trkpt>
      <trkpt lat="48.8786" lon="2.05026">
        <ele>159</ele>
        <time>2013-01-13T09:11:17Z</time>
      </trkpt>
      <trkpt lat="48.87867" lon="2.05025">
        <ele>159</ele>
        <time>2013-01-13T09:11:22Z</time>
      </trkpt>
      <trkpt lat="48.87869" lon="2.05016">
        <ele>158</ele>
        <time>2013-01-13T09:11:27Z</time>
      </trkpt>
      <trkpt lat="48.87874" lon="2.05014">
        <ele>158</ele>
        <time>2013-01-13T09:11:35Z</time>
      </trkpt>
      <trkpt lat="48.8788" lon="2.05012">
        <ele>157</ele>
        <time>2013-01-13T09:11:50Z</time>
      </trkpt>
      <trkpt lat="48.87883" lon="2.05009">
        <ele>157</ele>
        <time>2013-01-13T09:11:54Z</time>
      </trkpt>
      <trkpt lat="48.87889" lon="2.05007">
        <ele>156</ele>
        <time>2013-01-13T09:11:58Z</time>
      </trkpt>
      <trkpt lat="48.87897" lon="2.05015">
        <ele>156</ele>
        <time>2013-01-13T09:12:07Z</time>
      </trkpt>
      <trkpt lat="48.87901" lon="2.05022">
        <ele>156</ele>
        <time>2013-01-13T09:12:12Z</time>
      </trkpt>
      <trkpt lat="48.87902" lon="2.0503">
        <ele>157</ele>
        <time>2013-01-13T09:12:17Z</time>
      </trkpt>
      <trkpt lat="48.87899" lon="2.05036">
        <ele>157</ele>
        <time>2013-01-13T09:12:20Z</time>
      </trkpt>
      <trkpt lat="48.87894" lon="2.0505">
        <ele>158</ele>
        <time>2013-01-13T09:13:20Z</time>
      </trkpt>
      <trkpt lat="48.87896" lon="2.05043">
        <ele>157</ele>
        <time>2013-01-13T09:13:23Z</time>
      </trkpt>
      <trkpt lat="48.87898" lon="2.05034">
        <ele>157</ele>
        <time>2013-01-13T09:13:28Z</time>
      </trkpt>
      <trkpt lat="48.87899" lon="2.05022">
        <ele>156</ele>
        <time>2013-01-13T09:13:32Z</time>
      </trkpt>
      <trkpt lat="48.87902" lon="2.05015">
        <ele>155</ele>
        <time>2013-01-13T09:13:35Z</time>
      </trkpt>
      <trkpt lat="48.87901" lon="2.05006">
        <ele>155</ele>
        <time>2013-01-13T09:13:40Z</time>
      </trkpt>
      <trkpt lat="48.87901" lon="2.04998">
        <ele>153</ele>
        <time>2013-01-13T09:13:43Z</time>
      </trkpt>
      <trkpt lat="48.87902" lon="2.0499">
        <ele>153</ele>
        <time>2013-01-13T09:13:47Z</time>
      </trkpt>
      <trkpt lat="48.87904" lon="2.04983">
        <ele>153</ele>
        <time>2013-01-13T09:13:54Z</time>
      </trkpt>
      <trkpt lat="48.87909" lon="2.04981">
        <ele>153</ele>
        <time>2013-01-13T09:14:02Z</time>
      </trkpt>
      <trkpt lat="48.87913" lon="2.04982">
        <ele>153</ele>
        <time>2013-01-13T09:14:13Z</time>
      </trkpt>
      <trkpt lat="48.87917" lon="2.04979">
        <ele>149</ele>
        <time>2013-01-13T09:14:45Z</time>
      </trkpt>
      <trkpt lat="48.87921" lon="2.04975">
        <ele>149</ele>
        <time>2013-01-13T09:14:53Z</time>
      </trkpt>
      <trkpt lat="48.87926" lon="2.04973">
        <ele>149</ele>
        <time>2013-01-13T09:14:58Z</time>
      </trkpt>
      <trkpt lat="48.87931" lon="2.04974">
        <ele>149</ele>
        <time>2013-01-13T09:15:02Z</time>
      </trkpt>
      <trkpt lat="48.87936" lon="2.0497">
        <ele>148</ele>
        <time>2013-01-13T09:15:07Z</time>
      </trkpt>
      <trkpt lat="48.87941" lon="2.0497">
        <ele>148</ele>
        <time>2013-01-13T09:15:10Z</time>
      </trkpt>
      <trkpt lat="48.87946" lon="2.04972">
        <ele>148</ele>
        <time>2013-01-13T09:15:13Z</time>
      </trkpt>
      <trkpt lat="48.87953" lon="2.0497">
        <ele>148</ele>
        <time>2013-01-13T09:15:22Z</time>
      </trkpt>
      <trkpt lat="48.87959" lon="2.04968">
        <ele>148</ele>
        <time>2013-01-13T09:15:24Z</time>
      </trkpt>
      <trkpt lat="48.87964" lon="2.04964">
        <ele>147</ele>
        <time>2013-01-13T09:15:27Z</time>
      </trkpt>
      <trkpt lat="48.87969" lon="2.04961">
        <ele>147</ele>
        <time>2013-01-13T09:15:32Z</time>
      </trkpt>
      <trkpt lat="48.87974" lon="2.04958">
        <ele>147</ele>
        <time>2013-01-13T09:15:35Z</time>
      </trkpt>
      <trkpt lat="48.87977" lon="2.04951">
        <ele>147</ele>
        <time>2013-01-13T09:15:42Z</time>
      </trkpt>
      <trkpt lat="48.87983" lon="2.04948">
        <ele>147</ele>
        <time>2013-01-13T09:15:47Z</time>
      </trkpt>
      <trkpt lat="48.87991" lon="2.04945">
        <ele>146</ele>
        <time>2013-01-13T09:15:52Z</time>
      </trkpt>
      <trkpt lat="48.87996" lon="2.04942">
        <ele>146</ele>
        <time>2013-01-13T09:15:55Z</time>
      </trkpt>
      <trkpt lat="48.88002" lon="2.04941">
        <ele>143</ele>
        <time>2013-01-13T09:16:00Z</time>
      </trkpt>
      <trkpt lat="48.88011" lon="2.04938">
        <ele>143</ele>
        <time>2013-01-13T09:16:04Z</time>
      </trkpt>
      <trkpt lat="48.88017" lon="2.04938">
        <ele>143</ele>
        <time>2013-01-13T09:16:07Z</time>
      </trkpt>
      <trkpt lat="48.88023" lon="2.04938">
        <ele>143</ele>
        <time>2013-01-13T09:16:13Z</time>
      </trkpt>
      <trkpt lat="48.88028" lon="2.0494">
        <ele>143</ele>
        <time>2013-01-13T09:16:19Z</time>
      </trkpt>
      <trkpt lat="48.88034" lon="2.04936">
        <ele>143</ele>
        <time>2013-01-13T09:16:22Z</time>
      </trkpt>
      <trkpt lat="48.88036" lon="2.04929">
        <ele>143</ele>
        <time>2013-01-13T09:16:25Z</time>
      </trkpt>
      <trkpt lat="48.88041" lon="2.04926">
        <ele>142</ele>
        <time>2013-01-13T09:16:30Z</time>
      </trkpt>
      <trkpt lat="48.88047" lon="2.04921">
        <ele>142</ele>
        <time>2013-01-13T09:16:42Z</time>
      </trkpt>
      <trkpt lat="48.88051" lon="2.04918">
        <ele>142</ele>
        <time>2013-01-13T09:16:50Z</time>
      </trkpt>
      <trkpt lat="48.88055" lon="2.04918">
        <ele>142</ele>
        <time>2013-01-13T09:16:58Z</time>
      </trkpt>
      <trkpt lat="48.8806" lon="2.04913">
        <ele>142</ele>
        <time>2013-01-13T09:17:05Z</time>
      </trkpt>
      <trkpt lat="48.88064" lon="2.04911">
        <ele>142</ele>
        <time>2013-01-13T09:17:09Z</time>
      </trkpt>
      <trkpt lat="48.88073" lon="2.04907">
        <ele>141</ele>
        <time>2013-01-13T09:17:18Z</time>
      </trkpt>
      <trkpt lat="48.88078" lon="2.04903">
        <ele>141</ele>
        <time>2013-01-13T09:17:24Z</time>
      </trkpt>
      <trkpt lat="48.88083" lon="2.049">
        <ele>141</ele>
        <time>2013-01-13T09:17:28Z</time>
      </trkpt>
      <trkpt lat="48.88087" lon="2.04895">
        <ele>141</ele>
        <time>2013-01-13T09:17:34Z</time>
      </trkpt>
      <trkpt lat="48.88092" lon="2.04896">
        <ele>141</ele>
        <time>2013-01-13T09:17:38Z</time>
      </trkpt>
      <trkpt lat="48.88097" lon="2.04895">
        <ele>141</ele>
        <time>2013-01-13T09:17:42Z</time>
      </trkpt>
      <trkpt lat="48.88103" lon="2.04892">
        <ele>141</ele>
        <time>2013-01-13T09:17:47Z</time>
      </trkpt>
      <trkpt lat="48.88108" lon="2.0489">
        <ele>141</ele>
        <time>2013-01-13T09:17:50Z</time>
      </trkpt>
      <trkpt lat="48.88114" lon="2.0489">
        <ele>141</ele>
        <time>2013-01-13T09:17:54Z</time>
      </trkpt>
      <trkpt lat="48.88119" lon="2.04889">
        <ele>141</ele>
        <time>2013-01-13T09:17:57Z</time>
      </trkpt>
      <trkpt lat="48.88125" lon="2.04886">
        <ele>141</ele>
        <time>2013-01-13T09:18:04Z</time>
      </trkpt>
      <trkpt lat="48.88129" lon="2.04885">
        <ele>141</ele>
        <time>2013-01-13T09:18:08Z</time>
      </trkpt>
      <trkpt lat="48.88134" lon="2.04884">
        <ele>141</ele>
        <time>2013-01-13T09:18:12Z</time>
      </trkpt>
      <trkpt lat="48.8814" lon="2.04884">
        <ele>141</ele>
        <time>2013-01-13T09:18:17Z</time>
      </trkpt>
      <trkpt lat="48.88145" lon="2.04879">
        <ele>141</ele>
        <time>2013-01-13T09:18:22Z</time>
      </trkpt>
      <trkpt lat="48.88152" lon="2.04877">
        <ele>141</ele>
        <time>2013-01-13T09:18:27Z</time>
      </trkpt>
      <trkpt lat="48.88157" lon="2.04874">
        <ele>141</ele>
        <time>2013-01-13T09:18:30Z</time>
      </trkpt>
      <trkpt lat="48.88162" lon="2.04872">
        <ele>141</ele>
        <time>2013-01-13T09:18:34Z</time>
      </trkpt>
      <trkpt lat="48.88168" lon="2.04869">
        <ele>140</ele>
        <time>2013-01-13T09:18:37Z</time>
      </trkpt>
      <trkpt lat="48.88174" lon="2.04867">
        <ele>140</ele>
        <time>2013-01-13T09:18:42Z</time>
      </trkpt>
      <trkpt lat="48.8818" lon="2.04865">
        <ele>140</ele>
        <time>2013-01-13T09:18:47Z</time>
      </trkpt>
      <trkpt lat="48.88188" lon="2.04863">
        <ele>140</ele>
        <time>2013-01-13T09:18:52Z</time>
      </trkpt>
      <trkpt lat="48.88194" lon="2.0486">
        <ele>140</ele>
        <time>2013-01-13T09:18:55Z</time>
      </trkpt>
      <trkpt lat="48.88198" lon="2.04859">
        <ele>140</ele>
        <time>2013-01-13T09:18:57Z</time>
      </trkpt>
      <trkpt lat="48.88203" lon="2.04856">
        <ele>140</ele>
        <time>2013-01-13T09:19:00Z</time>
      </trkpt>
      <trkpt lat="48.88207" lon="2.04852">
        <ele>140</ele>
        <time>2013-01-13T09:19:05Z</time>
      </trkpt>
      <trkpt lat="48.88212" lon="2.04851">
        <ele>140</ele>
        <time>2013-01-13T09:19:10Z</time>
      </trkpt>
      <trkpt lat="48.88216" lon="2.04848">
        <ele>140</ele>
        <time>2013-01-13T09:19:14Z</time>
      </trkpt>
      <trkpt lat="48.8822" lon="2.04843">
        <ele>140</ele>
        <time>2013-01-13T09:19:20Z</time>
      </trkpt>
      <trkpt lat="48.88225" lon="2.0484">
        <ele>139</ele>
        <time>2013-01-13T09:19:24Z</time>
      </trkpt>
      <trkpt lat="48.8823" lon="2.04836">
        <ele>139</ele>
        <time>2013-01-13T09:19:29Z</time>
      </trkpt>
      <trkpt lat="48.88235" lon="2.04833">
        <ele>139</ele>
        <time>2013-01-13T09:19:34Z</time>
      </trkpt>
      <trkpt lat="48.88239" lon="2.04828">
        <ele>138</ele>
        <time>2013-01-13T09:19:38Z</time>
      </trkpt>
      <trkpt lat="48.88243" lon="2.04824">
        <ele>138</ele>
        <time>2013-01-13T09:19:42Z</time>
      </trkpt>
      <trkpt lat="48.88249" lon="2.04819">
        <ele>138</ele>
        <time>2013-01-13T09:19:45Z</time>
      </trkpt>
      <trkpt lat="48.88253" lon="2.04816">
        <ele>137</ele>
        <time>2013-01-13T09:19:48Z</time>
      </trkpt>
      <trkpt lat="48.88257" lon="2.0481">
        <ele>137</ele>
        <time>2013-01-13T09:19:52Z</time>
      </trkpt>
      <trkpt lat="48.88263" lon="2.04804">
        <ele>137</ele>
        <time>2013-01-13T09:19:57Z</time>
      </trkpt>
      <trkpt lat="48.88268" lon="2.04803">
        <ele>137</ele>
        <time>2013-01-13T09:20:00Z</time>
      </trkpt>
      <trkpt lat="48.88271" lon="2.04797">
        <ele>137</ele>
        <time>2013-01-13T09:20:03Z</time>
      </trkpt>
      <trkpt lat="48.88274" lon="2.04787">
        <ele>137</ele>
        <time>2013-01-13T09:20:07Z</time>
      </trkpt>
      <trkpt lat="48.88276" lon="2.04781">
        <ele>137</ele>
        <time>2013-01-13T09:20:10Z</time>
      </trkpt>
      <trkpt lat="48.88278" lon="2.04774">
        <ele>137</ele>
        <time>2013-01-13T09:20:14Z</time>
      </trkpt>
      <trkpt lat="48.88282" lon="2.04766">
        <ele>136</ele>
        <time>2013-01-13T09:20:18Z</time>
      </trkpt>
      <trkpt lat="48.88285" lon="2.0476">
        <ele>136</ele>
        <time>2013-01-13T09:20:22Z</time>
      </trkpt>
      <trkpt lat="48.8829" lon="2.04758">
        <ele>136</ele>
        <time>2013-01-13T09:20:25Z</time>
      </trkpt>
      <trkpt lat="48.88298" lon="2.04752">
        <ele>136</ele>
        <time>2013-01-13T09:20:30Z</time>
      </trkpt>
      <trkpt lat="48.88301" lon="2.04745">
        <ele>135</ele>
        <time>2013-01-13T09:20:34Z</time>
      </trkpt>
      <trkpt lat="48.88306" lon="2.04741">
        <ele>135</ele>
        <time>2013-01-13T09:20:38Z</time>
      </trkpt>
      <trkpt lat="48.88312" lon="2.04727">
        <ele>135</ele>
        <time>2013-01-13T09:20:47Z</time>
      </trkpt>
      <trkpt lat="48.88315" lon="2.0472">
        <ele>135</ele>
        <time>2013-01-13T09:20:50Z</time>
      </trkpt>
      <trkpt lat="48.88318" lon="2.04714">
        <ele>135</ele>
        <time>2013-01-13T09:20:55Z</time>
      </trkpt>
      <trkpt lat="48.88319" lon="2.04706">
        <ele>135</ele>
        <time>2013-01-13T09:20:58Z</time>
      </trkpt>
      <trkpt lat="48.88321" lon="2.04698">
        <ele>135</ele>
        <time>2013-01-13T09:21:00Z</time>
      </trkpt>
      <trkpt lat="48.88324" lon="2.04692">
        <ele>135</ele>
        <time>2013-01-13T09:21:03Z</time>
      </trkpt>
      <trkpt lat="48.88328" lon="2.04686">
        <ele>135</ele>
        <time>2013-01-13T09:21:08Z</time>
      </trkpt>
      <trkpt lat="48.88334" lon="2.04679">
        <ele>133</ele>
        <time>2013-01-13T09:21:12Z</time>
      </trkpt>
      <trkpt lat="48.88335" lon="2.0467">
        <ele>134</ele>
        <time>2013-01-13T09:21:17Z</time>
      </trkpt>
      <trkpt lat="48.8834" lon="2.04661">
        <ele>134</ele>
        <time>2013-01-13T09:21:22Z</time>
      </trkpt>
      <trkpt lat="48.88344" lon="2.04656">
        <ele>134</ele>
        <time>2013-01-13T09:21:24Z</time>
      </trkpt>
      <trkpt lat="48.88347" lon="2.0465">
        <ele>133</ele>
        <time>2013-01-13T09:21:29Z</time>
      </trkpt>
      <trkpt lat="48.88353" lon="2.04637">
        <ele>133</ele>
        <time>2013-01-13T09:21:37Z</time>
      </trkpt>
      <trkpt lat="48.88357" lon="2.04629">
        <ele>133</ele>
        <time>2013-01-13T09:21:42Z</time>
      </trkpt>
      <trkpt lat="48.88359" lon="2.04621">
        <ele>133</ele>
        <time>2013-01-13T09:21:44Z</time>
      </trkpt>
      <trkpt lat="48.88362" lon="2.04612">
        <ele>134</ele>
        <time>2013-01-13T09:21:47Z</time>
      </trkpt>
      <trkpt lat="48.88363" lon="2.04605">
        <ele>134</ele>
        <time>2013-01-13T09:21:52Z</time>
      </trkpt>
      <trkpt lat="48.88366" lon="2.04597">
        <ele>134</ele>
        <time>2013-01-13T09:21:57Z</time>
      </trkpt>
      <trkpt lat="48.88372" lon="2.04596">
        <ele>133</ele>
        <time>2013-01-13T09:22:02Z</time>
      </trkpt>
      <trkpt lat="48.88377" lon="2.04593">
        <ele>133</ele>
        <time>2013-01-13T09:22:05Z</time>
      </trkpt>
      <trkpt lat="48.8838" lon="2.0458">
        <ele>135</ele>
        <time>2013-01-13T09:22:15Z</time>
      </trkpt>
      <trkpt lat="48.88384" lon="2.04575">
        <ele>135</ele>
        <time>2013-01-13T09:22:19Z</time>
      </trkpt>
      <trkpt lat="48.88382" lon="2.04568">
        <ele>135</ele>
        <time>2013-01-13T09:22:24Z</time>
      </trkpt>
      <trkpt lat="48.88383" lon="2.04559">
        <ele>135</ele>
        <time>2013-01-13T09:22:28Z</time>
      </trkpt>
      <trkpt lat="48.88386" lon="2.04552">
        <ele>135</ele>
        <time>2013-01-13T09:22:33Z</time>
      </trkpt>
      <trkpt lat="48.88386" lon="2.04545">
        <ele>135</ele>
        <time>2013-01-13T09:22:38Z</time>
      </trkpt>
      <trkpt lat="48.88389" lon="2.04539">
        <ele>135</ele>
        <time>2013-01-13T09:22:43Z</time>
      </trkpt>
      <trkpt lat="48.8839" lon="2.04532">
        <ele>136</ele>
        <time>2013-01-13T09:22:49Z</time>
      </trkpt>
      <trkpt lat="48.8839" lon="2.04523">
        <ele>136</ele>
        <time>2013-01-13T09:22:53Z</time>
      </trkpt>
      <trkpt lat="48.8839" lon="2.04514">
        <ele>136</ele>
        <time>2013-01-13T09:22:57Z</time>
      </trkpt>
      <trkpt lat="48.88389" lon="2.04504">
        <ele>136</ele>
        <time>2013-01-13T09:23:02Z</time>
      </trkpt>
      <trkpt lat="48.8839" lon="2.04495">
        <ele>138</ele>
        <time>2013-01-13T09:23:05Z</time>
      </trkpt>
      <trkpt lat="48.88388" lon="2.04486">
        <ele>138</ele>
        <time>2013-01-13T09:23:12Z</time>
      </trkpt>
      <trkpt lat="48.88389" lon="2.04478">
        <ele>138</ele>
        <time>2013-01-13T09:23:17Z</time>
      </trkpt>
      <trkpt lat="48.88391" lon="2.04472">
        <ele>138</ele>
        <time>2013-01-13T09:23:22Z</time>
      </trkpt>
      <trkpt lat="48.88391" lon="2.04465">
        <ele>138</ele>
        <time>2013-01-13T09:23:27Z</time>
      </trkpt>
      <trkpt lat="48.88393" lon="2.04455">
        <ele>138</ele>
        <time>2013-01-13T09:23:32Z</time>
      </trkpt>
      <trkpt lat="48.88395" lon="2.04449">
        <ele>138</ele>
        <time>2013-01-13T09:23:37Z</time>
      </trkpt>
      <trkpt lat="48.88391" lon="2.04436">
        <ele>138</ele>
        <time>2013-01-13T09:23:47Z</time>
      </trkpt>
      <trkpt lat="48.88392" lon="2.04429">
        <ele>138</ele>
        <time>2013-01-13T09:23:50Z</time>
      </trkpt>
      <trkpt lat="48.88393" lon="2.04421">
        <ele>138</ele>
        <time>2013-01-13T09:23:53Z</time>
      </trkpt>
      <trkpt lat="48.88393" lon="2.04412">
        <ele>140</ele>
        <time>2013-01-13T09:23:57Z</time>
      </trkpt>
      <trkpt lat="48.88393" lon="2.04403">
        <ele>140</ele>
        <time>2013-01-13T09:24:00Z</time>
      </trkpt>
      <trkpt lat="48.88394" lon="2.04395">
        <ele>140</ele>
        <time>2013-01-13T09:24:04Z</time>
      </trkpt>
      <trkpt lat="48.88397" lon="2.04389">
        <ele>140</ele>
        <time>2013-01-13T09:24:08Z</time>
      </trkpt>
      <trkpt lat="48.88398" lon="2.04382">
        <ele>140</ele>
        <time>2013-01-13T09:24:14Z</time>
      </trkpt>
      <trkpt lat="48.88399" lon="2.04375">
        <ele>140</ele>
        <time>2013-01-13T09:24:20Z</time>
      </trkpt>
      <trkpt lat="48.88401" lon="2.04367">
        <ele>140</ele>
        <time>2013-01-13T09:24:25Z</time>
      </trkpt>
      <trkpt lat="48.88403" lon="2.0436">
        <ele>140</ele>
        <time>2013-01-13T09:24:27Z</time>
      </trkpt>
      <trkpt lat="48.88404" lon="2.0435">
        <ele>140</ele>
        <time>2013-01-13T09:24:30Z</time>
      </trkpt>
      <trkpt lat="48.88405" lon="2.04343">
        <ele>140</ele>
        <time>2013-01-13T09:24:34Z</time>
      </trkpt>
      <trkpt lat="48.88406" lon="2.04335">
        <ele>140</ele>
        <time>2013-01-13T09:24:37Z</time>
      </trkpt>
      <trkpt lat="48.88406" lon="2.04326">
        <ele>141</ele>
        <time>2013-01-13T09:24:42Z</time>
      </trkpt>
      <trkpt lat="48.88408" lon="2.04319">
        <ele>141</ele>
        <time>2013-01-13T09:24:44Z</time>
      </trkpt>
      <trkpt lat="48.8841" lon="2.04312">
        <ele>141</ele>
        <time>2013-01-13T09:24:47Z</time>
      </trkpt>
      <trkpt lat="48.88408" lon="2.04305">
        <ele>142</ele>
        <time>2013-01-13T09:24:52Z</time>
      </trkpt>
      <trkpt lat="48.88411" lon="2.04297">
        <ele>142</ele>
        <time>2013-01-13T09:24:57Z</time>
      </trkpt>
      <trkpt lat="48.88411" lon="2.0429">
        <ele>142</ele>
        <time>2013-01-13T09:25:03Z</time>
      </trkpt>
      <trkpt lat="48.88414" lon="2.04283">
        <ele>142</ele>
        <time>2013-01-13T09:25:08Z</time>
      </trkpt>
      <trkpt lat="48.88414" lon="2.04274">
        <ele>143</ele>
        <time>2013-01-13T09:25:12Z</time>
      </trkpt>
      <trkpt lat="48.88412" lon="2.04266">
        <ele>143</ele>
        <time>2013-01-13T09:25:17Z</time>
      </trkpt>
      <trkpt lat="48.8841" lon="2.04259">
        <ele>143</ele>
        <time>2013-01-13T09:25:22Z</time>
      </trkpt>
      <trkpt lat="48.8841" lon="2.04252">
        <ele>144</ele>
        <time>2013-01-13T09:25:28Z</time>
      </trkpt>
      <trkpt lat="48.88411" lon="2.04244">
        <ele>144</ele>
        <time>2013-01-13T09:25:33Z</time>
      </trkpt>
      <trkpt lat="48.88413" lon="2.04232">
        <ele>145</ele>
        <time>2013-01-13T09:25:37Z</time>
      </trkpt>
      <trkpt lat="48.88416" lon="2.04224">
        <ele>145</ele>
        <time>2013-01-13T09:25:42Z</time>
      </trkpt>
      <trkpt lat="48.88416" lon="2.04216">
        <ele>146</ele>
        <time>2013-01-13T09:25:48Z</time>
      </trkpt>
      <trkpt lat="48.88418" lon="2.04208">
        <ele>148</ele>
        <time>2013-01-13T09:25:53Z</time>
      </trkpt>
      <trkpt lat="48.8842" lon="2.04199">
        <ele>148</ele>
        <time>2013-01-13T09:25:57Z</time>
      </trkpt>
      <trkpt lat="48.8842" lon="2.04191">
        <ele>148</ele>
        <time>2013-01-13T09:26:02Z</time>
      </trkpt>
      <trkpt lat="48.88422" lon="2.04183">
        <ele>149</ele>
        <time>2013-01-13T09:26:07Z</time>
      </trkpt>
      <trkpt lat="48.88424" lon="2.04174">
        <ele>149</ele>
        <time>2013-01-13T09:26:12Z</time>
      </trkpt>
      <trkpt lat="48.88425" lon="2.04163">
        <ele>150</ele>
        <time>2013-01-13T09:26:17Z</time>
      </trkpt>
      <trkpt lat="48.88426" lon="2.04155">
        <ele>151</ele>
        <time>2013-01-13T09:26:22Z</time>
      </trkpt>
      <trkpt lat="48.88427" lon="2.04145">
        <ele>152</ele>
        <time>2013-01-13T09:26:27Z</time>
      </trkpt>
      <trkpt lat="48.88428" lon="2.04135">
        <ele>153</ele>
        <time>2013-01-13T09:26:30Z</time>
      </trkpt>
      <trkpt lat="48.88425" lon="2.0413">
        <ele>153</ele>
        <time>2013-01-13T09:26:34Z</time>
      </trkpt>
      <trkpt lat="48.88425" lon="2.04123">
        <ele>153</ele>
        <time>2013-01-13T09:26:38Z</time>
      </trkpt>
      <trkpt lat="48.88422" lon="2.04116">
        <ele>154</ele>
        <time>2013-01-13T09:26:42Z</time>
      </trkpt>
      <trkpt lat="48.88418" lon="2.0411">
        <ele>154</ele>
        <time>2013-01-13T09:26:45Z</time>
      </trkpt>
      <trkpt lat="48.88414" lon="2.04105">
        <ele>153</ele>
        <time>2013-01-13T09:26:48Z</time>
      </trkpt>
      <trkpt lat="48.8841" lon="2.04103">
        <ele>153</ele>
        <time>2013-01-13T09:26:52Z</time>
      </trkpt>
      <trkpt lat="48.88409" lon="2.04095">
        <ele>154</ele>
        <time>2013-01-13T09:26:58Z</time>
      </trkpt>
      <trkpt lat="48.88403" lon="2.04081">
        <ele>156</ele>
        <time>2013-01-13T09:27:07Z</time>
      </trkpt>
      <trkpt lat="48.88402" lon="2.04073">
        <ele>156</ele>
        <time>2013-01-13T09:27:13Z</time>
      </trkpt>
      <trkpt lat="48.884" lon="2.04065">
        <ele>157</ele>
        <time>2013-01-13T09:27:17Z</time>
      </trkpt>
      <trkpt lat="48.88397" lon="2.0406">
        <ele>157</ele>
        <time>2013-01-13T09:27:20Z</time>
      </trkpt>
      <trkpt lat="48.88395" lon="2.04053">
        <ele>157</ele>
        <time>2013-01-13T09:27:24Z</time>
      </trkpt>
      <trkpt lat="48.88394" lon="2.04046">
        <ele>157</ele>
        <time>2013-01-13T09:27:28Z</time>
      </trkpt>
      <trkpt lat="48.88395" lon="2.04039">
        <ele>158</ele>
        <time>2013-01-13T09:27:32Z</time>
      </trkpt>
      <trkpt lat="48.88393" lon="2.04032">
        <ele>158</ele>
        <time>2013-01-13T09:27:38Z</time>
      </trkpt>
      <trkpt lat="48.8839" lon="2.04026">
        <ele>158</ele>
        <time>2013-01-13T09:27:43Z</time>
      </trkpt>
      <trkpt lat="48.88385" lon="2.04014">
        <ele>158</ele>
        <time>2013-01-13T09:27:52Z</time>
      </trkpt>
      <trkpt lat="48.8838" lon="2.04001">
        <ele>158</ele>
        <time>2013-01-13T09:27:59Z</time>
      </trkpt>
      <trkpt lat="48.88377" lon="2.03994">
        <ele>162</ele>
        <time>2013-01-13T09:28:03Z</time>
      </trkpt>
      <trkpt lat="48.88376" lon="2.03987">
        <ele>162</ele>
        <time>2013-01-13T09:28:07Z</time>
      </trkpt>
      <trkpt lat="48.88371" lon="2.0398">
        <ele>162</ele>
        <time>2013-01-13T09:28:12Z</time>
      </trkpt>
      <trkpt lat="48.88368" lon="2.03972">
        <ele>162</ele>
        <time>2013-01-13T09:28:17Z</time>
      </trkpt>
      <trkpt lat="48.88365" lon="2.03965">
        <ele>162</ele>
        <time>2013-01-13T09:28:20Z</time>
      </trkpt>
      <trkpt lat="48.88361" lon="2.03958">
        <ele>162</ele>
        <time>2013-01-13T09:28:25Z</time>
      </trkpt>
      <trkpt lat="48.88359" lon="2.03952">
        <ele>162</ele>
        <time>2013-01-13T09:28:29Z</time>
      </trkpt>
      <trkpt lat="48.88358" lon="2.03944">
        <ele>163</ele>
        <time>2013-01-13T09:28:33Z</time>
      </trkpt>
      <trkpt lat="48.88356" lon="2.03937">
        <ele>163</ele>
        <time>2013-01-13T09:28:40Z</time>
      </trkpt>
      <trkpt lat="48.88353" lon="2.03931">
        <ele>163</ele>
        <time>2013-01-13T09:28:44Z</time>
      </trkpt>
      <trkpt lat="48.88351" lon="2.03924">
        <ele>163</ele>
        <time>2013-01-13T09:28:49Z</time>
      </trkpt>
      <trkpt lat="48.88348" lon="2.0391">
        <ele>165</ele>
        <time>2013-01-13T09:29:02Z</time>
      </trkpt>
      <trkpt lat="48.88345" lon="2.03905">
        <ele>165</ele>
        <time>2013-01-13T09:29:05Z</time>
      </trkpt>
      <trkpt lat="48.88341" lon="2.03899">
        <ele>165</ele>
        <time>2013-01-13T09:29:10Z</time>
      </trkpt>
      <trkpt lat="48.88338" lon="2.03892">
        <ele>165</ele>
        <time>2013-01-13T09:29:14Z</time>
      </trkpt>
      <trkpt lat="48.88338" lon="2.03885">
        <ele>166</ele>
        <time>2013-01-13T09:29:18Z</time>
      </trkpt>
      <trkpt lat="48.88336" lon="2.03879">
        <ele>166</ele>
        <time>2013-01-13T09:29:24Z</time>
      </trkpt>
      <trkpt lat="48.88334" lon="2.03871">
        <ele>166</ele>
        <time>2013-01-13T09:29:28Z</time>
      </trkpt>
      <trkpt lat="48.8833" lon="2.03867">
        <ele>164</ele>
        <time>2013-01-13T09:29:35Z</time>
      </trkpt>
      <trkpt lat="48.88328" lon="2.03858">
        <ele>165</ele>
        <time>2013-01-13T09:29:42Z</time>
      </trkpt>
      <trkpt lat="48.88327" lon="2.03851">
        <ele>165</ele>
        <time>2013-01-13T09:29:47Z</time>
      </trkpt>
      <trkpt lat="48.88325" lon="2.03843">
        <ele>166</ele>
        <time>2013-01-13T09:30:05Z</time>
      </trkpt>
      <trkpt lat="48.88322" lon="2.03835">
        <ele>166</ele>
        <time>2013-01-13T09:30:10Z</time>
      </trkpt>
      <trkpt lat="48.88319" lon="2.03831">
        <ele>168</ele>
        <time>2013-01-13T09:30:18Z</time>
      </trkpt>
      <trkpt lat="48.88316" lon="2.0382">
        <ele>168</ele>
        <time>2013-01-13T09:30:22Z</time>
      </trkpt>
      <trkpt lat="48.88314" lon="2.03812">
        <ele>168</ele>
        <time>2013-01-13T09:30:28Z</time>
      </trkpt>
      <trkpt lat="48.88312" lon="2.03805">
        <ele>168</ele>
        <time>2013-01-13T09:30:33Z</time>
      </trkpt>
      <trkpt lat="48.88309" lon="2.03798">
        <ele>168</ele>
        <time>2013-01-13T09:30:38Z</time>
      </trkpt>
      <trkpt lat="48.88308" lon="2.0379">
        <ele>169</ele>
        <time>2013-01-13T09:30:42Z</time>
      </trkpt>
      <trkpt lat="48.88306" lon="2.03784">
        <ele>169</ele>
        <time>2013-01-13T09:30:45Z</time>
      </trkpt>
      <trkpt lat="48.88303" lon="2.03778">
        <ele>169</ele>
        <time>2013-01-13T09:30:50Z</time>
      </trkpt>
      <trkpt lat="48.88301" lon="2.03773">
        <ele>169</ele>
        <time>2013-01-13T09:30:54Z</time>
      </trkpt>
      <trkpt lat="48.883" lon="2.03763">
        <ele>169</ele>
        <time>2013-01-13T09:30:57Z</time>
      </trkpt>
      <trkpt lat="48.88297" lon="2.03756">
        <ele>169</ele>
        <time>2013-01-13T09:31:02Z</time>
      </trkpt>
      <trkpt lat="48.88292" lon="2.03747">
        <ele>172</ele>
        <time>2013-01-13T09:31:07Z</time>
      </trkpt>
      <trkpt lat="48.88288" lon="2.03743">
        <ele>172</ele>
        <time>2013-01-13T09:31:10Z</time>
      </trkpt>
      <trkpt lat="48.88287" lon="2.03736">
        <ele>172</ele>
        <time>2013-01-13T09:31:13Z</time>
      </trkpt>
      <trkpt lat="48.88291" lon="2.03731">
        <ele>172</ele>
        <time>2013-01-13T09:31:55Z</time>
      </trkpt>
      <trkpt lat="48.88286" lon="2.03726">
        <ele>172</ele>
        <time>2013-01-13T09:32:23Z</time>
      </trkpt>
      <trkpt lat="48.88283" lon="2.03719">
        <ele>172</ele>
        <time>2013-01-13T09:32:27Z</time>
      </trkpt>
      <trkpt lat="48.8828" lon="2.03712">
        <ele>172</ele>
        <time>2013-01-13T09:32:34Z</time>
      </trkpt>
      <trkpt lat="48.88277" lon="2.03706">
        <ele>172</ele>
        <time>2013-01-13T09:32:39Z</time>
      </trkpt>
      <trkpt lat="48.88273" lon="2.037">
        <ele>172</ele>
        <time>2013-01-13T09:32:43Z</time>
      </trkpt>
      <trkpt lat="48.88271" lon="2.03693">
        <ele>172</ele>
        <time>2013-01-13T09:32:48Z</time>
      </trkpt>
      <trkpt lat="48.88269" lon="2.03685">
        <ele>172</ele>
        <time>2013-01-13T09:32:52Z</time>
      </trkpt>
      <trkpt lat="48.88267" lon="2.03673">
        <ele>173</ele>
        <time>2013-01-13T09:32:57Z</time>
      </trkpt>
      <trkpt lat="48.88263" lon="2.03665">
        <ele>173</ele>
        <time>2013-01-13T09:33:02Z</time>
      </trkpt>
      <trkpt lat="48.88261" lon="2.03658">
        <ele>173</ele>
        <time>2013-01-13T09:33:05Z</time>
      </trkpt>
      <trkpt lat="48.88258" lon="2.0365">
        <ele>173</ele>
        <time>2013-01-13T09:33:09Z</time>
      </trkpt>
      <trkpt lat="48.88256" lon="2.03644">
        <ele>173</ele>
        <time>2013-01-13T09:33:13Z</time>
      </trkpt>
      <trkpt lat="48.88253" lon="2.03638">
        <ele>173</ele>
        <time>2013-01-13T09:33:17Z</time>
      </trkpt>
      <trkpt lat="48.88251" lon="2.03631">
        <ele>173</ele>
        <time>2013-01-13T09:33:22Z</time>
      </trkpt>
      <trkpt lat="48.8825" lon="2.03625">
        <ele>174</ele>
        <time>2013-01-13T09:33:25Z</time>
      </trkpt>
      <trkpt lat="48.88248" lon="2.03618">
        <ele>174</ele>
        <time>2013-01-13T09:33:30Z</time>
      </trkpt>
      <trkpt lat="48.88247" lon="2.0361">
        <ele>174</ele>
        <time>2013-01-13T09:33:34Z</time>
      </trkpt>
      <trkpt lat="48.88243" lon="2.03604">
        <ele>174</ele>
        <time>2013-01-13T09:33:38Z</time>
      </trkpt>
      <trkpt lat="48.8824" lon="2.03599">
        <ele>174</ele>
        <time>2013-01-13T09:33:40Z</time>
      </trkpt>
      <trkpt lat="48.88238" lon="2.03593">
        <ele>174</ele>
        <time>2013-01-13T09:33:44Z</time>
      </trkpt>
      <trkpt lat="48.88236" lon="2.03586">
        <ele>174</ele>
        <time>2013-01-13T09:33:47Z</time>
      </trkpt>
      <trkpt lat="48.88234" lon="2.03578">
        <ele>175</ele>
        <time>2013-01-13T09:33:50Z</time>
      </trkpt>
      <trkpt lat="48.88232" lon="2.03571">
        <ele>175</ele>
        <time>2013-01-13T09:33:55Z</time>
      </trkpt>
      <trkpt lat="48.8823" lon="2.03562">
        <ele>175</ele>
        <time>2013-01-13T09:33:59Z</time>
      </trkpt>
      <trkpt lat="48.88229" lon="2.03554">
        <ele>176</ele>
        <time>2013-01-13T09:34:02Z</time>
      </trkpt>
      <trkpt lat="48.88226" lon="2.03547">
        <ele>176</ele>
        <time>2013-01-13T09:34:07Z</time>
      </trkpt>
      <trkpt lat="48.88222" lon="2.03541">
        <ele>176</ele>
        <time>2013-01-13T09:34:10Z</time>
      </trkpt>
      <trkpt lat="48.88219" lon="2.03534">
        <ele>176</ele>
        <time>2013-01-13T09:34:13Z</time>
      </trkpt>
      <trkpt lat="48.88217" lon="2.03526">
        <ele>176</ele>
        <time>2013-01-13T09:34:18Z</time>
      </trkpt>
      <trkpt lat="48.88214" lon="2.03517">
        <ele>176</ele>
        <time>2013-01-13T09:34:22Z</time>
      </trkpt>
      <trkpt lat="48.88208" lon="2.03504">
        <ele>177</ele>
        <time>2013-01-13T09:34:35Z</time>
      </trkpt>
      <trkpt lat="48.88205" lon="2.03499">
        <ele>178</ele>
        <time>2013-01-13T09:34:38Z</time>
      </trkpt>
      <trkpt lat="48.882" lon="2.03493">
        <ele>178</ele>
        <time>2013-01-13T09:34:42Z</time>
      </trkpt>
      <trkpt lat="48.882" lon="2.03483">
        <ele>178</ele>
        <time>2013-01-13T09:34:47Z</time>
      </trkpt>
      <trkpt lat="48.88199" lon="2.03477">
        <ele>178</ele>
        <time>2013-01-13T09:34:49Z</time>
      </trkpt>
      <trkpt lat="48.88197" lon="2.03469">
        <ele>178</ele>
        <time>2013-01-13T09:34:53Z</time>
      </trkpt>
      <trkpt lat="48.88192" lon="2.03466">
        <ele>178</ele>
        <time>2013-01-13T09:34:58Z</time>
      </trkpt>
      <trkpt lat="48.8819" lon="2.03454">
        <ele>178</ele>
        <time>2013-01-13T09:35:02Z</time>
      </trkpt>
      <trkpt lat="48.88187" lon="2.03448">
        <ele>178</ele>
        <time>2013-01-13T09:35:05Z</time>
      </trkpt>
      <trkpt lat="48.88185" lon="2.0344">
        <ele>178</ele>
        <time>2013-01-13T09:35:08Z</time>
      </trkpt>
      <trkpt lat="48.88183" lon="2.0343">
        <ele>179</ele>
        <time>2013-01-13T09:35:12Z</time>
      </trkpt>
      <trkpt lat="48.88182" lon="2.03423">
        <ele>179</ele>
        <time>2013-01-13T09:35:17Z</time>
      </trkpt>
      <trkpt lat="48.8818" lon="2.03415">
        <ele>179</ele>
        <time>2013-01-13T09:35:20Z</time>
      </trkpt>
      <trkpt lat="48.88176" lon="2.03408">
        <ele>179</ele>
        <time>2013-01-13T09:35:25Z</time>
      </trkpt>
      <trkpt lat="48.88174" lon="2.03399">
        <ele>178</ele>
        <time>2013-01-13T09:35:28Z</time>
      </trkpt>
      <trkpt lat="48.88171" lon="2.03394">
        <ele>178</ele>
        <time>2013-01-13T09:35:32Z</time>
      </trkpt>
      <trkpt lat="48.88167" lon="2.03387">
        <ele>178</ele>
        <time>2013-01-13T09:35:37Z</time>
      </trkpt>
      <trkpt lat="48.88164" lon="2.03378">
        <ele>179</ele>
        <time>2013-01-13T09:35:40Z</time>
      </trkpt>
      <trkpt lat="48.88161" lon="2.03373">
        <ele>179</ele>
        <time>2013-01-13T09:35:44Z</time>
      </trkpt>
      <trkpt lat="48.88159" lon="2.03367">
        <ele>179</ele>
        <time>2013-01-13T09:35:47Z</time>
      </trkpt>
      <trkpt lat="48.88158" lon="2.0336">
        <ele>179</ele>
        <time>2013-01-13T09:35:50Z</time>
      </trkpt>
      <trkpt lat="48.88158" lon="2.03352">
        <ele>178</ele>
        <time>2013-01-13T09:35:54Z</time>
      </trkpt>
      <trkpt lat="48.88158" lon="2.03344">
        <ele>178</ele>
        <time>2013-01-13T09:35:58Z</time>
      </trkpt>
      <trkpt lat="48.88155" lon="2.03337">
        <ele>178</ele>
        <time>2013-01-13T09:36:03Z</time>
      </trkpt>
      <trkpt lat="48.88151" lon="2.0333">
        <ele>178</ele>
        <time>2013-01-13T09:36:07Z</time>
      </trkpt>
      <trkpt lat="48.88147" lon="2.03326">
        <ele>178</ele>
        <time>2013-01-13T09:36:10Z</time>
      </trkpt>
      <trkpt lat="48.88143" lon="2.0332">
        <ele>178</ele>
        <time>2013-01-13T09:36:14Z</time>
      </trkpt>
      <trkpt lat="48.88141" lon="2.03312">
        <ele>178</ele>
        <time>2013-01-13T09:36:17Z</time>
      </trkpt>
      <trkpt lat="48.88146" lon="2.03314">
        <ele>178</ele>
        <time>2013-01-13T09:36:25Z</time>
      </trkpt>
      <trkpt lat="48.88148" lon="2.03314">
        <ele>178</ele>
        <time>2013-01-13T09:38:09Z</time>
      </trkpt>
      <trkpt lat="48.88145" lon="2.03315">
        <ele>178</ele>
        <time>2013-01-13T09:39:48Z</time>
      </trkpt>
      <trkpt lat="48.8815" lon="2.03318">
        <ele>178</ele>
        <time>2013-01-13T09:40:47Z</time>
      </trkpt>
      <trkpt lat="48.88145" lon="2.0332">
        <ele>178</ele>
        <time>2013-01-13T09:43:33Z</time>
      </trkpt>
      <trkpt lat="48.88148" lon="2.03314">
        <ele>178</ele>
        <time>2013-01-13T09:44:08Z</time>
      </trkpt>
      <trkpt lat="48.88153" lon="2.03317">
        <ele>178</ele>
        <time>2013-01-13T09:44:42Z</time>
      </trkpt>
      <trkpt lat="48.88148" lon="2.03315">
        <ele>178</ele>
        <time>2013-01-13T09:45:17Z</time>
      </trkpt>
      <trkpt lat="48.88149" lon="2.03308">
        <ele>178</ele>
        <time>2013-01-13T09:45:24Z</time>
      </trkpt>
      <trkpt lat="48.88144" lon="2.03306">
        <ele>178</ele>
        <time>2013-01-13T09:45:30Z</time>
      </trkpt>
      <trkpt lat="48.88149" lon="2.03307">
        <ele>178</ele>
        <time>2013-01-13T09:46:13Z</time>
      </trkpt>
      <trkpt lat="48.88147" lon="2.03316">
        <ele>178</ele>
        <time>2013-01-13T09:46:30Z</time>
      </trkpt>
      <trkpt lat="48.88142" lon="2.03313">
        <ele>178</ele>
        <time>2013-01-13T09:46:48Z</time>
      </trkpt>
      <trkpt lat="48.88144" lon="2.03306">
        <ele>178</ele>
        <time>2013-01-13T09:48:10Z</time>
      </trkpt>
      <trkpt lat="48.88144" lon="2.03292">
        <ele>178</ele>
        <time>2013-01-13T09:48:24Z</time>
      </trkpt>
      <trkpt lat="48.88144" lon="2.03285">
        <ele>178</ele>
        <time>2013-01-13T09:48:28Z</time>
      </trkpt>
      <trkpt lat="48.88145" lon="2.03278">
        <ele>178</ele>
        <time>2013-01-13T09:48:33Z</time>
      </trkpt>
      <trkpt lat="48.88145" lon="2.03271">
        <ele>178</ele>
        <time>2013-01-13T09:48:37Z</time>
      </trkpt>
      <trkpt lat="48.88143" lon="2.03264">
        <ele>178</ele>
        <time>2013-01-13T09:48:48Z</time>
      </trkpt>
      <trkpt lat="48.88141" lon="2.03256">
        <ele>178</ele>
        <time>2013-01-13T09:48:54Z</time>
      </trkpt>
      <trkpt lat="48.88142" lon="2.0324">
        <ele>178</ele>
        <time>2013-01-13T09:49:02Z</time>
      </trkpt>
      <trkpt lat="48.8814" lon="2.03233">
        <ele>179</ele>
        <time>2013-01-13T09:49:05Z</time>
      </trkpt>
      <trkpt lat="48.88139" lon="2.03217">
        <ele>179</ele>
        <time>2013-01-13T09:49:12Z</time>
      </trkpt>
      <trkpt lat="48.8814" lon="2.0321">
        <ele>179</ele>
        <time>2013-01-13T09:49:15Z</time>
      </trkpt>
      <trkpt lat="48.88138" lon="2.03203">
        <ele>179</ele>
        <time>2013-01-13T09:49:19Z</time>
      </trkpt>
      <trkpt lat="48.88138" lon="2.03194">
        <ele>179</ele>
        <time>2013-01-13T09:49:23Z</time>
      </trkpt>
      <trkpt lat="48.88138" lon="2.03186">
        <ele>179</ele>
        <time>2013-01-13T09:49:27Z</time>
      </trkpt>
      <trkpt lat="48.88138" lon="2.03179">
        <ele>179</ele>
        <time>2013-01-13T09:49:34Z</time>
      </trkpt>
      <trkpt lat="48.88137" lon="2.0317">
        <ele>179</ele>
        <time>2013-01-13T09:49:39Z</time>
      </trkpt>
      <trkpt lat="48.88132" lon="2.03157">
        <ele>179</ele>
        <time>2013-01-13T09:49:49Z</time>
      </trkpt>
      <trkpt lat="48.88132" lon="2.0315">
        <ele>179</ele>
        <time>2013-01-13T09:49:53Z</time>
      </trkpt>
      <trkpt lat="48.88132" lon="2.03141">
        <ele>179</ele>
        <time>2013-01-13T09:49:58Z</time>
      </trkpt>
      <trkpt lat="48.88133" lon="2.03127">
        <ele>179</ele>
        <time>2013-01-13T09:50:07Z</time>
      </trkpt>
      <trkpt lat="48.88132" lon="2.03119">
        <ele>179</ele>
        <time>2013-01-13T09:50:13Z</time>
      </trkpt>
      <trkpt lat="48.8813" lon="2.03112">
        <ele>179</ele>
        <time>2013-01-13T09:50:18Z</time>
      </trkpt>
      <trkpt lat="48.88129" lon="2.03105">
        <ele>179</ele>
        <time>2013-01-13T09:50:22Z</time>
      </trkpt>
      <trkpt lat="48.88128" lon="2.03097">
        <ele>179</ele>
        <time>2013-01-13T09:50:25Z</time>
      </trkpt>
      <trkpt lat="48.88126" lon="2.03089">
        <ele>179</ele>
        <time>2013-01-13T09:50:30Z</time>
      </trkpt>
      <trkpt lat="48.88126" lon="2.03082">
        <ele>179</ele>
        <time>2013-01-13T09:50:33Z</time>
      </trkpt>
      <trkpt lat="48.88127" lon="2.03071">
        <ele>179</ele>
        <time>2013-01-13T09:50:37Z</time>
      </trkpt>
      <trkpt lat="48.8813" lon="2.03063">
        <ele>178</ele>
        <time>2013-01-13T09:50:42Z</time>
      </trkpt>
      <trkpt lat="48.88128" lon="2.03056">
        <ele>178</ele>
        <time>2013-01-13T09:50:47Z</time>
      </trkpt>
      <trkpt lat="48.88129" lon="2.03048">
        <ele>178</ele>
        <time>2013-01-13T09:50:52Z</time>
      </trkpt>
      <trkpt lat="48.8813" lon="2.0304">
        <ele>178</ele>
        <time>2013-01-13T09:50:54Z</time>
      </trkpt>
      <trkpt lat="48.8813" lon="2.03031">
        <ele>178</ele>
        <time>2013-01-13T09:50:57Z</time>
      </trkpt>
      <trkpt lat="48.88131" lon="2.03022">
        <ele>178</ele>
        <time>2013-01-13T09:51:02Z</time>
      </trkpt>
      <trkpt lat="48.88133" lon="2.03015">
        <ele>178</ele>
        <time>2013-01-13T09:51:07Z</time>
      </trkpt>
      <trkpt lat="48.88139" lon="2.03008">
        <ele>178</ele>
        <time>2013-01-13T09:51:13Z</time>
      </trkpt>
      <trkpt lat="48.88142" lon="2.02999">
        <ele>177</ele>
        <time>2013-01-13T09:51:18Z</time>
      </trkpt>
      <trkpt lat="48.88145" lon="2.02991">
        <ele>177</ele>
        <time>2013-01-13T09:51:22Z</time>
      </trkpt>
      <trkpt lat="48.88144" lon="2.02983">
        <ele>177</ele>
        <time>2013-01-13T09:51:29Z</time>
      </trkpt>
      <trkpt lat="48.88144" lon="2.02976">
        <ele>177</ele>
        <time>2013-01-13T09:51:33Z</time>
      </trkpt>
      <trkpt lat="48.88143" lon="2.02967">
        <ele>177</ele>
        <time>2013-01-13T09:51:38Z</time>
      </trkpt>
      <trkpt lat="48.88144" lon="2.02956">
        <ele>177</ele>
        <time>2013-01-13T09:51:42Z</time>
      </trkpt>
      <trkpt lat="48.88144" lon="2.02948">
        <ele>177</ele>
        <time>2013-01-13T09:51:48Z</time>
      </trkpt>
      <trkpt lat="48.88145" lon="2.02942">
        <ele>177</ele>
        <time>2013-01-13T09:51:52Z</time>
      </trkpt>
      <trkpt lat="48.88148" lon="2.02933">
        <ele>176</ele>
        <time>2013-01-13T09:51:57Z</time>
      </trkpt>
      <trkpt lat="48.88151" lon="2.02926">
        <ele>176</ele>
        <time>2013-01-13T09:52:02Z</time>
      </trkpt>
      <trkpt lat="48.88153" lon="2.02919">
        <ele>176</ele>
        <time>2013-01-13T09:52:07Z</time>
      </trkpt>
      <trkpt lat="48.88154" lon="2.02905">
        <ele>177</ele>
        <time>2013-01-13T09:52:18Z</time>
      </trkpt>
      <trkpt lat="48.88155" lon="2.02897">
        <ele>177</ele>
        <time>2013-01-13T09:52:25Z</time>
      </trkpt>
      <trkpt lat="48.88157" lon="2.02891">
        <ele>177</ele>
        <time>2013-01-13T09:52:29Z</time>
      </trkpt>
      <trkpt lat="48.88159" lon="2.02877">
        <ele>177</ele>
        <time>2013-01-13T09:52:38Z</time>
      </trkpt>
      <trkpt lat="48.8816" lon="2.02869">
        <ele>178</ele>
        <time>2013-01-13T09:52:44Z</time>
      </trkpt>
      <trkpt lat="48.88161" lon="2.02861">
        <ele>178</ele>
        <time>2013-01-13T09:52:48Z</time>
      </trkpt>
      <trkpt lat="48.88168" lon="2.02853">
        <ele>176</ele>
        <time>2013-01-13T09:52:57Z</time>
      </trkpt>
      <trkpt lat="48.88163" lon="2.02846">
        <ele>178</ele>
        <time>2013-01-13T09:53:02Z</time>
      </trkpt>
      <trkpt lat="48.88163" lon="2.02838">
        <ele>178</ele>
        <time>2013-01-13T09:53:07Z</time>
      </trkpt>
      <trkpt lat="48.88166" lon="2.02832">
        <ele>178</ele>
        <time>2013-01-13T09:53:10Z</time>
      </trkpt>
      <trkpt lat="48.88168" lon="2.02823">
        <ele>178</ele>
        <time>2013-01-13T09:53:13Z</time>
      </trkpt>
      <trkpt lat="48.8817" lon="2.02815">
        <ele>178</ele>
        <time>2013-01-13T09:53:19Z</time>
      </trkpt>
      <trkpt lat="48.88169" lon="2.02807">
        <ele>178</ele>
        <time>2013-01-13T09:53:23Z</time>
      </trkpt>
      <trkpt lat="48.88171" lon="2.02797">
        <ele>178</ele>
        <time>2013-01-13T09:53:27Z</time>
      </trkpt>
      <trkpt lat="48.8817" lon="2.02787">
        <ele>179</ele>
        <time>2013-01-13T09:53:32Z</time>
      </trkpt>
      <trkpt lat="48.88171" lon="2.02778">
        <ele>179</ele>
        <time>2013-01-13T09:53:37Z</time>
      </trkpt>
      <trkpt lat="48.88173" lon="2.02768">
        <ele>179</ele>
        <time>2013-01-13T09:53:42Z</time>
      </trkpt>
      <trkpt lat="48.88175" lon="2.0276">
        <ele>180</ele>
        <time>2013-01-13T09:53:45Z</time>
      </trkpt>
      <trkpt lat="48.88175" lon="2.02752">
        <ele>180</ele>
        <time>2013-01-13T09:53:50Z</time>
      </trkpt>
      <trkpt lat="48.88176" lon="2.02745">
        <ele>180</ele>
        <time>2013-01-13T09:53:55Z</time>
      </trkpt>
      <trkpt lat="48.88181" lon="2.02741">
        <ele>180</ele>
        <time>2013-01-13T09:54:02Z</time>
      </trkpt>
      <trkpt lat="48.88182" lon="2.02732">
        <ele>180</ele>
        <time>2013-01-13T09:54:07Z</time>
      </trkpt>
      <trkpt lat="48.88183" lon="2.02722">
        <ele>180</ele>
        <time>2013-01-13T09:54:12Z</time>
      </trkpt>
      <trkpt lat="48.8818" lon="2.02714">
        <ele>180</ele>
        <time>2013-01-13T09:54:18Z</time>
      </trkpt>
      <trkpt lat="48.88177" lon="2.02704">
        <ele>180</ele>
        <time>2013-01-13T09:54:22Z</time>
      </trkpt>
      <trkpt lat="48.88176" lon="2.02697">
        <ele>180</ele>
        <time>2013-01-13T09:54:27Z</time>
      </trkpt>
      <trkpt lat="48.88175" lon="2.02689">
        <ele>181</ele>
        <time>2013-01-13T09:54:30Z</time>
      </trkpt>
      <trkpt lat="48.88176" lon="2.02682">
        <ele>181</ele>
        <time>2013-01-13T09:54:32Z</time>
      </trkpt>
      <trkpt lat="48.88177" lon="2.02673">
        <ele>181</ele>
        <time>2013-01-13T09:54:37Z</time>
      </trkpt>
      <trkpt lat="48.88183" lon="2.02666">
        <ele>181</ele>
        <time>2013-01-13T09:54:42Z</time>
      </trkpt>
      <trkpt lat="48.88188" lon="2.02661">
        <ele>181</ele>
        <time>2013-01-13T09:54:45Z</time>
      </trkpt>
      <trkpt lat="48.88192" lon="2.02655">
        <ele>180</ele>
        <time>2013-01-13T09:54:50Z</time>
      </trkpt>
      <trkpt lat="48.88194" lon="2.02648">
        <ele>180</ele>
        <time>2013-01-13T09:54:54Z</time>
      </trkpt>
      <trkpt lat="48.88196" lon="2.02641">
        <ele>180</ele>
        <time>2013-01-13T09:55:00Z</time>
      </trkpt>
      <trkpt lat="48.88201" lon="2.02636">
        <ele>180</ele>
        <time>2013-01-13T09:55:04Z</time>
      </trkpt>
      <trkpt lat="48.88204" lon="2.02631">
        <ele>180</ele>
        <time>2013-01-13T09:55:10Z</time>
      </trkpt>
      <trkpt lat="48.88208" lon="2.02624">
        <ele>180</ele>
        <time>2013-01-13T09:55:14Z</time>
      </trkpt>
      <trkpt lat="48.88212" lon="2.0262">
        <ele>180</ele>
        <time>2013-01-13T09:55:18Z</time>
      </trkpt>
      <trkpt lat="48.88219" lon="2.02616">
        <ele>180</ele>
        <time>2013-01-13T09:55:22Z</time>
      </trkpt>
      <trkpt lat="48.88223" lon="2.02611">
        <ele>180</ele>
        <time>2013-01-13T09:55:25Z</time>
      </trkpt>
      <trkpt lat="48.88226" lon="2.02607">
        <ele>179</ele>
        <time>2013-01-13T09:55:28Z</time>
      </trkpt>
      <trkpt lat="48.88232" lon="2.02603">
        <ele>179</ele>
        <time>2013-01-13T09:55:32Z</time>
      </trkpt>
      <trkpt lat="48.88239" lon="2.02593">
        <ele>179</ele>
        <time>2013-01-13T09:55:39Z</time>
      </trkpt>
      <trkpt lat="48.88243" lon="2.02589">
        <ele>179</ele>
        <time>2013-01-13T09:55:43Z</time>
      </trkpt>
      <trkpt lat="48.88248" lon="2.02583">
        <ele>179</ele>
        <time>2013-01-13T09:55:47Z</time>
      </trkpt>
      <trkpt lat="48.8825" lon="2.02577">
        <ele>179</ele>
        <time>2013-01-13T09:55:52Z</time>
      </trkpt>
      <trkpt lat="48.88256" lon="2.0257">
        <ele>178</ele>
        <time>2013-01-13T09:55:55Z</time>
      </trkpt>
      <trkpt lat="48.8826" lon="2.02565">
        <ele>178</ele>
        <time>2013-01-13T09:55:57Z</time>
      </trkpt>
      <trkpt lat="48.88267" lon="2.02559">
        <ele>178</ele>
        <time>2013-01-13T09:56:02Z</time>
      </trkpt>
      <trkpt lat="48.88271" lon="2.02553">
        <ele>178</ele>
        <time>2013-01-13T09:56:07Z</time>
      </trkpt>
      <trkpt lat="48.88273" lon="2.02545">
        <ele>178</ele>
        <time>2013-01-13T09:56:12Z</time>
      </trkpt>
      <trkpt lat="48.88279" lon="2.0254">
        <ele>177</ele>
        <time>2013-01-13T09:56:17Z</time>
      </trkpt>
      <trkpt lat="48.88286" lon="2.02535">
        <ele>177</ele>
        <time>2013-01-13T09:56:22Z</time>
      </trkpt>
      <trkpt lat="48.88291" lon="2.02533">
        <ele>177</ele>
        <time>2013-01-13T09:56:24Z</time>
      </trkpt>
      <trkpt lat="48.88295" lon="2.02532">
        <ele>177</ele>
        <time>2013-01-13T09:56:27Z</time>
      </trkpt>
      <trkpt lat="48.88297" lon="2.02524">
        <ele>177</ele>
        <time>2013-01-13T09:56:33Z</time>
      </trkpt>
      <trkpt lat="48.88299" lon="2.02517">
        <ele>177</ele>
        <time>2013-01-13T09:56:37Z</time>
      </trkpt>
      <trkpt lat="48.88304" lon="2.0251">
        <ele>177</ele>
        <time>2013-01-13T09:56:42Z</time>
      </trkpt>
      <trkpt lat="48.8831" lon="2.02499">
        <ele>175</ele>
        <time>2013-01-13T09:56:50Z</time>
      </trkpt>
      <trkpt lat="48.88315" lon="2.02495">
        <ele>175</ele>
        <time>2013-01-13T09:56:54Z</time>
      </trkpt>
      <trkpt lat="48.8832" lon="2.02492">
        <ele>175</ele>
        <time>2013-01-13T09:56:57Z</time>
      </trkpt>
      <trkpt lat="48.88325" lon="2.02485">
        <ele>175</ele>
        <time>2013-01-13T09:57:02Z</time>
      </trkpt>
      <trkpt lat="48.8833" lon="2.02481">
        <ele>175</ele>
        <time>2013-01-13T09:57:05Z</time>
      </trkpt>
      <trkpt lat="48.88333" lon="2.02474">
        <ele>175</ele>
        <time>2013-01-13T09:57:08Z</time>
      </trkpt>
      <trkpt lat="48.88332" lon="2.02466">
        <ele>175</ele>
        <time>2013-01-13T09:57:13Z</time>
      </trkpt>
      <trkpt lat="48.88334" lon="2.02458">
        <ele>173</ele>
        <time>2013-01-13T09:57:17Z</time>
      </trkpt>
      <trkpt lat="48.88334" lon="2.0245">
        <ele>173</ele>
        <time>2013-01-13T09:57:25Z</time>
      </trkpt>
      <trkpt lat="48.88335" lon="2.02442">
        <ele>173</ele>
        <time>2013-01-13T09:57:29Z</time>
      </trkpt>
      <trkpt lat="48.88335" lon="2.02434">
        <ele>173</ele>
        <time>2013-01-13T09:57:32Z</time>
      </trkpt>
      <trkpt lat="48.88338" lon="2.02428">
        <ele>173</ele>
        <time>2013-01-13T09:57:35Z</time>
      </trkpt>
      <trkpt lat="48.8834" lon="2.02422">
        <ele>173</ele>
        <time>2013-01-13T09:57:39Z</time>
      </trkpt>
      <trkpt lat="48.8834" lon="2.02413">
        <ele>173</ele>
        <time>2013-01-13T09:57:43Z</time>
      </trkpt>
      <trkpt lat="48.88339" lon="2.02406">
        <ele>173</ele>
        <time>2013-01-13T09:57:48Z</time>
      </trkpt>
      <trkpt lat="48.88339" lon="2.02398">
        <ele>173</ele>
        <time>2013-01-13T09:57:52Z</time>
      </trkpt>
      <trkpt lat="48.88339" lon="2.0239">
        <ele>173</ele>
        <time>2013-01-13T09:57:58Z</time>
      </trkpt>
      <trkpt lat="48.88339" lon="2.02382">
        <ele>173</ele>
        <time>2013-01-13T09:58:03Z</time>
      </trkpt>
      <trkpt lat="48.8834" lon="2.02376">
        <ele>173</ele>
        <time>2013-01-13T09:58:08Z</time>
      </trkpt>
      <trkpt lat="48.88339" lon="2.02368">
        <ele>173</ele>
        <time>2013-01-13T09:58:13Z</time>
      </trkpt>
      <trkpt lat="48.88338" lon="2.02361">
        <ele>173</ele>
        <time>2013-01-13T09:58:17Z</time>
      </trkpt>
      <trkpt lat="48.88335" lon="2.02347">
        <ele>173</ele>
        <time>2013-01-13T09:58:25Z</time>
      </trkpt>
      <trkpt lat="48.8833" lon="2.02344">
        <ele>174</ele>
        <time>2013-01-13T09:58:29Z</time>
      </trkpt>
      <trkpt lat="48.88326" lon="2.02342">
        <ele>174</ele>
        <time>2013-01-13T09:58:32Z</time>
      </trkpt>
      <trkpt lat="48.88321" lon="2.02337">
        <ele>175</ele>
        <time>2013-01-13T09:58:37Z</time>
      </trkpt>
      <trkpt lat="48.88317" lon="2.0233">
        <ele>175</ele>
        <time>2013-01-13T09:58:42Z</time>
      </trkpt>
      <trkpt lat="48.88313" lon="2.02324">
        <ele>176</ele>
        <time>2013-01-13T09:58:47Z</time>
      </trkpt>
      <trkpt lat="48.88307" lon="2.0232">
        <ele>176</ele>
        <time>2013-01-13T09:58:52Z</time>
      </trkpt>
      <trkpt lat="48.88302" lon="2.02319">
        <ele>176</ele>
        <time>2013-01-13T09:58:57Z</time>
      </trkpt>
      <trkpt lat="48.88297" lon="2.02316">
        <ele>176</ele>
        <time>2013-01-13T09:59:07Z</time>
      </trkpt>
      <trkpt lat="48.88292" lon="2.02312">
        <ele>176</ele>
        <time>2013-01-13T09:59:12Z</time>
      </trkpt>
      <trkpt lat="48.88287" lon="2.02307">
        <ele>177</ele>
        <time>2013-01-13T09:59:15Z</time>
      </trkpt>
      <trkpt lat="48.88284" lon="2.02302">
        <ele>177</ele>
        <time>2013-01-13T09:59:17Z</time>
      </trkpt>
      <trkpt lat="48.88282" lon="2.02295">
        <ele>177</ele>
        <time>2013-01-13T09:59:22Z</time>
      </trkpt>
      <trkpt lat="48.88282" lon="2.02286">
        <ele>177</ele>
        <time>2013-01-13T09:59:25Z</time>
      </trkpt>
      <trkpt lat="48.8828" lon="2.02276">
        <ele>177</ele>
        <time>2013-01-13T09:59:32Z</time>
      </trkpt>
      <trkpt lat="48.88276" lon="2.02269">
        <ele>177</ele>
        <time>2013-01-13T09:59:37Z</time>
      </trkpt>
      <trkpt lat="48.88272" lon="2.02264">
        <ele>177</ele>
        <time>2013-01-13T09:59:40Z</time>
      </trkpt>
      <trkpt lat="48.88268" lon="2.02257">
        <ele>178</ele>
        <time>2013-01-13T09:59:43Z</time>
      </trkpt>
      <trkpt lat="48.88264" lon="2.02252">
        <ele>178</ele>
        <time>2013-01-13T09:59:45Z</time>
      </trkpt>
      <trkpt lat="48.8826" lon="2.02247">
        <ele>178</ele>
        <time>2013-01-13T09:59:50Z</time>
      </trkpt>
      <trkpt lat="48.88254" lon="2.02237">
        <ele>178</ele>
        <time>2013-01-13T09:59:57Z</time>
      </trkpt>
      <trkpt lat="48.88248" lon="2.02233">
        <ele>180</ele>
        <time>2013-01-13T10:00:02Z</time>
      </trkpt>
      <trkpt lat="48.88242" lon="2.02225">
        <ele>180</ele>
        <time>2013-01-13T10:00:07Z</time>
      </trkpt>
      <trkpt lat="48.88237" lon="2.02219">
        <ele>181</ele>
        <time>2013-01-13T10:00:12Z</time>
      </trkpt>
      <trkpt lat="48.88234" lon="2.02214">
        <ele>181</ele>
        <time>2013-01-13T10:00:15Z</time>
      </trkpt>
      <trkpt lat="48.88229" lon="2.02209">
        <ele>181</ele>
        <time>2013-01-13T10:00:17Z</time>
      </trkpt>
      <trkpt lat="48.88223" lon="2.02208">
        <ele>181</ele>
        <time>2013-01-13T10:00:19Z</time>
      </trkpt>
      <trkpt lat="48.88218" lon="2.02208">
        <ele>181</ele>
        <time>2013-01-13T10:00:23Z</time>
      </trkpt>
      <trkpt lat="48.88213" lon="2.02203">
        <ele>182</ele>
        <time>2013-01-13T10:00:28Z</time>
      </trkpt>
      <trkpt lat="48.88209" lon="2.02197">
        <ele>182</ele>
        <time>2013-01-13T10:00:32Z</time>
      </trkpt>
      <trkpt lat="48.88212" lon="2.02189">
        <ele>182</ele>
        <time>2013-01-13T10:00:40Z</time>
      </trkpt>
      <trkpt lat="48.88213" lon="2.0218">
        <ele>181</ele>
        <time>2013-01-13T10:00:47Z</time>
      </trkpt>
      <trkpt lat="48.88214" lon="2.02172">
        <ele>181</ele>
        <time>2013-01-13T10:00:50Z</time>
      </trkpt>
      <trkpt lat="48.88218" lon="2.02167">
        <ele>181</ele>
        <time>2013-01-13T10:00:52Z</time>
      </trkpt>
      <trkpt lat="48.88221" lon="2.02161">
        <ele>180</ele>
        <time>2013-01-13T10:00:54Z</time>
      </trkpt>
      <trkpt lat="48.88224" lon="2.02155">
        <ele>180</ele>
        <time>2013-01-13T10:00:57Z</time>
      </trkpt>
      <trkpt lat="48.88224" lon="2.02147">
        <ele>180</ele>
        <time>2013-01-13T10:01:04Z</time>
      </trkpt>
      <trkpt lat="48.88226" lon="2.0214">
        <ele>180</ele>
        <time>2013-01-13T10:01:07Z</time>
      </trkpt>
      <trkpt lat="48.88228" lon="2.02133">
        <ele>180</ele>
        <time>2013-01-13T10:01:10Z</time>
      </trkpt>
      <trkpt lat="48.88228" lon="2.02125">
        <ele>180</ele>
        <time>2013-01-13T10:01:14Z</time>
      </trkpt>
      <trkpt lat="48.88227" lon="2.02118">
        <ele>180</ele>
        <time>2013-01-13T10:01:17Z</time>
      </trkpt>
      <trkpt lat="48.88227" lon="2.02111">
        <ele>180</ele>
        <time>2013-01-13T10:01:20Z</time>
      </trkpt>
      <trkpt lat="48.88228" lon="2.02104">
        <ele>179</ele>
        <time>2013-01-13T10:01:24Z</time>
      </trkpt>
      <trkpt lat="48.88232" lon="2.02099">
        <ele>179</ele>
        <time>2013-01-13T10:01:29Z</time>
      </trkpt>
      <trkpt lat="48.88235" lon="2.02091">
        <ele>178</ele>
        <time>2013-01-13T10:01:32Z</time>
      </trkpt>
      <trkpt lat="48.88237" lon="2.02083">
        <ele>176</ele>
        <time>2013-01-13T10:01:37Z</time>
      </trkpt>
      <trkpt lat="48.88241" lon="2.02075">
        <ele>176</ele>
        <time>2013-01-13T10:01:42Z</time>
      </trkpt>
      <trkpt lat="48.88244" lon="2.02066">
        <ele>177</ele>
        <time>2013-01-13T10:01:45Z</time>
      </trkpt>
      <trkpt lat="48.88247" lon="2.02061">
        <ele>177</ele>
        <time>2013-01-13T10:01:50Z</time>
      </trkpt>
      <trkpt lat="48.88251" lon="2.02054">
        <ele>171</ele>
        <time>2013-01-13T10:01:54Z</time>
      </trkpt>
      <trkpt lat="48.88254" lon="2.02048">
        <ele>170</ele>
        <time>2013-01-13T10:01:58Z</time>
      </trkpt>
      <trkpt lat="48.88251" lon="2.02042">
        <ele>170</ele>
        <time>2013-01-13T10:02:03Z</time>
      </trkpt>
      <trkpt lat="48.88248" lon="2.02035">
        <ele>177</ele>
        <time>2013-01-13T10:02:07Z</time>
      </trkpt>
      <trkpt lat="48.8825" lon="2.02028">
        <ele>177</ele>
        <time>2013-01-13T10:02:12Z</time>
      </trkpt>
      <trkpt lat="48.88253" lon="2.02023">
        <ele>170</ele>
        <time>2013-01-13T10:02:17Z</time>
      </trkpt>
      <trkpt lat="48.88258" lon="2.02016">
        <ele>171</ele>
        <time>2013-01-13T10:02:22Z</time>
      </trkpt>
      <trkpt lat="48.88262" lon="2.0201">
        <ele>171</ele>
        <time>2013-01-13T10:02:27Z</time>
      </trkpt>
      <trkpt lat="48.88264" lon="2.02">
        <ele>171</ele>
        <time>2013-01-13T10:02:32Z</time>
      </trkpt>
      <trkpt lat="48.88266" lon="2.01992">
        <ele>169</ele>
        <time>2013-01-13T10:02:37Z</time>
      </trkpt>
      <trkpt lat="48.8827" lon="2.01982">
        <ele>168</ele>
        <time>2013-01-13T10:02:42Z</time>
      </trkpt>
      <trkpt lat="48.88276" lon="2.01976">
        <ele>167</ele>
        <time>2013-01-13T10:02:47Z</time>
      </trkpt>
      <trkpt lat="48.88278" lon="2.01969">
        <ele>167</ele>
        <time>2013-01-13T10:02:52Z</time>
      </trkpt>
      <trkpt lat="48.88278" lon="2.01961">
        <ele>167</ele>
        <time>2013-01-13T10:03:02Z</time>
      </trkpt>
      <trkpt lat="48.88279" lon="2.01955">
        <ele>167</ele>
        <time>2013-01-13T10:03:09Z</time>
      </trkpt>
      <trkpt lat="48.88283" lon="2.01949">
        <ele>166</ele>
        <time>2013-01-13T10:03:14Z</time>
      </trkpt>
      <trkpt lat="48.88287" lon="2.01941">
        <ele>166</ele>
        <time>2013-01-13T10:03:17Z</time>
      </trkpt>
      <trkpt lat="48.88289" lon="2.01935">
        <ele>166</ele>
        <time>2013-01-13T10:03:22Z</time>
      </trkpt>
      <trkpt lat="48.88293" lon="2.01928">
        <ele>166</ele>
        <time>2013-01-13T10:03:27Z</time>
      </trkpt>
      <trkpt lat="48.88298" lon="2.01912">
        <ele>167</ele>
        <time>2013-01-13T10:03:37Z</time>
      </trkpt>
      <trkpt lat="48.88301" lon="2.01906">
        <ele>167</ele>
        <time>2013-01-13T10:03:40Z</time>
      </trkpt>
      <trkpt lat="48.883" lon="2.01899">
        <ele>167</ele>
        <time>2013-01-13T10:03:44Z</time>
      </trkpt>
      <trkpt lat="48.883" lon="2.01891">
        <ele>168</ele>
        <time>2013-01-13T10:03:48Z</time>
      </trkpt>
      <trkpt lat="48.883" lon="2.01879">
        <ele>168</ele>
        <time>2013-01-13T10:04:12Z</time>
      </trkpt>
      <trkpt lat="48.88298" lon="2.01871">
        <ele>169</ele>
        <time>2013-01-13T10:04:17Z</time>
      </trkpt>
      <trkpt lat="48.88304" lon="2.0187">
        <ele>169</ele>
        <time>2013-01-13T10:04:37Z</time>
      </trkpt>
      <trkpt lat="48.88309" lon="2.01865">
        <ele>169</ele>
        <time>2013-01-13T10:04:40Z</time>
      </trkpt>
      <trkpt lat="48.88312" lon="2.0186">
        <ele>169</ele>
        <time>2013-01-13T10:04:42Z</time>
      </trkpt>
      <trkpt lat="48.88317" lon="2.01846">
        <ele>169</ele>
        <time>2013-01-13T10:04:47Z</time>
      </trkpt>
      <trkpt lat="48.8832" lon="2.01838">
        <ele>169</ele>
        <time>2013-01-13T10:04:50Z</time>
      </trkpt>
      <trkpt lat="48.88322" lon="2.0183">
        <ele>171</ele>
        <time>2013-01-13T10:04:53Z</time>
      </trkpt>
      <trkpt lat="48.88324" lon="2.01824">
        <ele>172</ele>
        <time>2013-01-13T10:04:55Z</time>
      </trkpt>
      <trkpt lat="48.88327" lon="2.01815">
        <ele>173</ele>
        <time>2013-01-13T10:04:58Z</time>
      </trkpt>
      <trkpt lat="48.88332" lon="2.01803">
        <ele>174</ele>
        <time>2013-01-13T10:05:02Z</time>
      </trkpt>
      <trkpt lat="48.88334" lon="2.01795">
        <ele>171</ele>
        <time>2013-01-13T10:05:05Z</time>
      </trkpt>
      <trkpt lat="48.88339" lon="2.01783">
        <ele>172</ele>
        <time>2013-01-13T10:05:09Z</time>
      </trkpt>
      <trkpt lat="48.88343" lon="2.01768">
        <ele>173</ele>
        <time>2013-01-13T10:05:17Z</time>
      </trkpt>
      <trkpt lat="48.88345" lon="2.01763">
        <ele>174</ele>
        <time>2013-01-13T10:05:27Z</time>
      </trkpt>
      <trkpt lat="48.88348" lon="2.01756">
        <ele>174</ele>
        <time>2013-01-13T10:05:35Z</time>
      </trkpt>
      <trkpt lat="48.88353" lon="2.01748">
        <ele>177</ele>
        <time>2013-01-13T10:05:38Z</time>
      </trkpt>
      <trkpt lat="48.88357" lon="2.01736">
        <ele>177</ele>
        <time>2013-01-13T10:05:42Z</time>
      </trkpt>
      <trkpt lat="48.88359" lon="2.01727">
        <ele>177</ele>
        <time>2013-01-13T10:05:45Z</time>
      </trkpt>
      <trkpt lat="48.88364" lon="2.01715">
        <ele>177</ele>
        <time>2013-01-13T10:05:50Z</time>
      </trkpt>
      <trkpt lat="48.88363" lon="2.01708">
        <ele>178</ele>
        <time>2013-01-13T10:05:53Z</time>
      </trkpt>
      <trkpt lat="48.88365" lon="2.017">
        <ele>178</ele>
        <time>2013-01-13T10:05:58Z</time>
      </trkpt>
      <trkpt lat="48.88369" lon="2.01694">
        <ele>178</ele>
        <time>2013-01-13T10:06:08Z</time>
      </trkpt>
      <trkpt lat="48.88375" lon="2.01695">
        <ele>178</ele>
        <time>2013-01-13T10:06:37Z</time>
      </trkpt>
      <trkpt lat="48.8838" lon="2.01694">
        <ele>178</ele>
        <time>2013-01-13T10:06:40Z</time>
      </trkpt>
      <trkpt lat="48.88387" lon="2.01686">
        <ele>178</ele>
        <time>2013-01-13T10:06:52Z</time>
      </trkpt>
      <trkpt lat="48.88392" lon="2.01682">
        <ele>178</ele>
        <time>2013-01-13T10:06:59Z</time>
      </trkpt>
      <trkpt lat="48.88395" lon="2.01676">
        <ele>178</ele>
        <time>2013-01-13T10:07:04Z</time>
      </trkpt>
      <trkpt lat="48.88398" lon="2.01669">
        <ele>178</ele>
        <time>2013-01-13T10:07:09Z</time>
      </trkpt>
      <trkpt lat="48.88402" lon="2.01664">
        <ele>179</ele>
        <time>2013-01-13T10:07:12Z</time>
      </trkpt>
      <trkpt lat="48.88406" lon="2.01658">
        <ele>179</ele>
        <time>2013-01-13T10:07:17Z</time>
      </trkpt>
      <trkpt lat="48.88411" lon="2.01653">
        <ele>179</ele>
        <time>2013-01-13T10:07:22Z</time>
      </trkpt>
      <trkpt lat="48.88417" lon="2.01647">
        <ele>177</ele>
        <time>2013-01-13T10:07:27Z</time>
      </trkpt>
      <trkpt lat="48.88425" lon="2.01638">
        <ele>176</ele>
        <time>2013-01-13T10:07:33Z</time>
      </trkpt>
      <trkpt lat="48.88428" lon="2.01631">
        <ele>176</ele>
        <time>2013-01-13T10:07:38Z</time>
      </trkpt>
      <trkpt lat="48.88435" lon="2.01624">
        <ele>176</ele>
        <time>2013-01-13T10:07:42Z</time>
      </trkpt>
      <trkpt lat="48.88439" lon="2.01617">
        <ele>176</ele>
        <time>2013-01-13T10:07:47Z</time>
      </trkpt>
      <trkpt lat="48.88444" lon="2.01611">
        <ele>176</ele>
        <time>2013-01-13T10:07:52Z</time>
      </trkpt>
      <trkpt lat="48.88448" lon="2.01603">
        <ele>176</ele>
        <time>2013-01-13T10:07:57Z</time>
      </trkpt>
      <trkpt lat="48.88451" lon="2.01596">
        <ele>176</ele>
        <time>2013-01-13T10:08:02Z</time>
      </trkpt>
      <trkpt lat="48.88454" lon="2.0159">
        <ele>176</ele>
        <time>2013-01-13T10:08:07Z</time>
      </trkpt>
      <trkpt lat="48.8846" lon="2.01586">
        <ele>176</ele>
        <time>2013-01-13T10:08:12Z</time>
      </trkpt>
      <trkpt lat="48.88467" lon="2.01582">
        <ele>176</ele>
        <time>2013-01-13T10:08:17Z</time>
      </trkpt>
      <trkpt lat="48.88472" lon="2.01577">
        <ele>176</ele>
        <time>2013-01-13T10:08:22Z</time>
      </trkpt>
      <trkpt lat="48.88477" lon="2.01573">
        <ele>176</ele>
        <time>2013-01-13T10:08:27Z</time>
      </trkpt>
      <trkpt lat="48.88482" lon="2.01568">
        <ele>176</ele>
        <time>2013-01-13T10:08:32Z</time>
      </trkpt>
      <trkpt lat="48.88487" lon="2.01562">
        <ele>176</ele>
        <time>2013-01-13T10:08:37Z</time>
      </trkpt>
      <trkpt lat="48.88492" lon="2.0156">
        <ele>176</ele>
        <time>2013-01-13T10:08:42Z</time>
      </trkpt>
      <trkpt lat="48.88496" lon="2.01554">
        <ele>176</ele>
        <time>2013-01-13T10:08:47Z</time>
      </trkpt>
      <trkpt lat="48.88497" lon="2.01538">
        <ele>176</ele>
        <time>2013-01-13T10:09:00Z</time>
      </trkpt>
      <trkpt lat="48.88502" lon="2.01537">
        <ele>174</ele>
        <time>2013-01-13T10:09:04Z</time>
      </trkpt>
      <trkpt lat="48.88506" lon="2.01542">
        <ele>174</ele>
        <time>2013-01-13T10:09:07Z</time>
      </trkpt>
      <trkpt lat="48.88512" lon="2.01543">
        <ele>174</ele>
        <time>2013-01-13T10:09:09Z</time>
      </trkpt>
      <trkpt lat="48.88517" lon="2.0154">
        <ele>174</ele>
        <time>2013-01-13T10:09:12Z</time>
      </trkpt>
      <trkpt lat="48.88523" lon="2.01542">
        <ele>174</ele>
        <time>2013-01-13T10:09:17Z</time>
      </trkpt>
      <trkpt lat="48.88529" lon="2.01546">
        <ele>174</ele>
        <time>2013-01-13T10:09:20Z</time>
      </trkpt>
      <trkpt lat="48.88533" lon="2.01549">
        <ele>174</ele>
        <time>2013-01-13T10:09:22Z</time>
      </trkpt>
      <trkpt lat="48.8854" lon="2.01549">
        <ele>174</ele>
        <time>2013-01-13T10:09:27Z</time>
      </trkpt>
      <trkpt lat="48.8854" lon="2.01556">
        <ele>174</ele>
        <time>2013-01-13T10:09:38Z</time>
      </trkpt>
      <trkpt lat="48.88541" lon="2.01563">
        <ele>174</ele>
        <time>2013-01-13T10:09:42Z</time>
      </trkpt>
      <trkpt lat="48.88547" lon="2.01568">
        <ele>174</ele>
        <time>2013-01-13T10:09:47Z</time>
      </trkpt>
      <trkpt lat="48.8855" lon="2.01574">
        <ele>174</ele>
        <time>2013-01-13T10:09:53Z</time>
      </trkpt>
      <trkpt lat="48.88552" lon="2.01581">
        <ele>174</ele>
        <time>2013-01-13T10:09:58Z</time>
      </trkpt>
      <trkpt lat="48.88554" lon="2.01588">
        <ele>174</ele>
        <time>2013-01-13T10:10:02Z</time>
      </trkpt>
      <trkpt lat="48.8856" lon="2.01602">
        <ele>174</ele>
        <time>2013-01-13T10:10:12Z</time>
      </trkpt>
      <trkpt lat="48.88564" lon="2.01608">
        <ele>174</ele>
        <time>2013-01-13T10:10:15Z</time>
      </trkpt>
      <trkpt lat="48.88567" lon="2.01613">
        <ele>174</ele>
        <time>2013-01-13T10:10:18Z</time>
      </trkpt>
      <trkpt lat="48.88572" lon="2.01621">
        <ele>173</ele>
        <time>2013-01-13T10:10:22Z</time>
      </trkpt>
      <trkpt lat="48.8858" lon="2.01637">
        <ele>173</ele>
        <time>2013-01-13T10:10:32Z</time>
      </trkpt>
      <trkpt lat="48.88584" lon="2.01642">
        <ele>171</ele>
        <time>2013-01-13T10:10:37Z</time>
      </trkpt>
      <trkpt lat="48.88589" lon="2.01651">
        <ele>171</ele>
        <time>2013-01-13T10:10:42Z</time>
      </trkpt>
      <trkpt lat="48.88593" lon="2.01659">
        <ele>171</ele>
        <time>2013-01-13T10:10:47Z</time>
      </trkpt>
      <trkpt lat="48.88597" lon="2.01664">
        <ele>171</ele>
        <time>2013-01-13T10:10:50Z</time>
      </trkpt>
      <trkpt lat="48.886" lon="2.0167">
        <ele>170</ele>
        <time>2013-01-13T10:10:52Z</time>
      </trkpt>
      <trkpt lat="48.88604" lon="2.01676">
        <ele>169</ele>
        <time>2013-01-13T10:10:54Z</time>
      </trkpt>
      <trkpt lat="48.88608" lon="2.01677">
        <ele>169</ele>
        <time>2013-01-13T10:10:58Z</time>
      </trkpt>
      <trkpt lat="48.88613" lon="2.0168">
        <ele>168</ele>
        <time>2013-01-13T10:11:03Z</time>
      </trkpt>
      <trkpt lat="48.88616" lon="2.01689">
        <ele>168</ele>
        <time>2013-01-13T10:11:07Z</time>
      </trkpt>
      <trkpt lat="48.88618" lon="2.01696">
        <ele>168</ele>
        <time>2013-01-13T10:11:10Z</time>
      </trkpt>
      <trkpt lat="48.8862" lon="2.01704">
        <ele>168</ele>
        <time>2013-01-13T10:11:15Z</time>
      </trkpt>
      <trkpt lat="48.88621" lon="2.01712">
        <ele>167</ele>
        <time>2013-01-13T10:11:18Z</time>
      </trkpt>
      <trkpt lat="48.88622" lon="2.01724">
        <ele>167</ele>
        <time>2013-01-13T10:11:22Z</time>
      </trkpt>
      <trkpt lat="48.88624" lon="2.01732">
        <ele>167</ele>
        <time>2013-01-13T10:11:27Z</time>
      </trkpt>
      <trkpt lat="48.88627" lon="2.01742">
        <ele>166</ele>
        <time>2013-01-13T10:11:32Z</time>
      </trkpt>
      <trkpt lat="48.8863" lon="2.01748">
        <ele>166</ele>
        <time>2013-01-13T10:11:35Z</time>
      </trkpt>
      <trkpt lat="48.88632" lon="2.01756">
        <ele>163</ele>
        <time>2013-01-13T10:11:39Z</time>
      </trkpt>
      <trkpt lat="48.88634" lon="2.01764">
        <ele>162</ele>
        <time>2013-01-13T10:11:43Z</time>
      </trkpt>
      <trkpt lat="48.88639" lon="2.01769">
        <ele>162</ele>
        <time>2013-01-13T10:11:49Z</time>
      </trkpt>
      <trkpt lat="48.88643" lon="2.01776">
        <ele>162</ele>
        <time>2013-01-13T10:11:53Z</time>
      </trkpt>
      <trkpt lat="48.88646" lon="2.01781">
        <ele>162</ele>
        <time>2013-01-13T10:11:58Z</time>
      </trkpt>
      <trkpt lat="48.88651" lon="2.01784">
        <ele>161</ele>
        <time>2013-01-13T10:12:02Z</time>
      </trkpt>
      <trkpt lat="48.88655" lon="2.01787">
        <ele>161</ele>
        <time>2013-01-13T10:12:07Z</time>
      </trkpt>
      <trkpt lat="48.8866" lon="2.01793">
        <ele>161</ele>
        <time>2013-01-13T10:12:13Z</time>
      </trkpt>
      <trkpt lat="48.88665" lon="2.01797">
        <ele>160</ele>
        <time>2013-01-13T10:12:17Z</time>
      </trkpt>
      <trkpt lat="48.8867" lon="2.01801">
        <ele>157</ele>
        <time>2013-01-13T10:12:20Z</time>
      </trkpt>
      <trkpt lat="48.88675" lon="2.01804">
        <ele>157</ele>
        <time>2013-01-13T10:12:25Z</time>
      </trkpt>
      <trkpt lat="48.8868" lon="2.01807">
        <ele>157</ele>
        <time>2013-01-13T10:12:30Z</time>
      </trkpt>
      <trkpt lat="48.88685" lon="2.0181">
        <ele>156</ele>
        <time>2013-01-13T10:12:34Z</time>
      </trkpt>
      <trkpt lat="48.88689" lon="2.01813">
        <ele>156</ele>
        <time>2013-01-13T10:12:37Z</time>
      </trkpt>
      <trkpt lat="48.88692" lon="2.01819">
        <ele>156</ele>
        <time>2013-01-13T10:12:40Z</time>
      </trkpt>
      <trkpt lat="48.88696" lon="2.01824">
        <ele>156</ele>
        <time>2013-01-13T10:12:45Z</time>
      </trkpt>
      <trkpt lat="48.887" lon="2.01828">
        <ele>156</ele>
        <time>2013-01-13T10:12:49Z</time>
      </trkpt>
      <trkpt lat="48.88705" lon="2.01829">
        <ele>156</ele>
        <time>2013-01-13T10:12:54Z</time>
      </trkpt>
      <trkpt lat="48.88711" lon="2.01832">
        <ele>155</ele>
        <time>2013-01-13T10:12:59Z</time>
      </trkpt>
      <trkpt lat="48.88715" lon="2.01836">
        <ele>152</ele>
        <time>2013-01-13T10:13:02Z</time>
      </trkpt>
      <trkpt lat="48.88719" lon="2.01841">
        <ele>152</ele>
        <time>2013-01-13T10:13:05Z</time>
      </trkpt>
      <trkpt lat="48.88726" lon="2.01849">
        <ele>152</ele>
        <time>2013-01-13T10:13:12Z</time>
      </trkpt>
      <trkpt lat="48.88731" lon="2.01853">
        <ele>151</ele>
        <time>2013-01-13T10:13:17Z</time>
      </trkpt>
      <trkpt lat="48.88736" lon="2.01859">
        <ele>151</ele>
        <time>2013-01-13T10:13:20Z</time>
      </trkpt>
      <trkpt lat="48.88742" lon="2.01861">
        <ele>151</ele>
        <time>2013-01-13T10:13:27Z</time>
      </trkpt>
      <trkpt lat="48.88745" lon="2.01865">
        <ele>151</ele>
        <time>2013-01-13T10:13:30Z</time>
      </trkpt>
      <trkpt lat="48.8875" lon="2.01868">
        <ele>149</ele>
        <time>2013-01-13T10:13:34Z</time>
      </trkpt>
      <trkpt lat="48.88755" lon="2.01872">
        <ele>149</ele>
        <time>2013-01-13T10:13:38Z</time>
      </trkpt>
      <trkpt lat="48.88759" lon="2.01877">
        <ele>148</ele>
        <time>2013-01-13T10:13:40Z</time>
      </trkpt>
      <trkpt lat="48.88764" lon="2.01883">
        <ele>148</ele>
        <time>2013-01-13T10:13:42Z</time>
      </trkpt>
      <trkpt lat="48.8877" lon="2.01888">
        <ele>148</ele>
        <time>2013-01-13T10:13:47Z</time>
      </trkpt>
      <trkpt lat="48.88774" lon="2.01894">
        <ele>148</ele>
        <time>2013-01-13T10:13:50Z</time>
      </trkpt>
      <trkpt lat="48.88779" lon="2.019">
        <ele>148</ele>
        <time>2013-01-13T10:13:57Z</time>
      </trkpt>
      <trkpt lat="48.88784" lon="2.01905">
        <ele>148</ele>
        <time>2013-01-13T10:14:02Z</time>
      </trkpt>
      <trkpt lat="48.88787" lon="2.01911">
        <ele>148</ele>
        <time>2013-01-13T10:14:07Z</time>
      </trkpt>
      <trkpt lat="48.88791" lon="2.01918">
        <ele>145</ele>
        <time>2013-01-13T10:14:12Z</time>
      </trkpt>
      <trkpt lat="48.88794" lon="2.01925">
        <ele>145</ele>
        <time>2013-01-13T10:14:15Z</time>
      </trkpt>
      <trkpt lat="48.88799" lon="2.01933">
        <ele>145</ele>
        <time>2013-01-13T10:14:18Z</time>
      </trkpt>
      <trkpt lat="48.88801" lon="2.0194">
        <ele>145</ele>
        <time>2013-01-13T10:14:24Z</time>
      </trkpt>
      <trkpt lat="48.88803" lon="2.01948">
        <ele>145</ele>
        <time>2013-01-13T10:14:27Z</time>
      </trkpt>
      <trkpt lat="48.88806" lon="2.01955">
        <ele>144</ele>
        <time>2013-01-13T10:14:30Z</time>
      </trkpt>
      <trkpt lat="48.88809" lon="2.0196">
        <ele>144</ele>
        <time>2013-01-13T10:14:35Z</time>
      </trkpt>
      <trkpt lat="48.88813" lon="2.01967">
        <ele>144</ele>
        <time>2013-01-13T10:14:39Z</time>
      </trkpt>
      <trkpt lat="48.88816" lon="2.01974">
        <ele>143</ele>
        <time>2013-01-13T10:14:43Z</time>
      </trkpt>
      <trkpt lat="48.88818" lon="2.01982">
        <ele>143</ele>
        <time>2013-01-13T10:14:47Z</time>
      </trkpt>
      <trkpt lat="48.88821" lon="2.01988">
        <ele>142</ele>
        <time>2013-01-13T10:14:52Z</time>
      </trkpt>
      <trkpt lat="48.88826" lon="2.01997">
        <ele>141</ele>
        <time>2013-01-13T10:14:57Z</time>
      </trkpt>
      <trkpt lat="48.88829" lon="2.02005">
        <ele>140</ele>
        <time>2013-01-13T10:15:02Z</time>
      </trkpt>
      <trkpt lat="48.8883" lon="2.02016">
        <ele>140</ele>
        <time>2013-01-13T10:15:07Z</time>
      </trkpt>
      <trkpt lat="48.88833" lon="2.02027">
        <ele>140</ele>
        <time>2013-01-13T10:15:12Z</time>
      </trkpt>
      <trkpt lat="48.88839" lon="2.02032">
        <ele>137</ele>
        <time>2013-01-13T10:15:17Z</time>
      </trkpt>
      <trkpt lat="48.88844" lon="2.02036">
        <ele>136</ele>
        <time>2013-01-13T10:15:20Z</time>
      </trkpt>
      <trkpt lat="48.88849" lon="2.02038">
        <ele>136</ele>
        <time>2013-01-13T10:15:25Z</time>
      </trkpt>
      <trkpt lat="48.88854" lon="2.02043">
        <ele>136</ele>
        <time>2013-01-13T10:15:29Z</time>
      </trkpt>
      <trkpt lat="48.88864" lon="2.02052">
        <ele>136</ele>
        <time>2013-01-13T10:15:37Z</time>
      </trkpt>
      <trkpt lat="48.88868" lon="2.02059">
        <ele>135</ele>
        <time>2013-01-13T10:15:40Z</time>
      </trkpt>
      <trkpt lat="48.88872" lon="2.02063">
        <ele>135</ele>
        <time>2013-01-13T10:15:45Z</time>
      </trkpt>
      <trkpt lat="48.88878" lon="2.02066">
        <ele>135</ele>
        <time>2013-01-13T10:15:50Z</time>
      </trkpt>
      <trkpt lat="48.88883" lon="2.02069">
        <ele>135</ele>
        <time>2013-01-13T10:15:54Z</time>
      </trkpt>
      <trkpt lat="48.88888" lon="2.02071">
        <ele>134</ele>
        <time>2013-01-13T10:15:59Z</time>
      </trkpt>
      <trkpt lat="48.88892" lon="2.02077">
        <ele>134</ele>
        <time>2013-01-13T10:16:03Z</time>
      </trkpt>
      <trkpt lat="48.88897" lon="2.02081">
        <ele>133</ele>
        <time>2013-01-13T10:16:08Z</time>
      </trkpt>
      <trkpt lat="48.88902" lon="2.02085">
        <ele>131</ele>
        <time>2013-01-13T10:16:12Z</time>
      </trkpt>
      <trkpt lat="48.88908" lon="2.02092">
        <ele>131</ele>
        <time>2013-01-13T10:16:17Z</time>
      </trkpt>
      <trkpt lat="48.88918" lon="2.021">
        <ele>129</ele>
        <time>2013-01-13T10:16:27Z</time>
      </trkpt>
      <trkpt lat="48.88923" lon="2.02105">
        <ele>128</ele>
        <time>2013-01-13T10:16:32Z</time>
      </trkpt>
      <trkpt lat="48.88929" lon="2.02109">
        <ele>128</ele>
        <time>2013-01-13T10:16:37Z</time>
      </trkpt>
      <trkpt lat="48.88934" lon="2.02113">
        <ele>128</ele>
        <time>2013-01-13T10:16:40Z</time>
      </trkpt>
      <trkpt lat="48.88939" lon="2.02115">
        <ele>128</ele>
        <time>2013-01-13T10:16:45Z</time>
      </trkpt>
      <trkpt lat="48.88943" lon="2.02117">
        <ele>127</ele>
        <time>2013-01-13T10:16:48Z</time>
      </trkpt>
      <trkpt lat="48.88949" lon="2.02122">
        <ele>127</ele>
        <time>2013-01-13T10:16:53Z</time>
      </trkpt>
      <trkpt lat="48.88955" lon="2.02129">
        <ele>127</ele>
        <time>2013-01-13T10:16:57Z</time>
      </trkpt>
      <trkpt lat="48.8896" lon="2.02132">
        <ele>127</ele>
        <time>2013-01-13T10:17:03Z</time>
      </trkpt>
      <trkpt lat="48.88964" lon="2.02137">
        <ele>127</ele>
        <time>2013-01-13T10:17:07Z</time>
      </trkpt>
      <trkpt lat="48.8897" lon="2.02136">
        <ele>127</ele>
        <time>2013-01-13T10:17:12Z</time>
      </trkpt>
      <trkpt lat="48.88978" lon="2.02139">
        <ele>126</ele>
        <time>2013-01-13T10:17:17Z</time>
      </trkpt>
      <trkpt lat="48.88982" lon="2.02142">
        <ele>126</ele>
        <time>2013-01-13T10:17:19Z</time>
      </trkpt>
      <trkpt lat="48.88987" lon="2.02144">
        <ele>126</ele>
        <time>2013-01-13T10:17:22Z</time>
      </trkpt>
      <trkpt lat="48.88992" lon="2.02148">
        <ele>126</ele>
        <time>2013-01-13T10:17:28Z</time>
      </trkpt>
      <trkpt lat="48.88998" lon="2.02154">
        <ele>125</ele>
        <time>2013-01-13T10:17:32Z</time>
      </trkpt>
      <trkpt lat="48.89003" lon="2.02156">
        <ele>124</ele>
        <time>2013-01-13T10:17:35Z</time>
      </trkpt>
      <trkpt lat="48.89007" lon="2.02159">
        <ele>124</ele>
        <time>2013-01-13T10:17:40Z</time>
      </trkpt>
      <trkpt lat="48.89012" lon="2.02163">
        <ele>124</ele>
        <time>2013-01-13T10:17:44Z</time>
      </trkpt>
      <trkpt lat="48.89018" lon="2.02167">
        <ele>121</ele>
        <time>2013-01-13T10:17:47Z</time>
      </trkpt>
      <trkpt lat="48.89023" lon="2.02167">
        <ele>121</ele>
        <time>2013-01-13T10:17:50Z</time>
      </trkpt>
      <trkpt lat="48.89034" lon="2.02169">
        <ele>120</ele>
        <time>2013-01-13T10:17:58Z</time>
      </trkpt>
      <trkpt lat="48.89038" lon="2.02171">
        <ele>120</ele>
        <time>2013-01-13T10:18:00Z</time>
      </trkpt>
      <trkpt lat="48.89044" lon="2.02174">
        <ele>119</ele>
        <time>2013-01-13T10:18:04Z</time>
      </trkpt>
      <trkpt lat="48.89048" lon="2.02174">
        <ele>119</ele>
        <time>2013-01-13T10:18:07Z</time>
      </trkpt>
      <trkpt lat="48.89053" lon="2.02174">
        <ele>119</ele>
        <time>2013-01-13T10:18:12Z</time>
      </trkpt>
      <trkpt lat="48.89058" lon="2.02175">
        <ele>119</ele>
        <time>2013-01-13T10:18:15Z</time>
      </trkpt>
      <trkpt lat="48.89065" lon="2.02175">
        <ele>119</ele>
        <time>2013-01-13T10:18:18Z</time>
      </trkpt>
      <trkpt lat="48.8907" lon="2.0217">
        <ele>119</ele>
        <time>2013-01-13T10:18:22Z</time>
      </trkpt>
      <trkpt lat="48.89076" lon="2.02168">
        <ele>119</ele>
        <time>2013-01-13T10:18:27Z</time>
      </trkpt>
      <trkpt lat="48.8908" lon="2.02166">
        <ele>120</ele>
        <time>2013-01-13T10:18:30Z</time>
      </trkpt>
      <trkpt lat="48.89085" lon="2.02165">
        <ele>119</ele>
        <time>2013-01-13T10:18:33Z</time>
      </trkpt>
      <trkpt lat="48.89095" lon="2.02165">
        <ele>118</ele>
        <time>2013-01-13T10:18:38Z</time>
      </trkpt>
      <trkpt lat="48.891" lon="2.02165">
        <ele>118</ele>
        <time>2013-01-13T10:18:43Z</time>
      </trkpt>
      <trkpt lat="48.89106" lon="2.02165">
        <ele>118</ele>
        <time>2013-01-13T10:18:47Z</time>
      </trkpt>
      <trkpt lat="48.89113" lon="2.02165">
        <ele>117</ele>
        <time>2013-01-13T10:18:50Z</time>
      </trkpt>
      <trkpt lat="48.89118" lon="2.02165">
        <ele>117</ele>
        <time>2013-01-13T10:18:52Z</time>
      </trkpt>
      <trkpt lat="48.89122" lon="2.02167">
        <ele>115</ele>
        <time>2013-01-13T10:18:54Z</time>
      </trkpt>
      <trkpt lat="48.89127" lon="2.02165">
        <ele>117</ele>
        <time>2013-01-13T10:18:59Z</time>
      </trkpt>
      <trkpt lat="48.89132" lon="2.02165">
        <ele>116</ele>
        <time>2013-01-13T10:19:04Z</time>
      </trkpt>
      <trkpt lat="48.89138" lon="2.02165">
        <ele>116</ele>
        <time>2013-01-13T10:19:07Z</time>
      </trkpt>
      <trkpt lat="48.89142" lon="2.02162">
        <ele>116</ele>
        <time>2013-01-13T10:19:10Z</time>
      </trkpt>
      <trkpt lat="48.89148" lon="2.02163">
        <ele>116</ele>
        <time>2013-01-13T10:19:14Z</time>
      </trkpt>
      <trkpt lat="48.89153" lon="2.02163">
        <ele>115</ele>
        <time>2013-01-13T10:19:17Z</time>
      </trkpt>
      <trkpt lat="48.8916" lon="2.02163">
        <ele>115</ele>
        <time>2013-01-13T10:19:22Z</time>
      </trkpt>
      <trkpt lat="48.89165" lon="2.02161">
        <ele>115</ele>
        <time>2013-01-13T10:19:27Z</time>
      </trkpt>
      <trkpt lat="48.89173" lon="2.02159">
        <ele>114</ele>
        <time>2013-01-13T10:19:32Z</time>
      </trkpt>
      <trkpt lat="48.89178" lon="2.0216">
        <ele>114</ele>
        <time>2013-01-13T10:19:35Z</time>
      </trkpt>
      <trkpt lat="48.89183" lon="2.0216">
        <ele>114</ele>
        <time>2013-01-13T10:19:40Z</time>
      </trkpt>
      <trkpt lat="48.89188" lon="2.02159">
        <ele>114</ele>
        <time>2013-01-13T10:19:44Z</time>
      </trkpt>
      <trkpt lat="48.89194" lon="2.02159">
        <ele>114</ele>
        <time>2013-01-13T10:19:47Z</time>
      </trkpt>
      <trkpt lat="48.89199" lon="2.0216">
        <ele>114</ele>
        <time>2013-01-13T10:19:50Z</time>
      </trkpt>
      <trkpt lat="48.89204" lon="2.02158">
        <ele>114</ele>
        <time>2013-01-13T10:19:54Z</time>
      </trkpt>
      <trkpt lat="48.89211" lon="2.0216">
        <ele>115</ele>
        <time>2013-01-13T10:19:57Z</time>
      </trkpt>
      <trkpt lat="48.89216" lon="2.0216">
        <ele>115</ele>
        <time>2013-01-13T10:20:00Z</time>
      </trkpt>
      <trkpt lat="48.89221" lon="2.02158">
        <ele>115</ele>
        <time>2013-01-13T10:20:03Z</time>
      </trkpt>
      <trkpt lat="48.89226" lon="2.02159">
        <ele>115</ele>
        <time>2013-01-13T10:20:07Z</time>
      </trkpt>
      <trkpt lat="48.89231" lon="2.02159">
        <ele>115</ele>
        <time>2013-01-13T10:20:10Z</time>
      </trkpt>
      <trkpt lat="48.89237" lon="2.02161">
        <ele>115</ele>
        <time>2013-01-13T10:20:12Z</time>
      </trkpt>
      <trkpt lat="48.89242" lon="2.02161">
        <ele>115</ele>
        <time>2013-01-13T10:20:15Z</time>
      </trkpt>
      <trkpt lat="48.8925" lon="2.02167">
        <ele>115</ele>
        <time>2013-01-13T10:20:22Z</time>
      </trkpt>
      <trkpt lat="48.89255" lon="2.0217">
        <ele>117</ele>
        <time>2013-01-13T10:20:25Z</time>
      </trkpt>
      <trkpt lat="48.8926" lon="2.02171">
        <ele>118</ele>
        <time>2013-01-13T10:20:29Z</time>
      </trkpt>
      <trkpt lat="48.89265" lon="2.02171">
        <ele>119</ele>
        <time>2013-01-13T10:20:42Z</time>
      </trkpt>
      <trkpt lat="48.8927" lon="2.02174">
        <ele>120</ele>
        <time>2013-01-13T10:20:45Z</time>
      </trkpt>
      <trkpt lat="48.89274" lon="2.02179">
        <ele>121</ele>
        <time>2013-01-13T10:20:48Z</time>
      </trkpt>
      <trkpt lat="48.89283" lon="2.02189">
        <ele>122</ele>
        <time>2013-01-13T10:20:53Z</time>
      </trkpt>
      <trkpt lat="48.89289" lon="2.02199">
        <ele>123</ele>
        <time>2013-01-13T10:20:57Z</time>
      </trkpt>
      <trkpt lat="48.89294" lon="2.02204">
        <ele>123</ele>
        <time>2013-01-13T10:21:02Z</time>
      </trkpt>
      <trkpt lat="48.89297" lon="2.02208">
        <ele>124</ele>
        <time>2013-01-13T10:21:07Z</time>
      </trkpt>
      <trkpt lat="48.89307" lon="2.0222">
        <ele>124</ele>
        <time>2013-01-13T10:21:12Z</time>
      </trkpt>
      <trkpt lat="48.89312" lon="2.02224">
        <ele>125</ele>
        <time>2013-01-13T10:21:14Z</time>
      </trkpt>
      <trkpt lat="48.89315" lon="2.02229">
        <ele>125</ele>
        <time>2013-01-13T10:21:19Z</time>
      </trkpt>
      <trkpt lat="48.8932" lon="2.02234">
        <ele>126</ele>
        <time>2013-01-13T10:21:24Z</time>
      </trkpt>
      <trkpt lat="48.89323" lon="2.02242">
        <ele>127</ele>
        <time>2013-01-13T10:21:27Z</time>
      </trkpt>
      <trkpt lat="48.89328" lon="2.02248">
        <ele>128</ele>
        <time>2013-01-13T10:21:30Z</time>
      </trkpt>
      <trkpt lat="48.89333" lon="2.02256">
        <ele>131</ele>
        <time>2013-01-13T10:21:37Z</time>
      </trkpt>
      <trkpt lat="48.89336" lon="2.02262">
        <ele>132</ele>
        <time>2013-01-13T10:21:40Z</time>
      </trkpt>
      <trkpt lat="48.89338" lon="2.02268">
        <ele>133</ele>
        <time>2013-01-13T10:21:45Z</time>
      </trkpt>
      <trkpt lat="48.89342" lon="2.02276">
        <ele>133</ele>
        <time>2013-01-13T10:21:48Z</time>
      </trkpt>
      <trkpt lat="48.89345" lon="2.02283">
        <ele>134</ele>
        <time>2013-01-13T10:21:52Z</time>
      </trkpt>
      <trkpt lat="48.89349" lon="2.0229">
        <ele>134</ele>
        <time>2013-01-13T10:21:57Z</time>
      </trkpt>
      <trkpt lat="48.89351" lon="2.02296">
        <ele>134</ele>
        <time>2013-01-13T10:22:00Z</time>
      </trkpt>
      <trkpt lat="48.89353" lon="2.02304">
        <ele>134</ele>
        <time>2013-01-13T10:22:03Z</time>
      </trkpt>
      <trkpt lat="48.89356" lon="2.0231">
        <ele>133</ele>
        <time>2013-01-13T10:22:08Z</time>
      </trkpt>
      <trkpt lat="48.89359" lon="2.02321">
        <ele>133</ele>
        <time>2013-01-13T10:22:12Z</time>
      </trkpt>
      <trkpt lat="48.89362" lon="2.02328">
        <ele>134</ele>
        <time>2013-01-13T10:22:17Z</time>
      </trkpt>
      <trkpt lat="48.89364" lon="2.02335">
        <ele>132</ele>
        <time>2013-01-13T10:22:20Z</time>
      </trkpt>
      <trkpt lat="48.89366" lon="2.02343">
        <ele>133</ele>
        <time>2013-01-13T10:22:23Z</time>
      </trkpt>
      <trkpt lat="48.89368" lon="2.0235">
        <ele>133</ele>
        <time>2013-01-13T10:22:28Z</time>
      </trkpt>
      <trkpt lat="48.89371" lon="2.0236">
        <ele>134</ele>
        <time>2013-01-13T10:22:32Z</time>
      </trkpt>
      <trkpt lat="48.89373" lon="2.02366">
        <ele>134</ele>
        <time>2013-01-13T10:22:35Z</time>
      </trkpt>
      <trkpt lat="48.89377" lon="2.02375">
        <ele>134</ele>
        <time>2013-01-13T10:22:42Z</time>
      </trkpt>
      <trkpt lat="48.89381" lon="2.02382">
        <ele>135</ele>
        <time>2013-01-13T10:22:45Z</time>
      </trkpt>
      <trkpt lat="48.89383" lon="2.02389">
        <ele>135</ele>
        <time>2013-01-13T10:22:48Z</time>
      </trkpt>
      <trkpt lat="48.89386" lon="2.02396">
        <ele>135</ele>
        <time>2013-01-13T10:22:53Z</time>
      </trkpt>
      <trkpt lat="48.89391" lon="2.02407">
        <ele>136</ele>
        <time>2013-01-13T10:22:57Z</time>
      </trkpt>
      <trkpt lat="48.89393" lon="2.02413">
        <ele>137</ele>
        <time>2013-01-13T10:23:00Z</time>
      </trkpt>
      <trkpt lat="48.89396" lon="2.02424">
        <ele>136</ele>
        <time>2013-01-13T10:23:07Z</time>
      </trkpt>
      <trkpt lat="48.89397" lon="2.0243">
        <ele>135</ele>
        <time>2013-01-13T10:23:10Z</time>
      </trkpt>
      <trkpt lat="48.894" lon="2.02437">
        <ele>135</ele>
        <time>2013-01-13T10:23:15Z</time>
      </trkpt>
      <trkpt lat="48.89402" lon="2.02445">
        <ele>135</ele>
        <time>2013-01-13T10:23:18Z</time>
      </trkpt>
      <trkpt lat="48.89405" lon="2.02455">
        <ele>134</ele>
        <time>2013-01-13T10:23:22Z</time>
      </trkpt>
      <trkpt lat="48.89407" lon="2.02463">
        <ele>134</ele>
        <time>2013-01-13T10:23:27Z</time>
      </trkpt>
      <trkpt lat="48.89409" lon="2.02472">
        <ele>134</ele>
        <time>2013-01-13T10:23:30Z</time>
      </trkpt>
      <trkpt lat="48.89411" lon="2.02478">
        <ele>134</ele>
        <time>2013-01-13T10:23:33Z</time>
      </trkpt>
      <trkpt lat="48.8941" lon="2.02488">
        <ele>135</ele>
        <time>2013-01-13T10:23:37Z</time>
      </trkpt>
      <trkpt lat="48.89408" lon="2.02495">
        <ele>135</ele>
        <time>2013-01-13T10:23:42Z</time>
      </trkpt>
      <trkpt lat="48.89397" lon="2.02496">
        <ele>133</ele>
        <time>2013-01-13T10:23:49Z</time>
      </trkpt>
      <trkpt lat="48.89392" lon="2.02496">
        <ele>133</ele>
        <time>2013-01-13T10:23:52Z</time>
      </trkpt>
      <trkpt lat="48.89384" lon="2.02498">
        <ele>132</ele>
        <time>2013-01-13T10:23:57Z</time>
      </trkpt>
      <trkpt lat="48.8938" lon="2.02501">
        <ele>131</ele>
        <time>2013-01-13T10:24:00Z</time>
      </trkpt>
      <trkpt lat="48.89374" lon="2.02502">
        <ele>130</ele>
        <time>2013-01-13T10:24:05Z</time>
      </trkpt>
      <trkpt lat="48.89369" lon="2.02504">
        <ele>129</ele>
        <time>2013-01-13T10:24:10Z</time>
      </trkpt>
      <trkpt lat="48.89365" lon="2.02505">
        <ele>128</ele>
        <time>2013-01-13T10:24:14Z</time>
      </trkpt>
      <trkpt lat="48.8936" lon="2.02506">
        <ele>128</ele>
        <time>2013-01-13T10:24:20Z</time>
      </trkpt>
      <trkpt lat="48.89355" lon="2.02507">
        <ele>127</ele>
        <time>2013-01-13T10:24:23Z</time>
      </trkpt>
      <trkpt lat="48.89349" lon="2.02508">
        <ele>126</ele>
        <time>2013-01-13T10:24:27Z</time>
      </trkpt>
      <trkpt lat="48.89342" lon="2.02508">
        <ele>125</ele>
        <time>2013-01-13T10:24:32Z</time>
      </trkpt>
      <trkpt lat="48.89337" lon="2.02508">
        <ele>124</ele>
        <time>2013-01-13T10:24:35Z</time>
      </trkpt>
      <trkpt lat="48.89332" lon="2.02508">
        <ele>120</ele>
        <time>2013-01-13T10:24:40Z</time>
      </trkpt>
      <trkpt lat="48.89327" lon="2.02511">
        <ele>120</ele>
        <time>2013-01-13T10:24:44Z</time>
      </trkpt>
      <trkpt lat="48.89321" lon="2.02512">
        <ele>119</ele>
        <time>2013-01-13T10:24:48Z</time>
      </trkpt>
      <trkpt lat="48.89315" lon="2.02514">
        <ele>119</ele>
        <time>2013-01-13T10:24:52Z</time>
      </trkpt>
      <trkpt lat="48.89308" lon="2.02518">
        <ele>118</ele>
        <time>2013-01-13T10:24:57Z</time>
      </trkpt>
      <trkpt lat="48.89302" lon="2.02518">
        <ele>118</ele>
        <time>2013-01-13T10:25:02Z</time>
      </trkpt>
      <trkpt lat="48.89296" lon="2.0252">
        <ele>117</ele>
        <time>2013-01-13T10:25:07Z</time>
      </trkpt>
      <trkpt lat="48.8929" lon="2.02521">
        <ele>117</ele>
        <time>2013-01-13T10:25:12Z</time>
      </trkpt>
      <trkpt lat="48.89285" lon="2.02522">
        <ele>117</ele>
        <time>2013-01-13T10:25:17Z</time>
      </trkpt>
      <trkpt lat="48.8928" lon="2.02524">
        <ele>116</ele>
        <time>2013-01-13T10:25:22Z</time>
      </trkpt>
      <trkpt lat="48.89272" lon="2.02526">
        <ele>116</ele>
        <time>2013-01-13T10:25:27Z</time>
      </trkpt>
      <trkpt lat="48.89266" lon="2.02526">
        <ele>115</ele>
        <time>2013-01-13T10:25:30Z</time>
      </trkpt>
      <trkpt lat="48.89259" lon="2.02529">
        <ele>115</ele>
        <time>2013-01-13T10:25:37Z</time>
      </trkpt>
      <trkpt lat="48.89255" lon="2.02531">
        <ele>115</ele>
        <time>2013-01-13T10:25:40Z</time>
      </trkpt>
      <trkpt lat="48.89251" lon="2.02537">
        <ele>115</ele>
        <time>2013-01-13T10:25:44Z</time>
      </trkpt>
      <trkpt lat="48.89252" lon="2.02544">
        <ele>115</ele>
        <time>2013-01-13T10:26:15Z</time>
      </trkpt>
      <trkpt lat="48.89253" lon="2.02552">
        <ele>116</ele>
        <time>2013-01-13T10:26:22Z</time>
      </trkpt>
      <trkpt lat="48.89257" lon="2.02557">
        <ele>116</ele>
        <time>2013-01-13T10:26:28Z</time>
      </trkpt>
      <trkpt lat="48.89259" lon="2.02564">
        <ele>115</ele>
        <time>2013-01-13T10:26:33Z</time>
      </trkpt>
      <trkpt lat="48.89261" lon="2.0257">
        <ele>115</ele>
        <time>2013-01-13T10:26:37Z</time>
      </trkpt>
      <trkpt lat="48.89265" lon="2.02576">
        <ele>115</ele>
        <time>2013-01-13T10:26:40Z</time>
      </trkpt>
      <trkpt lat="48.89267" lon="2.0259">
        <ele>115</ele>
        <time>2013-01-13T10:26:49Z</time>
      </trkpt>
      <trkpt lat="48.89268" lon="2.02597">
        <ele>115</ele>
        <time>2013-01-13T10:26:55Z</time>
      </trkpt>
      <trkpt lat="48.8927" lon="2.02604">
        <ele>116</ele>
        <time>2013-01-13T10:27:00Z</time>
      </trkpt>
      <trkpt lat="48.89273" lon="2.02612">
        <ele>116</ele>
        <time>2013-01-13T10:27:17Z</time>
      </trkpt>
      <trkpt lat="48.89276" lon="2.02625">
        <ele>116</ele>
        <time>2013-01-13T10:27:29Z</time>
      </trkpt>
      <trkpt lat="48.89281" lon="2.02639">
        <ele>115</ele>
        <time>2013-01-13T10:27:38Z</time>
      </trkpt>
      <trkpt lat="48.89283" lon="2.02647">
        <ele>115</ele>
        <time>2013-01-13T10:27:42Z</time>
      </trkpt>
      <trkpt lat="48.89285" lon="2.02658">
        <ele>115</ele>
        <time>2013-01-13T10:27:47Z</time>
      </trkpt>
      <trkpt lat="48.89288" lon="2.02665">
        <ele>115</ele>
        <time>2013-01-13T10:27:52Z</time>
      </trkpt>
      <trkpt lat="48.8929" lon="2.02671">
        <ele>113</ele>
        <time>2013-01-13T10:27:55Z</time>
      </trkpt>
      <trkpt lat="48.89292" lon="2.02678">
        <ele>113</ele>
        <time>2013-01-13T10:27:58Z</time>
      </trkpt>
      <trkpt lat="48.89293" lon="2.02685">
        <ele>113</ele>
        <time>2013-01-13T10:28:03Z</time>
      </trkpt>
      <trkpt lat="48.89295" lon="2.02693">
        <ele>113</ele>
        <time>2013-01-13T10:28:07Z</time>
      </trkpt>
      <trkpt lat="48.89299" lon="2.02706">
        <ele>113</ele>
        <time>2013-01-13T10:28:17Z</time>
      </trkpt>
      <trkpt lat="48.89301" lon="2.02715">
        <ele>113</ele>
        <time>2013-01-13T10:28:20Z</time>
      </trkpt>
      <trkpt lat="48.89304" lon="2.02722">
        <ele>113</ele>
        <time>2013-01-13T10:28:22Z</time>
      </trkpt>
      <trkpt lat="48.89305" lon="2.02729">
        <ele>113</ele>
        <time>2013-01-13T10:28:27Z</time>
      </trkpt>
      <trkpt lat="48.89307" lon="2.0274">
        <ele>113</ele>
        <time>2013-01-13T10:28:32Z</time>
      </trkpt>
      <trkpt lat="48.89308" lon="2.02747">
        <ele>113</ele>
        <time>2013-01-13T10:28:37Z</time>
      </trkpt>
      <trkpt lat="48.89308" lon="2.02757">
        <ele>112</ele>
        <time>2013-01-13T10:28:42Z</time>
      </trkpt>
      <trkpt lat="48.89307" lon="2.02766">
        <ele>112</ele>
        <time>2013-01-13T10:28:47Z</time>
      </trkpt>
      <trkpt lat="48.89306" lon="2.02774">
        <ele>111</ele>
        <time>2013-01-13T10:28:50Z</time>
      </trkpt>
      <trkpt lat="48.89304" lon="2.02781">
        <ele>111</ele>
        <time>2013-01-13T10:28:55Z</time>
      </trkpt>
      <trkpt lat="48.89299" lon="2.02783">
        <ele>111</ele>
        <time>2013-01-13T10:28:58Z</time>
      </trkpt>
      <trkpt lat="48.89294" lon="2.02786">
        <ele>110</ele>
        <time>2013-01-13T10:29:02Z</time>
      </trkpt>
      <trkpt lat="48.8929" lon="2.0279">
        <ele>110</ele>
        <time>2013-01-13T10:29:07Z</time>
      </trkpt>
      <trkpt lat="48.8928" lon="2.02794">
        <ele>110</ele>
        <time>2013-01-13T10:29:14Z</time>
      </trkpt>
      <trkpt lat="48.89275" lon="2.02797">
        <ele>109</ele>
        <time>2013-01-13T10:29:18Z</time>
      </trkpt>
      <trkpt lat="48.89269" lon="2.02801">
        <ele>109</ele>
        <time>2013-01-13T10:29:22Z</time>
      </trkpt>
      <trkpt lat="48.89261" lon="2.02806">
        <ele>109</ele>
        <time>2013-01-13T10:29:27Z</time>
      </trkpt>
      <trkpt lat="48.89256" lon="2.02811">
        <ele>108</ele>
        <time>2013-01-13T10:29:30Z</time>
      </trkpt>
      <trkpt lat="48.89253" lon="2.02816">
        <ele>108</ele>
        <time>2013-01-13T10:29:33Z</time>
      </trkpt>
      <trkpt lat="48.89255" lon="2.02822">
        <ele>108</ele>
        <time>2013-01-13T10:29:38Z</time>
      </trkpt>
      <trkpt lat="48.89258" lon="2.0283">
        <ele>107</ele>
        <time>2013-01-13T10:29:42Z</time>
      </trkpt>
      <trkpt lat="48.8926" lon="2.0284">
        <ele>107</ele>
        <time>2013-01-13T10:29:47Z</time>
      </trkpt>
      <trkpt lat="48.89262" lon="2.02849">
        <ele>108</ele>
        <time>2013-01-13T10:29:52Z</time>
      </trkpt>
      <trkpt lat="48.89263" lon="2.02856">
        <ele>108</ele>
        <time>2013-01-13T10:29:55Z</time>
      </trkpt>
      <trkpt lat="48.89264" lon="2.02863">
        <ele>108</ele>
        <time>2013-01-13T10:29:59Z</time>
      </trkpt>
      <trkpt lat="48.89267" lon="2.02869">
        <ele>108</ele>
        <time>2013-01-13T10:30:03Z</time>
      </trkpt>
      <trkpt lat="48.8927" lon="2.02876">
        <ele>108</ele>
        <time>2013-01-13T10:30:08Z</time>
      </trkpt>
      <trkpt lat="48.89272" lon="2.02888">
        <ele>108</ele>
        <time>2013-01-13T10:30:12Z</time>
      </trkpt>
      <trkpt lat="48.89272" lon="2.029">
        <ele>108</ele>
        <time>2013-01-13T10:30:17Z</time>
      </trkpt>
      <trkpt lat="48.89274" lon="2.02907">
        <ele>108</ele>
        <time>2013-01-13T10:30:20Z</time>
      </trkpt>
      <trkpt lat="48.89277" lon="2.02914">
        <ele>108</ele>
        <time>2013-01-13T10:30:24Z</time>
      </trkpt>
      <trkpt lat="48.89278" lon="2.02923">
        <ele>106</ele>
        <time>2013-01-13T10:30:29Z</time>
      </trkpt>
      <trkpt lat="48.89279" lon="2.02932">
        <ele>106</ele>
        <time>2013-01-13T10:30:32Z</time>
      </trkpt>
      <trkpt lat="48.89281" lon="2.02939">
        <ele>106</ele>
        <time>2013-01-13T10:30:34Z</time>
      </trkpt>
      <trkpt lat="48.89283" lon="2.02946">
        <ele>106</ele>
        <time>2013-01-13T10:30:37Z</time>
      </trkpt>
      <trkpt lat="48.89285" lon="2.02956">
        <ele>106</ele>
        <time>2013-01-13T10:30:42Z</time>
      </trkpt>
      <trkpt lat="48.89286" lon="2.02965">
        <ele>106</ele>
        <time>2013-01-13T10:30:47Z</time>
      </trkpt>
      <trkpt lat="48.89283" lon="2.02971">
        <ele>105</ele>
        <time>2013-01-13T10:33:52Z</time>
      </trkpt>
      <trkpt lat="48.89285" lon="2.02977">
        <ele>105</ele>
        <time>2013-01-13T10:33:58Z</time>
      </trkpt>
      <trkpt lat="48.89287" lon="2.02984">
        <ele>105</ele>
        <time>2013-01-13T10:34:04Z</time>
      </trkpt>
      <trkpt lat="48.89291" lon="2.02991">
        <ele>105</ele>
        <time>2013-01-13T10:34:08Z</time>
      </trkpt>
      <trkpt lat="48.89293" lon="2.02999">
        <ele>105</ele>
        <time>2013-01-13T10:34:14Z</time>
      </trkpt>
      <trkpt lat="48.89295" lon="2.03005">
        <ele>104</ele>
        <time>2013-01-13T10:34:17Z</time>
      </trkpt>
      <trkpt lat="48.89298" lon="2.03011">
        <ele>104</ele>
        <time>2013-01-13T10:34:20Z</time>
      </trkpt>
      <trkpt lat="48.893" lon="2.03018">
        <ele>104</ele>
        <time>2013-01-13T10:34:25Z</time>
      </trkpt>
      <trkpt lat="48.89301" lon="2.03029">
        <ele>104</ele>
        <time>2013-01-13T10:34:28Z</time>
      </trkpt>
      <trkpt lat="48.89303" lon="2.03035">
        <ele>104</ele>
        <time>2013-01-13T10:34:30Z</time>
      </trkpt>
      <trkpt lat="48.89305" lon="2.03043">
        <ele>104</ele>
        <time>2013-01-13T10:34:33Z</time>
      </trkpt>
      <trkpt lat="48.89307" lon="2.03052">
        <ele>104</ele>
        <time>2013-01-13T10:34:37Z</time>
      </trkpt>
      <trkpt lat="48.89312" lon="2.03056">
        <ele>104</ele>
        <time>2013-01-13T10:34:43Z</time>
      </trkpt>
      <trkpt lat="48.89314" lon="2.03068">
        <ele>104</ele>
        <time>2013-01-13T10:34:47Z</time>
      </trkpt>
      <trkpt lat="48.89316" lon="2.03079">
        <ele>104</ele>
        <time>2013-01-13T10:34:50Z</time>
      </trkpt>
      <trkpt lat="48.89317" lon="2.03086">
        <ele>103</ele>
        <time>2013-01-13T10:34:52Z</time>
      </trkpt>
      <trkpt lat="48.89319" lon="2.03094">
        <ele>103</ele>
        <time>2013-01-13T10:34:55Z</time>
      </trkpt>
      <trkpt lat="48.89323" lon="2.03099">
        <ele>103</ele>
        <time>2013-01-13T10:34:59Z</time>
      </trkpt>
      <trkpt lat="48.89323" lon="2.03106">
        <ele>103</ele>
        <time>2013-01-13T10:35:10Z</time>
      </trkpt>
      <trkpt lat="48.89323" lon="2.03121">
        <ele>102</ele>
        <time>2013-01-13T10:35:20Z</time>
      </trkpt>
      <trkpt lat="48.89324" lon="2.03139">
        <ele>102</ele>
        <time>2013-01-13T10:35:32Z</time>
      </trkpt>
      <trkpt lat="48.89325" lon="2.03146">
        <ele>102</ele>
        <time>2013-01-13T10:35:34Z</time>
      </trkpt>
      <trkpt lat="48.89328" lon="2.03152">
        <ele>102</ele>
        <time>2013-01-13T10:35:37Z</time>
      </trkpt>
      <trkpt lat="48.89328" lon="2.0316">
        <ele>101</ele>
        <time>2013-01-13T10:35:39Z</time>
      </trkpt>
      <trkpt lat="48.89328" lon="2.03177">
        <ele>101</ele>
        <time>2013-01-13T10:35:48Z</time>
      </trkpt>
      <trkpt lat="48.89326" lon="2.03183">
        <ele>101</ele>
        <time>2013-01-13T10:35:50Z</time>
      </trkpt>
      <trkpt lat="48.89326" lon="2.03192">
        <ele>100</ele>
        <time>2013-01-13T10:35:53Z</time>
      </trkpt>
      <trkpt lat="48.8933" lon="2.03196">
        <ele>100</ele>
        <time>2013-01-13T10:35:59Z</time>
      </trkpt>
      <trkpt lat="48.89328" lon="2.03206">
        <ele>100</ele>
        <time>2013-01-13T10:36:04Z</time>
      </trkpt>
      <trkpt lat="48.89328" lon="2.03215">
        <ele>100</ele>
        <time>2013-01-13T10:36:07Z</time>
      </trkpt>
      <trkpt lat="48.89329" lon="2.03223">
        <ele>100</ele>
        <time>2013-01-13T10:36:13Z</time>
      </trkpt>
      <trkpt lat="48.89328" lon="2.03236">
        <ele>100</ele>
        <time>2013-01-13T10:36:17Z</time>
      </trkpt>
      <trkpt lat="48.8933" lon="2.03245">
        <ele>100</ele>
        <time>2013-01-13T10:36:23Z</time>
      </trkpt>
      <trkpt lat="48.89331" lon="2.03252">
        <ele>100</ele>
        <time>2013-01-13T10:36:27Z</time>
      </trkpt>
      <trkpt lat="48.89331" lon="2.03262">
        <ele>99</ele>
        <time>2013-01-13T10:36:32Z</time>
      </trkpt>
      <trkpt lat="48.89333" lon="2.03272">
        <ele>99</ele>
        <time>2013-01-13T10:36:37Z</time>
      </trkpt>
      <trkpt lat="48.89333" lon="2.03282">
        <ele>101</ele>
        <time>2013-01-13T10:36:42Z</time>
      </trkpt>
      <trkpt lat="48.89333" lon="2.0329">
        <ele>101</ele>
        <time>2013-01-13T10:36:47Z</time>
      </trkpt>
      <trkpt lat="48.89333" lon="2.033">
        <ele>101</ele>
        <time>2013-01-13T10:36:52Z</time>
      </trkpt>
      <trkpt lat="48.89334" lon="2.03309">
        <ele>100</ele>
        <time>2013-01-13T10:36:55Z</time>
      </trkpt>
      <trkpt lat="48.89336" lon="2.03317">
        <ele>100</ele>
        <time>2013-01-13T10:37:00Z</time>
      </trkpt>
      <trkpt lat="48.89336" lon="2.03336">
        <ele>98</ele>
        <time>2013-01-13T10:37:07Z</time>
      </trkpt>
      <trkpt lat="48.89336" lon="2.03343">
        <ele>98</ele>
        <time>2013-01-13T10:37:09Z</time>
      </trkpt>
      <trkpt lat="48.89337" lon="2.03351">
        <ele>99</ele>
        <time>2013-01-13T10:37:14Z</time>
      </trkpt>
      <trkpt lat="48.89338" lon="2.03358">
        <ele>99</ele>
        <time>2013-01-13T10:37:19Z</time>
      </trkpt>
      <trkpt lat="48.89338" lon="2.03366">
        <ele>99</ele>
        <time>2013-01-13T10:37:23Z</time>
      </trkpt>
      <trkpt lat="48.89337" lon="2.0338">
        <ele>99</ele>
        <time>2013-01-13T10:37:27Z</time>
      </trkpt>
      <trkpt lat="48.89337" lon="2.03396">
        <ele>99</ele>
        <time>2013-01-13T10:37:32Z</time>
      </trkpt>
      <trkpt lat="48.89338" lon="2.03404">
        <ele>98</ele>
        <time>2013-01-13T10:37:35Z</time>
      </trkpt>
      <trkpt lat="48.89339" lon="2.03411">
        <ele>98</ele>
        <time>2013-01-13T10:37:40Z</time>
      </trkpt>
      <trkpt lat="48.8934" lon="2.03421">
        <ele>98</ele>
        <time>2013-01-13T10:37:47Z</time>
      </trkpt>
      <trkpt lat="48.89339" lon="2.03429">
        <ele>98</ele>
        <time>2013-01-13T10:37:50Z</time>
      </trkpt>
      <trkpt lat="48.89339" lon="2.03436">
        <ele>99</ele>
        <time>2013-01-13T10:37:52Z</time>
      </trkpt>
      <trkpt lat="48.89338" lon="2.03444">
        <ele>99</ele>
        <time>2013-01-13T10:37:54Z</time>
      </trkpt>
      <trkpt lat="48.89336" lon="2.03453">
        <ele>99</ele>
        <time>2013-01-13T10:37:57Z</time>
      </trkpt>
      <trkpt lat="48.89336" lon="2.0346">
        <ele>99</ele>
        <time>2013-01-13T10:38:00Z</time>
      </trkpt>
      <trkpt lat="48.89337" lon="2.03467">
        <ele>99</ele>
        <time>2013-01-13T10:38:05Z</time>
      </trkpt>
      <trkpt lat="48.89336" lon="2.03477">
        <ele>99</ele>
        <time>2013-01-13T10:38:10Z</time>
      </trkpt>
      <trkpt lat="48.89336" lon="2.03484">
        <ele>99</ele>
        <time>2013-01-13T10:38:12Z</time>
      </trkpt>
      <trkpt lat="48.89335" lon="2.03492">
        <ele>98</ele>
        <time>2013-01-13T10:38:14Z</time>
      </trkpt>
      <trkpt lat="48.89334" lon="2.03503">
        <ele>98</ele>
        <time>2013-01-13T10:38:17Z</time>
      </trkpt>
      <trkpt lat="48.89336" lon="2.03511">
        <ele>98</ele>
        <time>2013-01-13T10:38:22Z</time>
      </trkpt>
      <trkpt lat="48.89336" lon="2.03519">
        <ele>98</ele>
        <time>2013-01-13T10:38:28Z</time>
      </trkpt>
      <trkpt lat="48.89334" lon="2.03531">
        <ele>98</ele>
        <time>2013-01-13T10:38:32Z</time>
      </trkpt>
      <trkpt lat="48.89333" lon="2.03539">
        <ele>98</ele>
        <time>2013-01-13T10:38:34Z</time>
      </trkpt>
      <trkpt lat="48.89332" lon="2.0355">
        <ele>97</ele>
        <time>2013-01-13T10:38:37Z</time>
      </trkpt>
      <trkpt lat="48.89333" lon="2.03558">
        <ele>97</ele>
        <time>2013-01-13T10:38:40Z</time>
      </trkpt>
      <trkpt lat="48.89334" lon="2.03566">
        <ele>97</ele>
        <time>2013-01-13T10:38:44Z</time>
      </trkpt>
      <trkpt lat="48.89336" lon="2.03575">
        <ele>97</ele>
        <time>2013-01-13T10:38:52Z</time>
      </trkpt>
      <trkpt lat="48.89335" lon="2.03583">
        <ele>96</ele>
        <time>2013-01-13T10:38:55Z</time>
      </trkpt>
      <trkpt lat="48.89334" lon="2.03591">
        <ele>96</ele>
        <time>2013-01-13T10:38:57Z</time>
      </trkpt>
      <trkpt lat="48.89334" lon="2.03599">
        <ele>96</ele>
        <time>2013-01-13T10:39:02Z</time>
      </trkpt>
      <trkpt lat="48.89334" lon="2.03607">
        <ele>96</ele>
        <time>2013-01-13T10:39:10Z</time>
      </trkpt>
      <trkpt lat="48.89334" lon="2.03614">
        <ele>96</ele>
        <time>2013-01-13T10:39:18Z</time>
      </trkpt>
      <trkpt lat="48.89337" lon="2.03621">
        <ele>96</ele>
        <time>2013-01-13T10:39:23Z</time>
      </trkpt>
      <trkpt lat="48.89339" lon="2.03629">
        <ele>96</ele>
        <time>2013-01-13T10:39:27Z</time>
      </trkpt>
      <trkpt lat="48.89341" lon="2.03637">
        <ele>96</ele>
        <time>2013-01-13T10:39:32Z</time>
      </trkpt>
      <trkpt lat="48.89343" lon="2.03645">
        <ele>96</ele>
        <time>2013-01-13T10:39:38Z</time>
      </trkpt>
      <trkpt lat="48.89346" lon="2.03653">
        <ele>96</ele>
        <time>2013-01-13T10:39:42Z</time>
      </trkpt>
      <trkpt lat="48.89349" lon="2.03663">
        <ele>96</ele>
        <time>2013-01-13T10:39:47Z</time>
      </trkpt>
      <trkpt lat="48.89352" lon="2.03671">
        <ele>96</ele>
        <time>2013-01-13T10:39:53Z</time>
      </trkpt>
      <trkpt lat="48.89355" lon="2.03679">
        <ele>96</ele>
        <time>2013-01-13T10:39:57Z</time>
      </trkpt>
      <trkpt lat="48.89357" lon="2.03687">
        <ele>96</ele>
        <time>2013-01-13T10:40:02Z</time>
      </trkpt>
      <trkpt lat="48.89361" lon="2.03695">
        <ele>96</ele>
        <time>2013-01-13T10:40:07Z</time>
      </trkpt>
      <trkpt lat="48.89363" lon="2.03702">
        <ele>96</ele>
        <time>2013-01-13T10:40:12Z</time>
      </trkpt>
      <trkpt lat="48.89366" lon="2.03711">
        <ele>96</ele>
        <time>2013-01-13T10:40:17Z</time>
      </trkpt>
      <trkpt lat="48.8937" lon="2.0372">
        <ele>96</ele>
        <time>2013-01-13T10:40:22Z</time>
      </trkpt>
      <trkpt lat="48.89372" lon="2.03727">
        <ele>96</ele>
        <time>2013-01-13T10:40:27Z</time>
      </trkpt>
      <trkpt lat="48.89374" lon="2.03735">
        <ele>96</ele>
        <time>2013-01-13T10:40:32Z</time>
      </trkpt>
      <trkpt lat="48.89378" lon="2.03745">
        <ele>96</ele>
        <time>2013-01-13T10:40:37Z</time>
      </trkpt>
      <trkpt lat="48.89381" lon="2.03752">
        <ele>95</ele>
        <time>2013-01-13T10:40:42Z</time>
      </trkpt>
      <trkpt lat="48.89385" lon="2.0376">
        <ele>95</ele>
        <time>2013-01-13T10:40:47Z</time>
      </trkpt>
      <trkpt lat="48.89391" lon="2.0377">
        <ele>95</ele>
        <time>2013-01-13T10:40:52Z</time>
      </trkpt>
      <trkpt lat="48.89397" lon="2.03783">
        <ele>95</ele>
        <time>2013-01-13T10:40:59Z</time>
      </trkpt>
      <trkpt lat="48.894" lon="2.0379">
        <ele>95</ele>
        <time>2013-01-13T10:41:02Z</time>
      </trkpt>
      <trkpt lat="48.89402" lon="2.03797">
        <ele>95</ele>
        <time>2013-01-13T10:41:07Z</time>
      </trkpt>
      <trkpt lat="48.89404" lon="2.03806">
        <ele>95</ele>
        <time>2013-01-13T10:41:10Z</time>
      </trkpt>
      <trkpt lat="48.89405" lon="2.03814">
        <ele>95</ele>
        <time>2013-01-13T10:41:14Z</time>
      </trkpt>
      <trkpt lat="48.89407" lon="2.03823">
        <ele>95</ele>
        <time>2013-01-13T10:41:18Z</time>
      </trkpt>
      <trkpt lat="48.89408" lon="2.03832">
        <ele>95</ele>
        <time>2013-01-13T10:41:22Z</time>
      </trkpt>
      <trkpt lat="48.89411" lon="2.03842">
        <ele>97</ele>
        <time>2013-01-13T10:41:27Z</time>
      </trkpt>
      <trkpt lat="48.89413" lon="2.03849">
        <ele>98</ele>
        <time>2013-01-13T10:41:32Z</time>
      </trkpt>
      <trkpt lat="48.89416" lon="2.03856">
        <ele>98</ele>
        <time>2013-01-13T10:41:35Z</time>
      </trkpt>
      <trkpt lat="48.89418" lon="2.03864">
        <ele>96</ele>
        <time>2013-01-13T10:41:38Z</time>
      </trkpt>
      <trkpt lat="48.89421" lon="2.03868">
        <ele>96</ele>
        <time>2013-01-13T10:41:43Z</time>
      </trkpt>
      <trkpt lat="48.89426" lon="2.03873">
        <ele>96</ele>
        <time>2013-01-13T10:41:47Z</time>
      </trkpt>
      <trkpt lat="48.89432" lon="2.03879">
        <ele>96</ele>
        <time>2013-01-13T10:41:52Z</time>
      </trkpt>
      <trkpt lat="48.89436" lon="2.03883">
        <ele>96</ele>
        <time>2013-01-13T10:41:55Z</time>
      </trkpt>
      <trkpt lat="48.89442" lon="2.03893">
        <ele>97</ele>
        <time>2013-01-13T10:42:02Z</time>
      </trkpt>
      <trkpt lat="48.89445" lon="2.03901">
        <ele>97</ele>
        <time>2013-01-13T10:42:07Z</time>
      </trkpt>
      <trkpt lat="48.8945" lon="2.03907">
        <ele>97</ele>
        <time>2013-01-13T10:42:12Z</time>
      </trkpt>
      <trkpt lat="48.89454" lon="2.03916">
        <ele>96</ele>
        <time>2013-01-13T10:42:17Z</time>
      </trkpt>
      <trkpt lat="48.89458" lon="2.03921">
        <ele>99</ele>
        <time>2013-01-13T10:42:22Z</time>
      </trkpt>
      <trkpt lat="48.89462" lon="2.03926">
        <ele>99</ele>
        <time>2013-01-13T10:42:25Z</time>
      </trkpt>
      <trkpt lat="48.89465" lon="2.03932">
        <ele>99</ele>
        <time>2013-01-13T10:42:28Z</time>
      </trkpt>
      <trkpt lat="48.89468" lon="2.03939">
        <ele>99</ele>
        <time>2013-01-13T10:42:32Z</time>
      </trkpt>
      <trkpt lat="48.89473" lon="2.03947">
        <ele>99</ele>
        <time>2013-01-13T10:42:37Z</time>
      </trkpt>
      <trkpt lat="48.89478" lon="2.03954">
        <ele>99</ele>
        <time>2013-01-13T10:42:40Z</time>
      </trkpt>
      <trkpt lat="48.89481" lon="2.03967">
        <ele>99</ele>
        <time>2013-01-13T10:42:48Z</time>
      </trkpt>
      <trkpt lat="48.89485" lon="2.03972">
        <ele>99</ele>
        <time>2013-01-13T10:42:52Z</time>
      </trkpt>
      <trkpt lat="48.89491" lon="2.03978">
        <ele>98</ele>
        <time>2013-01-13T10:42:57Z</time>
      </trkpt>
      <trkpt lat="48.89495" lon="2.03984">
        <ele>98</ele>
        <time>2013-01-13T10:43:00Z</time>
      </trkpt>
      <trkpt lat="48.89499" lon="2.0399">
        <ele>97</ele>
        <time>2013-01-13T10:43:04Z</time>
      </trkpt>
      <trkpt lat="48.89503" lon="2.03995">
        <ele>96</ele>
        <time>2013-01-13T10:43:07Z</time>
      </trkpt>
      <trkpt lat="48.89507" lon="2.04001">
        <ele>97</ele>
        <time>2013-01-13T10:43:10Z</time>
      </trkpt>
      <trkpt lat="48.89512" lon="2.04008">
        <ele>97</ele>
        <time>2013-01-13T10:43:13Z</time>
      </trkpt>
      <trkpt lat="48.89516" lon="2.04012">
        <ele>97</ele>
        <time>2013-01-13T10:43:18Z</time>
      </trkpt>
      <trkpt lat="48.8952" lon="2.04016">
        <ele>98</ele>
        <time>2013-01-13T10:43:22Z</time>
      </trkpt>
      <trkpt lat="48.89524" lon="2.04022">
        <ele>98</ele>
        <time>2013-01-13T10:43:25Z</time>
      </trkpt>
      <trkpt lat="48.89528" lon="2.04025">
        <ele>98</ele>
        <time>2013-01-13T10:43:28Z</time>
      </trkpt>
      <trkpt lat="48.89534" lon="2.0403">
        <ele>98</ele>
        <time>2013-01-13T10:43:32Z</time>
      </trkpt>
      <trkpt lat="48.89538" lon="2.04036">
        <ele>98</ele>
        <time>2013-01-13T10:43:35Z</time>
      </trkpt>
      <trkpt lat="48.8954" lon="2.04044">
        <ele>98</ele>
        <time>2013-01-13T10:43:39Z</time>
      </trkpt>
      <trkpt lat="48.89544" lon="2.04049">
        <ele>98</ele>
        <time>2013-01-13T10:43:44Z</time>
      </trkpt>
      <trkpt lat="48.89545" lon="2.04058">
        <ele>99</ele>
        <time>2013-01-13T10:43:47Z</time>
      </trkpt>
      <trkpt lat="48.89549" lon="2.04062">
        <ele>99</ele>
        <time>2013-01-13T10:43:50Z</time>
      </trkpt>
      <trkpt lat="48.89554" lon="2.04064">
        <ele>98</ele>
        <time>2013-01-13T10:43:53Z</time>
      </trkpt>
      <trkpt lat="48.89559" lon="2.04068">
        <ele>98</ele>
        <time>2013-01-13T10:43:57Z</time>
      </trkpt>
      <trkpt lat="48.89563" lon="2.04072">
        <ele>98</ele>
        <time>2013-01-13T10:44:00Z</time>
      </trkpt>
      <trkpt lat="48.89567" lon="2.04079">
        <ele>98</ele>
        <time>2013-01-13T10:44:03Z</time>
      </trkpt>
      <trkpt lat="48.89575" lon="2.04084">
        <ele>99</ele>
        <time>2013-01-13T10:44:07Z</time>
      </trkpt>
      <trkpt lat="48.89579" lon="2.04089">
        <ele>98</ele>
        <time>2013-01-13T10:44:10Z</time>
      </trkpt>
      <trkpt lat="48.89582" lon="2.04095">
        <ele>99</ele>
        <time>2013-01-13T10:44:15Z</time>
      </trkpt>
      <trkpt lat="48.89583" lon="2.04104">
        <ele>100</ele>
        <time>2013-01-13T10:44:19Z</time>
      </trkpt>
      <trkpt lat="48.89585" lon="2.04112">
        <ele>97</ele>
        <time>2013-01-13T10:44:22Z</time>
      </trkpt>
      <trkpt lat="48.89589" lon="2.04117">
        <ele>97</ele>
        <time>2013-01-13T10:44:27Z</time>
      </trkpt>
      <trkpt lat="48.89592" lon="2.04122">
        <ele>97</ele>
        <time>2013-01-13T10:44:32Z</time>
      </trkpt>
      <trkpt lat="48.89595" lon="2.04128">
        <ele>97</ele>
        <time>2013-01-13T10:44:35Z</time>
      </trkpt>
      <trkpt lat="48.89599" lon="2.04135">
        <ele>97</ele>
        <time>2013-01-13T10:44:38Z</time>
      </trkpt>
      <trkpt lat="48.89602" lon="2.04141">
        <ele>97</ele>
        <time>2013-01-13T10:44:42Z</time>
      </trkpt>
      <trkpt lat="48.89606" lon="2.04146">
        <ele>97</ele>
        <time>2013-01-13T10:44:45Z</time>
      </trkpt>
      <trkpt lat="48.8961" lon="2.04152">
        <ele>97</ele>
        <time>2013-01-13T10:44:47Z</time>
      </trkpt>
      <trkpt lat="48.89614" lon="2.04158">
        <ele>97</ele>
        <time>2013-01-13T10:44:50Z</time>
      </trkpt>
      <trkpt lat="48.89619" lon="2.04164">
        <ele>96</ele>
        <time>2013-01-13T10:44:57Z</time>
      </trkpt>
      <trkpt lat="48.89623" lon="2.04168">
        <ele>95</ele>
        <time>2013-01-13T10:44:59Z</time>
      </trkpt>
      <trkpt lat="48.89626" lon="2.04174">
        <ele>95</ele>
        <time>2013-01-13T10:45:02Z</time>
      </trkpt>
      <trkpt lat="48.8963" lon="2.04179">
        <ele>95</ele>
        <time>2013-01-13T10:45:07Z</time>
      </trkpt>
      <trkpt lat="48.89633" lon="2.04188">
        <ele>95</ele>
        <time>2013-01-13T10:45:12Z</time>
      </trkpt>
      <trkpt lat="48.89637" lon="2.04193">
        <ele>95</ele>
        <time>2013-01-13T10:45:17Z</time>
      </trkpt>
      <trkpt lat="48.8964" lon="2.04202">
        <ele>95</ele>
        <time>2013-01-13T10:45:22Z</time>
      </trkpt>
      <trkpt lat="48.89644" lon="2.0421">
        <ele>94</ele>
        <time>2013-01-13T10:45:27Z</time>
      </trkpt>
      <trkpt lat="48.89646" lon="2.04217">
        <ele>94</ele>
        <time>2013-01-13T10:45:29Z</time>
      </trkpt>
      <trkpt lat="48.89651" lon="2.04229">
        <ele>94</ele>
        <time>2013-01-13T10:45:37Z</time>
      </trkpt>
      <trkpt lat="48.89653" lon="2.04238">
        <ele>93</ele>
        <time>2013-01-13T10:45:40Z</time>
      </trkpt>
      <trkpt lat="48.89655" lon="2.04247">
        <ele>93</ele>
        <time>2013-01-13T10:45:43Z</time>
      </trkpt>
      <trkpt lat="48.89659" lon="2.04257">
        <ele>93</ele>
        <time>2013-01-13T10:45:47Z</time>
      </trkpt>
      <trkpt lat="48.89663" lon="2.04263">
        <ele>93</ele>
        <time>2013-01-13T10:45:52Z</time>
      </trkpt>
      <trkpt lat="48.89668" lon="2.04268">
        <ele>92</ele>
        <time>2013-01-13T10:45:57Z</time>
      </trkpt>
      <trkpt lat="48.89672" lon="2.04275">
        <ele>92</ele>
        <time>2013-01-13T10:46:00Z</time>
      </trkpt>
      <trkpt lat="48.89677" lon="2.04278">
        <ele>92</ele>
        <time>2013-01-13T10:46:04Z</time>
      </trkpt>
      <trkpt lat="48.89682" lon="2.04281">
        <ele>92</ele>
        <time>2013-01-13T10:46:09Z</time>
      </trkpt>
      <trkpt lat="48.89687" lon="2.04286">
        <ele>92</ele>
        <time>2013-01-13T10:46:12Z</time>
      </trkpt>
      <trkpt lat="48.89692" lon="2.0429">
        <ele>92</ele>
        <time>2013-01-13T10:46:18Z</time>
      </trkpt>
      <trkpt lat="48.89694" lon="2.04298">
        <ele>92</ele>
        <time>2013-01-13T10:46:22Z</time>
      </trkpt>
      <trkpt lat="48.89698" lon="2.04305">
        <ele>91</ele>
        <time>2013-01-13T10:46:27Z</time>
      </trkpt>
      <trkpt lat="48.89702" lon="2.04316">
        <ele>91</ele>
        <time>2013-01-13T10:46:32Z</time>
      </trkpt>
      <trkpt lat="48.89704" lon="2.04324">
        <ele>91</ele>
        <time>2013-01-13T10:46:37Z</time>
      </trkpt>
      <trkpt lat="48.89707" lon="2.04334">
        <ele>90</ele>
        <time>2013-01-13T10:46:42Z</time>
      </trkpt>
      <trkpt lat="48.89709" lon="2.04341">
        <ele>90</ele>
        <time>2013-01-13T10:46:44Z</time>
      </trkpt>
      <trkpt lat="48.89711" lon="2.04348">
        <ele>90</ele>
        <time>2013-01-13T10:46:47Z</time>
      </trkpt>
      <trkpt lat="48.89714" lon="2.04356">
        <ele>90</ele>
        <time>2013-01-13T10:46:53Z</time>
      </trkpt>
      <trkpt lat="48.89716" lon="2.04368">
        <ele>90</ele>
        <time>2013-01-13T10:46:57Z</time>
      </trkpt>
      <trkpt lat="48.89717" lon="2.04376">
        <ele>90</ele>
        <time>2013-01-13T10:46:59Z</time>
      </trkpt>
      <trkpt lat="48.89719" lon="2.04387">
        <ele>90</ele>
        <time>2013-01-13T10:47:02Z</time>
      </trkpt>
      <trkpt lat="48.89722" lon="2.04394">
        <ele>90</ele>
        <time>2013-01-13T10:47:10Z</time>
      </trkpt>
      <trkpt lat="48.89724" lon="2.04401">
        <ele>90</ele>
        <time>2013-01-13T10:47:12Z</time>
      </trkpt>
      <trkpt lat="48.89724" lon="2.04408">
        <ele>90</ele>
        <time>2013-01-13T10:47:15Z</time>
      </trkpt>
      <trkpt lat="48.89727" lon="2.04416">
        <ele>90</ele>
        <time>2013-01-13T10:47:23Z</time>
      </trkpt>
      <trkpt lat="48.89729" lon="2.04422">
        <ele>90</ele>
        <time>2013-01-13T10:47:30Z</time>
      </trkpt>
      <trkpt lat="48.89732" lon="2.04428">
        <ele>90</ele>
        <time>2013-01-13T10:47:34Z</time>
      </trkpt>
      <trkpt lat="48.89734" lon="2.04435">
        <ele>90</ele>
        <time>2013-01-13T10:47:37Z</time>
      </trkpt>
      <trkpt lat="48.89737" lon="2.04444">
        <ele>90</ele>
        <time>2013-01-13T10:47:42Z</time>
      </trkpt>
      <trkpt lat="48.89742" lon="2.04449">
        <ele>90</ele>
        <time>2013-01-13T10:47:49Z</time>
      </trkpt>
      <trkpt lat="48.89746" lon="2.04459">
        <ele>90</ele>
        <time>2013-01-13T10:47:52Z</time>
      </trkpt>
      <trkpt lat="48.89749" lon="2.04468">
        <ele>89</ele>
        <time>2013-01-13T10:47:54Z</time>
      </trkpt>
      <trkpt lat="48.89752" lon="2.04478">
        <ele>91</ele>
        <time>2013-01-13T10:47:57Z</time>
      </trkpt>
      <trkpt lat="48.89754" lon="2.04484">
        <ele>90</ele>
        <time>2013-01-13T10:48:02Z</time>
      </trkpt>
      <trkpt lat="48.89754" lon="2.04493">
        <ele>89</ele>
        <time>2013-01-13T10:48:05Z</time>
      </trkpt>
      <trkpt lat="48.89754" lon="2.04501">
        <ele>88</ele>
        <time>2013-01-13T10:48:07Z</time>
      </trkpt>
      <trkpt lat="48.89754" lon="2.04508">
        <ele>89</ele>
        <time>2013-01-13T10:48:09Z</time>
      </trkpt>
      <trkpt lat="48.89755" lon="2.04515">
        <ele>89</ele>
        <time>2013-01-13T10:48:12Z</time>
      </trkpt>
      <trkpt lat="48.89756" lon="2.04524">
        <ele>89</ele>
        <time>2013-01-13T10:48:19Z</time>
      </trkpt>
      <trkpt lat="48.89757" lon="2.04533">
        <ele>89</ele>
        <time>2013-01-13T10:48:22Z</time>
      </trkpt>
      <trkpt lat="48.89758" lon="2.0454">
        <ele>89</ele>
        <time>2013-01-13T10:48:24Z</time>
      </trkpt>
      <trkpt lat="48.89761" lon="2.04557">
        <ele>89</ele>
        <time>2013-01-13T10:48:34Z</time>
      </trkpt>
      <trkpt lat="48.89763" lon="2.04564">
        <ele>89</ele>
        <time>2013-01-13T10:48:37Z</time>
      </trkpt>
      <trkpt lat="48.89766" lon="2.04572">
        <ele>89</ele>
        <time>2013-01-13T10:48:43Z</time>
      </trkpt>
      <trkpt lat="48.89767" lon="2.04585">
        <ele>89</ele>
        <time>2013-01-13T10:48:47Z</time>
      </trkpt>
      <trkpt lat="48.89767" lon="2.04592">
        <ele>89</ele>
        <time>2013-01-13T10:48:52Z</time>
      </trkpt>
      <trkpt lat="48.8977" lon="2.04601">
        <ele>89</ele>
        <time>2013-01-13T10:48:57Z</time>
      </trkpt>
      <trkpt lat="48.89772" lon="2.04608">
        <ele>89</ele>
        <time>2013-01-13T10:48:59Z</time>
      </trkpt>
      <trkpt lat="48.89774" lon="2.04617">
        <ele>89</ele>
        <time>2013-01-13T10:49:02Z</time>
      </trkpt>
      <trkpt lat="48.89779" lon="2.04615">
        <ele>89</ele>
        <time>2013-01-13T10:49:09Z</time>
      </trkpt>
      <trkpt lat="48.89784" lon="2.04611">
        <ele>89</ele>
        <time>2013-01-13T10:49:12Z</time>
      </trkpt>
      <trkpt lat="48.89789" lon="2.04608">
        <ele>89</ele>
        <time>2013-01-13T10:49:14Z</time>
      </trkpt>
      <trkpt lat="48.89794" lon="2.04604">
        <ele>89</ele>
        <time>2013-01-13T10:49:17Z</time>
      </trkpt>
      <trkpt lat="48.89798" lon="2.04598">
        <ele>89</ele>
        <time>2013-01-13T10:49:24Z</time>
      </trkpt>
      <trkpt lat="48.89802" lon="2.04593">
        <ele>89</ele>
        <time>2013-01-13T10:49:27Z</time>
      </trkpt>
      <trkpt lat="48.89806" lon="2.0459">
        <ele>89</ele>
        <time>2013-01-13T10:49:29Z</time>
      </trkpt>
      <trkpt lat="48.8981" lon="2.04584">
        <ele>89</ele>
        <time>2013-01-13T10:49:33Z</time>
      </trkpt>
      <trkpt lat="48.89814" lon="2.0458">
        <ele>90</ele>
        <time>2013-01-13T10:49:38Z</time>
      </trkpt>
      <trkpt lat="48.89818" lon="2.04576">
        <ele>90</ele>
        <time>2013-01-13T10:49:40Z</time>
      </trkpt>
      <trkpt lat="48.89823" lon="2.04571">
        <ele>90</ele>
        <time>2013-01-13T10:49:43Z</time>
      </trkpt>
      <trkpt lat="48.89826" lon="2.04565">
        <ele>90</ele>
        <time>2013-01-13T10:49:49Z</time>
      </trkpt>
      <trkpt lat="48.89832" lon="2.04562">
        <ele>90</ele>
        <time>2013-01-13T10:49:52Z</time>
      </trkpt>
      <trkpt lat="48.89836" lon="2.04557">
        <ele>96</ele>
        <time>2013-01-13T10:49:55Z</time>
      </trkpt>
      <trkpt lat="48.89839" lon="2.04549">
        <ele>97</ele>
        <time>2013-01-13T10:50:02Z</time>
      </trkpt>
      <trkpt lat="48.89845" lon="2.04544">
        <ele>97</ele>
        <time>2013-01-13T10:50:05Z</time>
      </trkpt>
      <trkpt lat="48.89849" lon="2.04541">
        <ele>98</ele>
        <time>2013-01-13T10:50:08Z</time>
      </trkpt>
      <trkpt lat="48.89852" lon="2.04535">
        <ele>98</ele>
        <time>2013-01-13T10:50:14Z</time>
      </trkpt>
      <trkpt lat="48.89857" lon="2.0453">
        <ele>99</ele>
        <time>2013-01-13T10:50:17Z</time>
      </trkpt>
      <trkpt lat="48.89863" lon="2.04526">
        <ele>99</ele>
        <time>2013-01-13T10:50:22Z</time>
      </trkpt>
      <trkpt lat="48.89868" lon="2.04522">
        <ele>100</ele>
        <time>2013-01-13T10:50:27Z</time>
      </trkpt>
      <trkpt lat="48.89875" lon="2.04516">
        <ele>100</ele>
        <time>2013-01-13T10:50:32Z</time>
      </trkpt>
      <trkpt lat="48.89879" lon="2.04511">
        <ele>101</ele>
        <time>2013-01-13T10:50:37Z</time>
      </trkpt>
      <trkpt lat="48.89886" lon="2.04503">
        <ele>102</ele>
        <time>2013-01-13T10:50:42Z</time>
      </trkpt>
      <trkpt lat="48.89889" lon="2.04497">
        <ele>106</ele>
        <time>2013-01-13T10:50:48Z</time>
      </trkpt>
      <trkpt lat="48.89893" lon="2.04491">
        <ele>106</ele>
        <time>2013-01-13T10:50:52Z</time>
      </trkpt>
      <trkpt lat="48.89898" lon="2.04486">
        <ele>107</ele>
        <time>2013-01-13T10:50:57Z</time>
      </trkpt>
      <trkpt lat="48.89901" lon="2.04481">
        <ele>107</ele>
        <time>2013-01-13T10:51:00Z</time>
      </trkpt>
      <trkpt lat="48.89902" lon="2.04473">
        <ele>107</ele>
        <time>2013-01-13T10:51:03Z</time>
      </trkpt>
      <trkpt lat="48.89902" lon="2.04465">
        <ele>107</ele>
        <time>2013-01-13T10:51:07Z</time>
      </trkpt>
      <trkpt lat="48.89902" lon="2.04457">
        <ele>107</ele>
        <time>2013-01-13T10:51:13Z</time>
      </trkpt>
      <trkpt lat="48.89904" lon="2.0445">
        <ele>107</ele>
        <time>2013-01-13T10:51:15Z</time>
      </trkpt>
      <trkpt lat="48.89906" lon="2.04443">
        <ele>108</ele>
        <time>2013-01-13T10:51:17Z</time>
      </trkpt>
      <trkpt lat="48.89907" lon="2.04434">
        <ele>109</ele>
        <time>2013-01-13T10:51:20Z</time>
      </trkpt>
      <trkpt lat="48.89908" lon="2.04427">
        <ele>110</ele>
        <time>2013-01-13T10:51:27Z</time>
      </trkpt>
      <trkpt lat="48.89914" lon="2.04426">
        <ele>111</ele>
        <time>2013-01-13T10:51:30Z</time>
      </trkpt>
      <trkpt lat="48.89918" lon="2.04424">
        <ele>114</ele>
        <time>2013-01-13T10:51:34Z</time>
      </trkpt>
      <trkpt lat="48.89923" lon="2.04423">
        <ele>114</ele>
        <time>2013-01-13T10:51:38Z</time>
      </trkpt>
      <trkpt lat="48.8993" lon="2.0442">
        <ele>115</ele>
        <time>2013-01-13T10:51:42Z</time>
      </trkpt>
      <trkpt lat="48.89935" lon="2.04419">
        <ele>115</ele>
        <time>2013-01-13T10:51:45Z</time>
      </trkpt>
      <trkpt lat="48.89941" lon="2.0442">
        <ele>116</ele>
        <time>2013-01-13T10:51:52Z</time>
      </trkpt>
      <trkpt lat="48.89946" lon="2.04422">
        <ele>116</ele>
        <time>2013-01-13T10:51:54Z</time>
      </trkpt>
      <trkpt lat="48.89956" lon="2.04426">
        <ele>117</ele>
        <time>2013-01-13T10:51:57Z</time>
      </trkpt>
      <trkpt lat="48.89961" lon="2.04428">
        <ele>118</ele>
        <time>2013-01-13T10:52:00Z</time>
      </trkpt>
      <trkpt lat="48.89966" lon="2.04428">
        <ele>118</ele>
        <time>2013-01-13T10:52:07Z</time>
      </trkpt>
      <trkpt lat="48.89975" lon="2.04424">
        <ele>120</ele>
        <time>2013-01-13T10:52:13Z</time>
      </trkpt>
      <trkpt lat="48.89981" lon="2.04418">
        <ele>121</ele>
        <time>2013-01-13T10:52:17Z</time>
      </trkpt>
      <trkpt lat="48.89985" lon="2.04415">
        <ele>123</ele>
        <time>2013-01-13T10:52:22Z</time>
      </trkpt>
      <trkpt lat="48.8999" lon="2.0441">
        <ele>123</ele>
        <time>2013-01-13T10:52:27Z</time>
      </trkpt>
      <trkpt lat="48.89993" lon="2.04405">
        <ele>123</ele>
        <time>2013-01-13T10:52:30Z</time>
      </trkpt>
      <trkpt lat="48.89995" lon="2.04398">
        <ele>123</ele>
        <time>2013-01-13T10:52:35Z</time>
      </trkpt>
      <trkpt lat="48.89999" lon="2.04393">
        <ele>123</ele>
        <time>2013-01-13T10:52:39Z</time>
      </trkpt>
      <trkpt lat="48.90004" lon="2.0439">
        <ele>129</ele>
        <time>2013-01-13T10:52:42Z</time>
      </trkpt>
      <trkpt lat="48.90007" lon="2.04386">
        <ele>130</ele>
        <time>2013-01-13T10:52:45Z</time>
      </trkpt>
      <trkpt lat="48.90013" lon="2.04382">
        <ele>130</ele>
        <time>2013-01-13T10:52:52Z</time>
      </trkpt>
      <trkpt lat="48.90017" lon="2.0438">
        <ele>130</ele>
        <time>2013-01-13T10:52:54Z</time>
      </trkpt>
      <trkpt lat="48.90022" lon="2.04376">
        <ele>131</ele>
        <time>2013-01-13T10:52:57Z</time>
      </trkpt>
      <trkpt lat="48.90028" lon="2.04372">
        <ele>131</ele>
        <time>2013-01-13T10:53:02Z</time>
      </trkpt>
      <trkpt lat="48.90034" lon="2.0437">
        <ele>131</ele>
        <time>2013-01-13T10:53:07Z</time>
      </trkpt>
      <trkpt lat="48.90045" lon="2.0437">
        <ele>132</ele>
        <time>2013-01-13T10:53:14Z</time>
      </trkpt>
      <trkpt lat="48.90049" lon="2.04367">
        <ele>132</ele>
        <time>2013-01-13T10:53:18Z</time>
      </trkpt>
      <trkpt lat="48.90053" lon="2.04363">
        <ele>133</ele>
        <time>2013-01-13T10:53:22Z</time>
      </trkpt>
      <trkpt lat="48.90059" lon="2.04364">
        <ele>133</ele>
        <time>2013-01-13T10:53:25Z</time>
      </trkpt>
      <trkpt lat="48.90064" lon="2.04363">
        <ele>133</ele>
        <time>2013-01-13T10:53:28Z</time>
      </trkpt>
      <trkpt lat="48.90072" lon="2.04364">
        <ele>134</ele>
        <time>2013-01-13T10:53:32Z</time>
      </trkpt>
      <trkpt lat="48.90078" lon="2.04364">
        <ele>134</ele>
        <time>2013-01-13T10:53:35Z</time>
      </trkpt>
      <trkpt lat="48.90084" lon="2.04363">
        <ele>136</ele>
        <time>2013-01-13T10:53:38Z</time>
      </trkpt>
      <trkpt lat="48.90089" lon="2.04362">
        <ele>136</ele>
        <time>2013-01-13T10:53:40Z</time>
      </trkpt>
      <trkpt lat="48.90091" lon="2.04349">
        <ele>137</ele>
        <time>2013-01-13T10:53:47Z</time>
      </trkpt>
      <trkpt lat="48.90088" lon="2.0434">
        <ele>137</ele>
        <time>2013-01-13T10:53:52Z</time>
      </trkpt>
      <trkpt lat="48.90088" lon="2.04333">
        <ele>138</ele>
        <time>2013-01-13T10:53:55Z</time>
      </trkpt>
      <trkpt lat="48.90086" lon="2.04324">
        <ele>138</ele>
        <time>2013-01-13T10:53:59Z</time>
      </trkpt>
      <trkpt lat="48.90084" lon="2.04318">
        <ele>138</ele>
        <time>2013-01-13T10:54:03Z</time>
      </trkpt>
      <trkpt lat="48.90083" lon="2.04308">
        <ele>136</ele>
        <time>2013-01-13T10:54:07Z</time>
      </trkpt>
      <trkpt lat="48.90083" lon="2.043">
        <ele>136</ele>
        <time>2013-01-13T10:54:09Z</time>
      </trkpt>
      <trkpt lat="48.90082" lon="2.04291">
        <ele>136</ele>
        <time>2013-01-13T10:54:12Z</time>
      </trkpt>
      <trkpt lat="48.9008" lon="2.04283">
        <ele>137</ele>
        <time>2013-01-13T10:54:18Z</time>
      </trkpt>
      <trkpt lat="48.90079" lon="2.04272">
        <ele>137</ele>
        <time>2013-01-13T10:54:22Z</time>
      </trkpt>
      <trkpt lat="48.90078" lon="2.04264">
        <ele>138</ele>
        <time>2013-01-13T10:54:25Z</time>
      </trkpt>
      <trkpt lat="48.90077" lon="2.04257">
        <ele>138</ele>
        <time>2013-01-13T10:54:30Z</time>
      </trkpt>
      <trkpt lat="48.90077" lon="2.04249">
        <ele>139</ele>
        <time>2013-01-13T10:54:34Z</time>
      </trkpt>
      <trkpt lat="48.90076" lon="2.04239">
        <ele>139</ele>
        <time>2013-01-13T10:54:37Z</time>
      </trkpt>
      <trkpt lat="48.90076" lon="2.0423">
        <ele>139</ele>
        <time>2013-01-13T10:54:39Z</time>
      </trkpt>
      <trkpt lat="48.90076" lon="2.0422">
        <ele>139</ele>
        <time>2013-01-13T10:54:42Z</time>
      </trkpt>
      <trkpt lat="48.90076" lon="2.04212">
        <ele>139</ele>
        <time>2013-01-13T10:54:45Z</time>
      </trkpt>
      <trkpt lat="48.90074" lon="2.04205">
        <ele>139</ele>
        <time>2013-01-13T10:54:50Z</time>
      </trkpt>
      <trkpt lat="48.90073" lon="2.04198">
        <ele>139</ele>
        <time>2013-01-13T10:54:54Z</time>
      </trkpt>
      <trkpt lat="48.90073" lon="2.0419">
        <ele>140</ele>
        <time>2013-01-13T10:54:58Z</time>
      </trkpt>
      <trkpt lat="48.90074" lon="2.0418">
        <ele>140</ele>
        <time>2013-01-13T10:55:02Z</time>
      </trkpt>
      <trkpt lat="48.90074" lon="2.04171">
        <ele>141</ele>
        <time>2013-01-13T10:55:05Z</time>
      </trkpt>
      <trkpt lat="48.90073" lon="2.04162">
        <ele>142</ele>
        <time>2013-01-13T10:55:09Z</time>
      </trkpt>
      <trkpt lat="48.90074" lon="2.04154">
        <ele>141</ele>
        <time>2013-01-13T10:55:13Z</time>
      </trkpt>
      <trkpt lat="48.90078" lon="2.04151">
        <ele>141</ele>
        <time>2013-01-13T10:55:43Z</time>
      </trkpt>
      <trkpt lat="48.90083" lon="2.04149">
        <ele>141</ele>
        <time>2013-01-13T10:55:50Z</time>
      </trkpt>
      <trkpt lat="48.90089" lon="2.04147">
        <ele>143</ele>
        <time>2013-01-13T10:55:57Z</time>
      </trkpt>
      <trkpt lat="48.90093" lon="2.04142">
        <ele>143</ele>
        <time>2013-01-13T10:56:02Z</time>
      </trkpt>
      <trkpt lat="48.90099" lon="2.04139">
        <ele>143</ele>
        <time>2013-01-13T10:56:07Z</time>
      </trkpt>
      <trkpt lat="48.90105" lon="2.04136">
        <ele>143</ele>
        <time>2013-01-13T10:56:12Z</time>
      </trkpt>
      <trkpt lat="48.90109" lon="2.04132">
        <ele>143</ele>
        <time>2013-01-13T10:56:15Z</time>
      </trkpt>
      <trkpt lat="48.90113" lon="2.04129">
        <ele>143</ele>
        <time>2013-01-13T10:56:20Z</time>
      </trkpt>
      <trkpt lat="48.90118" lon="2.04125">
        <ele>144</ele>
        <time>2013-01-13T10:56:24Z</time>
      </trkpt>
      <trkpt lat="48.90121" lon="2.0412">
        <ele>144</ele>
        <time>2013-01-13T10:56:28Z</time>
      </trkpt>
      <trkpt lat="48.90124" lon="2.04113">
        <ele>144</ele>
        <time>2013-01-13T10:56:32Z</time>
      </trkpt>
      <trkpt lat="48.90128" lon="2.04104">
        <ele>144</ele>
        <time>2013-01-13T10:56:37Z</time>
      </trkpt>
      <trkpt lat="48.90132" lon="2.04099">
        <ele>144</ele>
        <time>2013-01-13T10:56:39Z</time>
      </trkpt>
      <trkpt lat="48.90134" lon="2.04093">
        <ele>144</ele>
        <time>2013-01-13T10:56:43Z</time>
      </trkpt>
      <trkpt lat="48.90137" lon="2.04083">
        <ele>145</ele>
        <time>2013-01-13T10:56:47Z</time>
      </trkpt>
      <trkpt lat="48.9014" lon="2.04075">
        <ele>146</ele>
        <time>2013-01-13T10:56:50Z</time>
      </trkpt>
      <trkpt lat="48.90144" lon="2.04069">
        <ele>146</ele>
        <time>2013-01-13T10:56:55Z</time>
      </trkpt>
      <trkpt lat="48.90145" lon="2.04062">
        <ele>146</ele>
        <time>2013-01-13T10:56:59Z</time>
      </trkpt>
      <trkpt lat="48.90148" lon="2.04054">
        <ele>146</ele>
        <time>2013-01-13T10:57:03Z</time>
      </trkpt>
      <trkpt lat="48.9015" lon="2.04047">
        <ele>146</ele>
        <time>2013-01-13T10:57:07Z</time>
      </trkpt>
      <trkpt lat="48.90154" lon="2.04041">
        <ele>146</ele>
        <time>2013-01-13T10:57:12Z</time>
      </trkpt>
      <trkpt lat="48.90155" lon="2.04033">
        <ele>146</ele>
        <time>2013-01-13T10:57:17Z</time>
      </trkpt>
      <trkpt lat="48.90158" lon="2.04027">
        <ele>146</ele>
        <time>2013-01-13T10:57:19Z</time>
      </trkpt>
      <trkpt lat="48.90162" lon="2.04021">
        <ele>146</ele>
        <time>2013-01-13T10:57:22Z</time>
      </trkpt>
      <trkpt lat="48.90165" lon="2.04014">
        <ele>146</ele>
        <time>2013-01-13T10:57:27Z</time>
      </trkpt>
      <trkpt lat="48.9017" lon="2.04008">
        <ele>144</ele>
        <time>2013-01-13T10:57:30Z</time>
      </trkpt>
      <trkpt lat="48.90173" lon="2.04001">
        <ele>145</ele>
        <time>2013-01-13T10:57:35Z</time>
      </trkpt>
      <trkpt lat="48.90176" lon="2.03994">
        <ele>144</ele>
        <time>2013-01-13T10:57:39Z</time>
      </trkpt>
      <trkpt lat="48.90181" lon="2.03988">
        <ele>143</ele>
        <time>2013-01-13T10:57:42Z</time>
      </trkpt>
      <trkpt lat="48.90184" lon="2.03984">
        <ele>143</ele>
        <time>2013-01-13T10:57:44Z</time>
      </trkpt>
      <trkpt lat="48.90187" lon="2.03976">
        <ele>142</ele>
        <time>2013-01-13T10:57:47Z</time>
      </trkpt>
      <trkpt lat="48.90185" lon="2.03969">
        <ele>142</ele>
        <time>2013-01-13T10:57:52Z</time>
      </trkpt>
      <trkpt lat="48.90187" lon="2.03961">
        <ele>142</ele>
        <time>2013-01-13T10:57:55Z</time>
      </trkpt>
      <trkpt lat="48.9019" lon="2.03953">
        <ele>142</ele>
        <time>2013-01-13T10:57:58Z</time>
      </trkpt>
      <trkpt lat="48.90192" lon="2.03946">
        <ele>142</ele>
        <time>2013-01-13T10:58:04Z</time>
      </trkpt>
      <trkpt lat="48.90194" lon="2.03938">
        <ele>142</ele>
        <time>2013-01-13T10:58:07Z</time>
      </trkpt>
      <trkpt lat="48.90195" lon="2.03931">
        <ele>141</ele>
        <time>2013-01-13T10:58:09Z</time>
      </trkpt>
      <trkpt lat="48.90197" lon="2.03924">
        <ele>141</ele>
        <time>2013-01-13T10:58:13Z</time>
      </trkpt>
      <trkpt lat="48.90199" lon="2.03916">
        <ele>142</ele>
        <time>2013-01-13T10:58:17Z</time>
      </trkpt>
      <trkpt lat="48.90201" lon="2.0391">
        <ele>142</ele>
        <time>2013-01-13T10:58:20Z</time>
      </trkpt>
      <trkpt lat="48.90202" lon="2.03903">
        <ele>142</ele>
        <time>2013-01-13T10:58:24Z</time>
      </trkpt>
      <trkpt lat="48.90203" lon="2.03894">
        <ele>142</ele>
        <time>2013-01-13T10:58:28Z</time>
      </trkpt>
      <trkpt lat="48.90205" lon="2.03884">
        <ele>142</ele>
        <time>2013-01-13T10:58:32Z</time>
      </trkpt>
      <trkpt lat="48.90205" lon="2.03876">
        <ele>142</ele>
        <time>2013-01-13T10:58:37Z</time>
      </trkpt>
      <trkpt lat="48.90208" lon="2.03863">
        <ele>142</ele>
        <time>2013-01-13T10:58:43Z</time>
      </trkpt>
      <trkpt lat="48.9021" lon="2.03855">
        <ele>143</ele>
        <time>2013-01-13T10:58:48Z</time>
      </trkpt>
      <trkpt lat="48.90213" lon="2.03843">
        <ele>142</ele>
        <time>2013-01-13T10:58:52Z</time>
      </trkpt>
      <trkpt lat="48.90215" lon="2.03834">
        <ele>142</ele>
        <time>2013-01-13T10:58:58Z</time>
      </trkpt>
      <trkpt lat="48.90216" lon="2.03828">
        <ele>144</ele>
        <time>2013-01-13T10:59:00Z</time>
      </trkpt>
      <trkpt lat="48.90218" lon="2.0382">
        <ele>144</ele>
        <time>2013-01-13T10:59:03Z</time>
      </trkpt>
      <trkpt lat="48.90224" lon="2.03822">
        <ele>144</ele>
        <time>2013-01-13T10:59:08Z</time>
      </trkpt>
      <trkpt lat="48.90232" lon="2.03826">
        <ele>143</ele>
        <time>2013-01-13T10:59:12Z</time>
      </trkpt>
      <trkpt lat="48.90237" lon="2.03828">
        <ele>142</ele>
        <time>2013-01-13T10:59:15Z</time>
      </trkpt>
      <trkpt lat="48.90242" lon="2.03829">
        <ele>141</ele>
        <time>2013-01-13T10:59:20Z</time>
      </trkpt>
      <trkpt lat="48.90247" lon="2.03833">
        <ele>140</ele>
        <time>2013-01-13T10:59:23Z</time>
      </trkpt>
      <trkpt lat="48.90251" lon="2.03837">
        <ele>138</ele>
        <time>2013-01-13T10:59:27Z</time>
      </trkpt>
      <trkpt lat="48.90257" lon="2.0384">
        <ele>137</ele>
        <time>2013-01-13T10:59:32Z</time>
      </trkpt>
      <trkpt lat="48.9026" lon="2.03847">
        <ele>136</ele>
        <time>2013-01-13T10:59:35Z</time>
      </trkpt>
      <trkpt lat="48.90264" lon="2.03854">
        <ele>136</ele>
        <time>2013-01-13T10:59:42Z</time>
      </trkpt>
      <trkpt lat="48.90266" lon="2.0386">
        <ele>135</ele>
        <time>2013-01-13T11:00:12Z</time>
      </trkpt>
      <trkpt lat="48.90272" lon="2.0386">
        <ele>135</ele>
        <time>2013-01-13T11:00:15Z</time>
      </trkpt>
      <trkpt lat="48.90281" lon="2.03859">
        <ele>134</ele>
        <time>2013-01-13T11:00:22Z</time>
      </trkpt>
      <trkpt lat="48.90286" lon="2.0386">
        <ele>134</ele>
        <time>2013-01-13T11:00:24Z</time>
      </trkpt>
      <trkpt lat="48.90291" lon="2.03859">
        <ele>134</ele>
        <time>2013-01-13T11:00:29Z</time>
      </trkpt>
      <trkpt lat="48.90295" lon="2.03859">
        <ele>134</ele>
        <time>2013-01-13T11:00:32Z</time>
      </trkpt>
      <trkpt lat="48.90303" lon="2.03851">
        <ele>133</ele>
        <time>2013-01-13T11:00:39Z</time>
      </trkpt>
      <trkpt lat="48.90307" lon="2.03849">
        <ele>133</ele>
        <time>2013-01-13T11:00:43Z</time>
      </trkpt>
      <trkpt lat="48.90309" lon="2.03841">
        <ele>133</ele>
        <time>2013-01-13T11:00:48Z</time>
      </trkpt>
      <trkpt lat="48.90313" lon="2.03836">
        <ele>133</ele>
        <time>2013-01-13T11:00:52Z</time>
      </trkpt>
      <trkpt lat="48.90317" lon="2.03832">
        <ele>134</ele>
        <time>2013-01-13T11:00:55Z</time>
      </trkpt>
      <trkpt lat="48.90322" lon="2.03829">
        <ele>133</ele>
        <time>2013-01-13T11:00:59Z</time>
      </trkpt>
      <trkpt lat="48.90327" lon="2.03825">
        <ele>133</ele>
        <time>2013-01-13T11:01:04Z</time>
      </trkpt>
      <trkpt lat="48.90337" lon="2.03822">
        <ele>130</ele>
        <time>2013-01-13T11:01:13Z</time>
      </trkpt>
      <trkpt lat="48.90342" lon="2.0382">
        <ele>130</ele>
        <time>2013-01-13T11:01:17Z</time>
      </trkpt>
      <trkpt lat="48.90348" lon="2.03817">
        <ele>129</ele>
        <time>2013-01-13T11:01:22Z</time>
      </trkpt>
      <trkpt lat="48.90354" lon="2.03813">
        <ele>129</ele>
        <time>2013-01-13T11:01:27Z</time>
      </trkpt>
      <trkpt lat="48.90361" lon="2.03811">
        <ele>129</ele>
        <time>2013-01-13T11:01:32Z</time>
      </trkpt>
      <trkpt lat="48.90366" lon="2.03806">
        <ele>129</ele>
        <time>2013-01-13T11:01:37Z</time>
      </trkpt>
      <trkpt lat="48.90371" lon="2.03804">
        <ele>128</ele>
        <time>2013-01-13T11:01:40Z</time>
      </trkpt>
      <trkpt lat="48.90376" lon="2.03803">
        <ele>128</ele>
        <time>2013-01-13T11:01:44Z</time>
      </trkpt>
      <trkpt lat="48.90382" lon="2.03799">
        <ele>128</ele>
        <time>2013-01-13T11:01:47Z</time>
      </trkpt>
      <trkpt lat="48.90387" lon="2.03796">
        <ele>128</ele>
        <time>2013-01-13T11:01:52Z</time>
      </trkpt>
      <trkpt lat="48.90394" lon="2.03794">
        <ele>127</ele>
        <time>2013-01-13T11:01:57Z</time>
      </trkpt>
      <trkpt lat="48.90399" lon="2.03793">
        <ele>127</ele>
        <time>2013-01-13T11:02:02Z</time>
      </trkpt>
      <trkpt lat="48.90404" lon="2.0379">
        <ele>127</ele>
        <time>2013-01-13T11:02:05Z</time>
      </trkpt>
      <trkpt lat="48.90407" lon="2.03784">
        <ele>127</ele>
        <time>2013-01-13T11:02:10Z</time>
      </trkpt>
      <trkpt lat="48.90413" lon="2.03783">
        <ele>127</ele>
        <time>2013-01-13T11:02:17Z</time>
      </trkpt>
      <trkpt lat="48.90418" lon="2.03784">
        <ele>121</ele>
        <time>2013-01-13T11:02:20Z</time>
      </trkpt>
      <trkpt lat="48.90423" lon="2.03786">
        <ele>121</ele>
        <time>2013-01-13T11:02:25Z</time>
      </trkpt>
      <trkpt lat="48.90429" lon="2.03788">
        <ele>120</ele>
        <time>2013-01-13T11:02:29Z</time>
      </trkpt>
      <trkpt lat="48.90434" lon="2.03791">
        <ele>120</ele>
        <time>2013-01-13T11:02:33Z</time>
      </trkpt>
      <trkpt lat="48.90443" lon="2.03795">
        <ele>120</ele>
        <time>2013-01-13T11:02:42Z</time>
      </trkpt>
      <trkpt lat="48.9045" lon="2.03799">
        <ele>119</ele>
        <time>2013-01-13T11:02:47Z</time>
      </trkpt>
      <trkpt lat="48.90455" lon="2.038">
        <ele>119</ele>
        <time>2013-01-13T11:02:50Z</time>
      </trkpt>
      <trkpt lat="48.9046" lon="2.03803">
        <ele>119</ele>
        <time>2013-01-13T11:02:55Z</time>
      </trkpt>
      <trkpt lat="48.90464" lon="2.03806">
        <ele>118</ele>
        <time>2013-01-13T11:02:58Z</time>
      </trkpt>
      <trkpt lat="48.90469" lon="2.03813">
        <ele>118</ele>
        <time>2013-01-13T11:03:02Z</time>
      </trkpt>
      <trkpt lat="48.90472" lon="2.03819">
        <ele>118</ele>
        <time>2013-01-13T11:03:05Z</time>
      </trkpt>
      <trkpt lat="48.90476" lon="2.03824">
        <ele>117</ele>
        <time>2013-01-13T11:03:08Z</time>
      </trkpt>
      <trkpt lat="48.90482" lon="2.03838">
        <ele>115</ele>
        <time>2013-01-13T11:03:17Z</time>
      </trkpt>
      <trkpt lat="48.90487" lon="2.03843">
        <ele>114</ele>
        <time>2013-01-13T11:03:22Z</time>
      </trkpt>
      <trkpt lat="48.90491" lon="2.03844">
        <ele>114</ele>
        <time>2013-01-13T11:03:25Z</time>
      </trkpt>
      <trkpt lat="48.90496" lon="2.03847">
        <ele>114</ele>
        <time>2013-01-13T11:03:28Z</time>
      </trkpt>
      <trkpt lat="48.90501" lon="2.03848">
        <ele>111</ele>
        <time>2013-01-13T11:03:32Z</time>
      </trkpt>
      <trkpt lat="48.90508" lon="2.03852">
        <ele>110</ele>
        <time>2013-01-13T11:03:37Z</time>
      </trkpt>
      <trkpt lat="48.90514" lon="2.03854">
        <ele>110</ele>
        <time>2013-01-13T11:03:40Z</time>
      </trkpt>
      <trkpt lat="48.90519" lon="2.03855">
        <ele>110</ele>
        <time>2013-01-13T11:03:43Z</time>
      </trkpt>
      <trkpt lat="48.90524" lon="2.03856">
        <ele>109</ele>
        <time>2013-01-13T11:03:47Z</time>
      </trkpt>
      <trkpt lat="48.90529" lon="2.03859">
        <ele>109</ele>
        <time>2013-01-13T11:03:52Z</time>
      </trkpt>
      <trkpt lat="48.90533" lon="2.03864">
        <ele>109</ele>
        <time>2013-01-13T11:03:57Z</time>
      </trkpt>
      <trkpt lat="48.90537" lon="2.03868">
        <ele>109</ele>
        <time>2013-01-13T11:04:00Z</time>
      </trkpt>
      <trkpt lat="48.90542" lon="2.03873">
        <ele>108</ele>
        <time>2013-01-13T11:04:03Z</time>
      </trkpt>
      <trkpt lat="48.90546" lon="2.03881">
        <ele>108</ele>
        <time>2013-01-13T11:04:07Z</time>
      </trkpt>
      <trkpt lat="48.90548" lon="2.03897">
        <ele>107</ele>
        <time>2013-01-13T11:04:15Z</time>
      </trkpt>
      <trkpt lat="48.90551" lon="2.03903">
        <ele>107</ele>
        <time>2013-01-13T11:04:19Z</time>
      </trkpt>
      <trkpt lat="48.90555" lon="2.03906">
        <ele>107</ele>
        <time>2013-01-13T11:04:23Z</time>
      </trkpt>
      <trkpt lat="48.90559" lon="2.03911">
        <ele>106</ele>
        <time>2013-01-13T11:04:28Z</time>
      </trkpt>
      <trkpt lat="48.90563" lon="2.0392">
        <ele>104</ele>
        <time>2013-01-13T11:04:32Z</time>
      </trkpt>
      <trkpt lat="48.90569" lon="2.03929">
        <ele>104</ele>
        <time>2013-01-13T11:04:37Z</time>
      </trkpt>
      <trkpt lat="48.90572" lon="2.03934">
        <ele>104</ele>
        <time>2013-01-13T11:04:40Z</time>
      </trkpt>
      <trkpt lat="48.90576" lon="2.0394">
        <ele>104</ele>
        <time>2013-01-13T11:04:45Z</time>
      </trkpt>
      <trkpt lat="48.90576" lon="2.03933">
        <ele>104</ele>
        <time>2013-01-13T11:05:13Z</time>
      </trkpt>
      <trkpt lat="48.90578" lon="2.0394">
        <ele>104</ele>
        <time>2013-01-13T11:06:22Z</time>
      </trkpt>
      <trkpt lat="48.90583" lon="2.03942">
        <ele>104</ele>
        <time>2013-01-13T11:06:34Z</time>
      </trkpt>
      <trkpt lat="48.90588" lon="2.03944">
        <ele>100</ele>
        <time>2013-01-13T11:06:39Z</time>
      </trkpt>
      <trkpt lat="48.90593" lon="2.03948">
        <ele>100</ele>
        <time>2013-01-13T11:06:44Z</time>
      </trkpt>
      <trkpt lat="48.906" lon="2.03955">
        <ele>99</ele>
        <time>2013-01-13T11:06:47Z</time>
      </trkpt>
      <trkpt lat="48.90607" lon="2.03956">
        <ele>99</ele>
        <time>2013-01-13T11:06:52Z</time>
      </trkpt>
      <trkpt lat="48.90611" lon="2.03956">
        <ele>99</ele>
        <time>2013-01-13T11:06:55Z</time>
      </trkpt>
      <trkpt lat="48.90615" lon="2.03961">
        <ele>99</ele>
        <time>2013-01-13T11:07:00Z</time>
      </trkpt>
      <trkpt lat="48.90617" lon="2.03968">
        <ele>99</ele>
        <time>2013-01-13T11:07:05Z</time>
      </trkpt>
      <trkpt lat="48.90627" lon="2.03976">
        <ele>98</ele>
        <time>2013-01-13T11:07:14Z</time>
      </trkpt>
      <trkpt lat="48.90631" lon="2.03981">
        <ele>98</ele>
        <time>2013-01-13T11:07:18Z</time>
      </trkpt>
      <trkpt lat="48.90632" lon="2.03989">
        <ele>98</ele>
        <time>2013-01-13T11:07:24Z</time>
      </trkpt>
      <trkpt lat="48.90631" lon="2.03996">
        <ele>98</ele>
        <time>2013-01-13T11:07:27Z</time>
      </trkpt>
      <trkpt lat="48.90634" lon="2.04002">
        <ele>96</ele>
        <time>2013-01-13T11:07:32Z</time>
      </trkpt>
      <trkpt lat="48.90638" lon="2.04007">
        <ele>95</ele>
        <time>2013-01-13T11:07:35Z</time>
      </trkpt>
      <trkpt lat="48.90644" lon="2.04011">
        <ele>95</ele>
        <time>2013-01-13T11:07:42Z</time>
      </trkpt>
      <trkpt lat="48.90646" lon="2.04017">
        <ele>95</ele>
        <time>2013-01-13T11:07:45Z</time>
      </trkpt>
      <trkpt lat="48.90646" lon="2.04024">
        <ele>95</ele>
        <time>2013-01-13T11:07:50Z</time>
      </trkpt>
      <trkpt lat="48.90644" lon="2.04034">
        <ele>95</ele>
        <time>2013-01-13T11:07:53Z</time>
      </trkpt>
      <trkpt lat="48.90643" lon="2.04041">
        <ele>95</ele>
        <time>2013-01-13T11:07:59Z</time>
      </trkpt>
      <trkpt lat="48.90642" lon="2.04048">
        <ele>95</ele>
        <time>2013-01-13T11:08:02Z</time>
      </trkpt>
      <trkpt lat="48.90639" lon="2.04055">
        <ele>95</ele>
        <time>2013-01-13T11:08:04Z</time>
      </trkpt>
      <trkpt lat="48.90638" lon="2.04063">
        <ele>95</ele>
        <time>2013-01-13T11:08:07Z</time>
      </trkpt>
      <trkpt lat="48.90634" lon="2.04079">
        <ele>94</ele>
        <time>2013-01-13T11:08:17Z</time>
      </trkpt>
      <trkpt lat="48.90631" lon="2.04086">
        <ele>93</ele>
        <time>2013-01-13T11:08:19Z</time>
      </trkpt>
      <trkpt lat="48.90629" lon="2.04094">
        <ele>93</ele>
        <time>2013-01-13T11:08:22Z</time>
      </trkpt>
      <trkpt lat="48.90629" lon="2.04101">
        <ele>93</ele>
        <time>2013-01-13T11:08:28Z</time>
      </trkpt>
      <trkpt lat="48.90624" lon="2.04114">
        <ele>93</ele>
        <time>2013-01-13T11:08:32Z</time>
      </trkpt>
      <trkpt lat="48.90623" lon="2.04121">
        <ele>93</ele>
        <time>2013-01-13T11:08:35Z</time>
      </trkpt>
      <trkpt lat="48.90622" lon="2.0413">
        <ele>93</ele>
        <time>2013-01-13T11:08:42Z</time>
      </trkpt>
      <trkpt lat="48.90623" lon="2.04139">
        <ele>93</ele>
        <time>2013-01-13T11:08:45Z</time>
      </trkpt>
      <trkpt lat="48.90623" lon="2.04146">
        <ele>93</ele>
        <time>2013-01-13T11:08:47Z</time>
      </trkpt>
      <trkpt lat="48.90625" lon="2.04155">
        <ele>93</ele>
        <time>2013-01-13T11:08:50Z</time>
      </trkpt>
      <trkpt lat="48.90627" lon="2.04163">
        <ele>93</ele>
        <time>2013-01-13T11:08:55Z</time>
      </trkpt>
      <trkpt lat="48.9063" lon="2.04168">
        <ele>92</ele>
        <time>2013-01-13T11:09:00Z</time>
      </trkpt>
      <trkpt lat="48.90636" lon="2.0417">
        <ele>92</ele>
        <time>2013-01-13T11:09:05Z</time>
      </trkpt>
      <trkpt lat="48.90645" lon="2.04174">
        <ele>91</ele>
        <time>2013-01-13T11:09:12Z</time>
      </trkpt>
      <trkpt lat="48.9065" lon="2.04177">
        <ele>91</ele>
        <time>2013-01-13T11:09:15Z</time>
      </trkpt>
      <trkpt lat="48.90659" lon="2.04181">
        <ele>91</ele>
        <time>2013-01-13T11:09:22Z</time>
      </trkpt>
      <trkpt lat="48.90665" lon="2.04182">
        <ele>91</ele>
        <time>2013-01-13T11:09:25Z</time>
      </trkpt>
      <trkpt lat="48.9067" lon="2.0418">
        <ele>88</ele>
        <time>2013-01-13T11:09:29Z</time>
      </trkpt>
      <trkpt lat="48.90675" lon="2.04183">
        <ele>88</ele>
        <time>2013-01-13T11:09:34Z</time>
      </trkpt>
      <trkpt lat="48.9068" lon="2.04186">
        <ele>88</ele>
        <time>2013-01-13T11:09:39Z</time>
      </trkpt>
      <trkpt lat="48.90685" lon="2.04188">
        <ele>88</ele>
        <time>2013-01-13T11:09:44Z</time>
      </trkpt>
      <trkpt lat="48.90689" lon="2.04191">
        <ele>88</ele>
        <time>2013-01-13T11:09:47Z</time>
      </trkpt>
      <trkpt lat="48.90696" lon="2.04191">
        <ele>87</ele>
        <time>2013-01-13T11:09:52Z</time>
      </trkpt>
      <trkpt lat="48.90701" lon="2.04194">
        <ele>87</ele>
        <time>2013-01-13T11:09:55Z</time>
      </trkpt>
      <trkpt lat="48.90706" lon="2.04196">
        <ele>87</ele>
        <time>2013-01-13T11:09:57Z</time>
      </trkpt>
      <trkpt lat="48.90712" lon="2.04199">
        <ele>87</ele>
        <time>2013-01-13T11:10:00Z</time>
      </trkpt>
      <trkpt lat="48.90716" lon="2.04202">
        <ele>87</ele>
        <time>2013-01-13T11:10:05Z</time>
      </trkpt>
      <trkpt lat="48.90721" lon="2.04205">
        <ele>87</ele>
        <time>2013-01-13T11:10:08Z</time>
      </trkpt>
      <trkpt lat="48.90728" lon="2.04209">
        <ele>86</ele>
        <time>2013-01-13T11:10:12Z</time>
      </trkpt>
      <trkpt lat="48.90732" lon="2.04212">
        <ele>86</ele>
        <time>2013-01-13T11:10:17Z</time>
      </trkpt>
      <trkpt lat="48.90738" lon="2.04216">
        <ele>86</ele>
        <time>2013-01-13T11:10:20Z</time>
      </trkpt>
      <trkpt lat="48.90747" lon="2.04222">
        <ele>86</ele>
        <time>2013-01-13T11:10:27Z</time>
      </trkpt>
      <trkpt lat="48.90752" lon="2.04224">
        <ele>82</ele>
        <time>2013-01-13T11:10:29Z</time>
      </trkpt>
      <trkpt lat="48.90762" lon="2.04228">
        <ele>82</ele>
        <time>2013-01-13T11:10:38Z</time>
      </trkpt>
      <trkpt lat="48.90769" lon="2.04229">
        <ele>81</ele>
        <time>2013-01-13T11:10:42Z</time>
      </trkpt>
      <trkpt lat="48.90773" lon="2.04233">
        <ele>81</ele>
        <time>2013-01-13T11:10:47Z</time>
      </trkpt>
      <trkpt lat="48.90779" lon="2.04237">
        <ele>81</ele>
        <time>2013-01-13T11:10:52Z</time>
      </trkpt>
      <trkpt lat="48.90785" lon="2.04239">
        <ele>81</ele>
        <time>2013-01-13T11:10:57Z</time>
      </trkpt>
      <trkpt lat="48.9079" lon="2.04239">
        <ele>80</ele>
        <time>2013-01-13T11:11:00Z</time>
      </trkpt>
      <trkpt lat="48.90796" lon="2.04242">
        <ele>80</ele>
        <time>2013-01-13T11:11:07Z</time>
      </trkpt>
      <trkpt lat="48.90801" lon="2.04244">
        <ele>80</ele>
        <time>2013-01-13T11:11:10Z</time>
      </trkpt>
      <trkpt lat="48.90806" lon="2.04244">
        <ele>79</ele>
        <time>2013-01-13T11:11:13Z</time>
      </trkpt>
      <trkpt lat="48.90811" lon="2.04246">
        <ele>79</ele>
        <time>2013-01-13T11:11:17Z</time>
      </trkpt>
      <trkpt lat="48.90816" lon="2.04248">
        <ele>78</ele>
        <time>2013-01-13T11:11:20Z</time>
      </trkpt>
      <trkpt lat="48.90821" lon="2.04253">
        <ele>78</ele>
        <time>2013-01-13T11:11:24Z</time>
      </trkpt>
      <trkpt lat="48.90825" lon="2.04257">
        <ele>77</ele>
        <time>2013-01-13T11:11:28Z</time>
      </trkpt>
      <trkpt lat="48.90831" lon="2.0426">
        <ele>77</ele>
        <time>2013-01-13T11:11:32Z</time>
      </trkpt>
      <trkpt lat="48.90836" lon="2.04263">
        <ele>75</ele>
        <time>2013-01-13T11:11:35Z</time>
      </trkpt>
      <trkpt lat="48.90841" lon="2.04265">
        <ele>75</ele>
        <time>2013-01-13T11:11:39Z</time>
      </trkpt>
      <trkpt lat="48.90845" lon="2.04261">
        <ele>75</ele>
        <time>2013-01-13T11:11:43Z</time>
      </trkpt>
      <trkpt lat="48.90848" lon="2.04256">
        <ele>75</ele>
        <time>2013-01-13T11:11:50Z</time>
      </trkpt>
      <trkpt lat="48.90852" lon="2.04262">
        <ele>75</ele>
        <time>2013-01-13T11:11:57Z</time>
      </trkpt>
      <trkpt lat="48.90858" lon="2.04269">
        <ele>75</ele>
        <time>2013-01-13T11:12:02Z</time>
      </trkpt>
      <trkpt lat="48.90866" lon="2.04277">
        <ele>75</ele>
        <time>2013-01-13T11:12:09Z</time>
      </trkpt>
      <trkpt lat="48.9087" lon="2.04283">
        <ele>74</ele>
        <time>2013-01-13T11:12:13Z</time>
      </trkpt>
      <trkpt lat="48.90874" lon="2.04289">
        <ele>74</ele>
        <time>2013-01-13T11:12:17Z</time>
      </trkpt>
      <trkpt lat="48.90881" lon="2.04293">
        <ele>74</ele>
        <time>2013-01-13T11:12:22Z</time>
      </trkpt>
      <trkpt lat="48.90885" lon="2.04296">
        <ele>74</ele>
        <time>2013-01-13T11:12:25Z</time>
      </trkpt>
      <trkpt lat="48.9089" lon="2.04295">
        <ele>74</ele>
        <time>2013-01-13T11:12:29Z</time>
      </trkpt>
      <trkpt lat="48.90893" lon="2.04289">
        <ele>74</ele>
        <time>2013-01-13T11:12:33Z</time>
      </trkpt>
      <trkpt lat="48.90898" lon="2.04289">
        <ele>74</ele>
        <time>2013-01-13T11:12:45Z</time>
      </trkpt>
      <trkpt lat="48.90901" lon="2.04295">
        <ele>74</ele>
        <time>2013-01-13T11:12:50Z</time>
      </trkpt>
      <trkpt lat="48.90905" lon="2.04299">
        <ele>73</ele>
        <time>2013-01-13T11:12:54Z</time>
      </trkpt>
      <trkpt lat="48.9091" lon="2.04303">
        <ele>73</ele>
        <time>2013-01-13T11:12:57Z</time>
      </trkpt>
      <trkpt lat="48.90916" lon="2.04307">
        <ele>73</ele>
        <time>2013-01-13T11:13:02Z</time>
      </trkpt>
      <trkpt lat="48.90922" lon="2.04312">
        <ele>70</ele>
        <time>2013-01-13T11:13:07Z</time>
      </trkpt>
      <trkpt lat="48.90927" lon="2.04316">
        <ele>70</ele>
        <time>2013-01-13T11:13:12Z</time>
      </trkpt>
      <trkpt lat="48.90934" lon="2.04322">
        <ele>70</ele>
        <time>2013-01-13T11:13:17Z</time>
      </trkpt>
      <trkpt lat="48.90945" lon="2.04329">
        <ele>70</ele>
        <time>2013-01-13T11:13:27Z</time>
      </trkpt>
      <trkpt lat="48.90951" lon="2.04333">
        <ele>70</ele>
        <time>2013-01-13T11:13:30Z</time>
      </trkpt>
      <trkpt lat="48.90955" lon="2.04335">
        <ele>69</ele>
        <time>2013-01-13T11:13:33Z</time>
      </trkpt>
      <trkpt lat="48.90961" lon="2.04338">
        <ele>69</ele>
        <time>2013-01-13T11:13:39Z</time>
      </trkpt>
      <trkpt lat="48.90967" lon="2.04343">
        <ele>69</ele>
        <time>2013-01-13T11:13:42Z</time>
      </trkpt>
      <trkpt lat="48.90972" lon="2.04347">
        <ele>68</ele>
        <time>2013-01-13T11:13:45Z</time>
      </trkpt>
      <trkpt lat="48.90976" lon="2.04348">
        <ele>68</ele>
        <time>2013-01-13T11:13:50Z</time>
      </trkpt>
      <trkpt lat="48.90982" lon="2.04352">
        <ele>68</ele>
        <time>2013-01-13T11:13:53Z</time>
      </trkpt>
      <trkpt lat="48.90988" lon="2.04356">
        <ele>68</ele>
        <time>2013-01-13T11:13:57Z</time>
      </trkpt>
      <trkpt lat="48.90993" lon="2.04359">
        <ele>68</ele>
        <time>2013-01-13T11:14:02Z</time>
      </trkpt>
      <trkpt lat="48.90997" lon="2.04363">
        <ele>68</ele>
        <time>2013-01-13T11:14:05Z</time>
      </trkpt>
      <trkpt lat="48.91002" lon="2.04365">
        <ele>66</ele>
        <time>2013-01-13T11:14:09Z</time>
      </trkpt>
      <trkpt lat="48.91008" lon="2.04369">
        <ele>66</ele>
        <time>2013-01-13T11:14:13Z</time>
      </trkpt>
      <trkpt lat="48.91014" lon="2.04373">
        <ele>66</ele>
        <time>2013-01-13T11:14:17Z</time>
      </trkpt>
      <trkpt lat="48.91019" lon="2.04376">
        <ele>66</ele>
        <time>2013-01-13T11:14:22Z</time>
      </trkpt>
      <trkpt lat="48.91024" lon="2.0438">
        <ele>66</ele>
        <time>2013-01-13T11:14:25Z</time>
      </trkpt>
      <trkpt lat="48.91029" lon="2.04383">
        <ele>66</ele>
        <time>2013-01-13T11:14:29Z</time>
      </trkpt>
      <trkpt lat="48.91035" lon="2.04385">
        <ele>66</ele>
        <time>2013-01-13T11:14:33Z</time>
      </trkpt>
      <trkpt lat="48.9104" lon="2.04388">
        <ele>66</ele>
        <time>2013-01-13T11:14:37Z</time>
      </trkpt>
      <trkpt lat="48.91045" lon="2.04393">
        <ele>66</ele>
        <time>2013-01-13T11:14:40Z</time>
      </trkpt>
      <trkpt lat="48.9105" lon="2.04396">
        <ele>65</ele>
        <time>2013-01-13T11:14:44Z</time>
      </trkpt>
      <trkpt lat="48.91055" lon="2.044">
        <ele>65</ele>
        <time>2013-01-13T11:14:50Z</time>
      </trkpt>
      <trkpt lat="48.91059" lon="2.04402">
        <ele>65</ele>
        <time>2013-01-13T11:14:52Z</time>
      </trkpt>
      <trkpt lat="48.91064" lon="2.04405">
        <ele>65</ele>
        <time>2013-01-13T11:14:55Z</time>
      </trkpt>
      <trkpt lat="48.91069" lon="2.04409">
        <ele>65</ele>
        <time>2013-01-13T11:14:58Z</time>
      </trkpt>
      <trkpt lat="48.91074" lon="2.04411">
        <ele>65</ele>
        <time>2013-01-13T11:15:03Z</time>
      </trkpt>
      <trkpt lat="48.91081" lon="2.04414">
        <ele>64</ele>
        <time>2013-01-13T11:15:07Z</time>
      </trkpt>
      <trkpt lat="48.91086" lon="2.04416">
        <ele>64</ele>
        <time>2013-01-13T11:15:09Z</time>
      </trkpt>
      <trkpt lat="48.91091" lon="2.04418">
        <ele>64</ele>
        <time>2013-01-13T11:15:12Z</time>
      </trkpt>
      <trkpt lat="48.91096" lon="2.04421">
        <ele>64</ele>
        <time>2013-01-13T11:15:18Z</time>
      </trkpt>
      <trkpt lat="48.91104" lon="2.04426">
        <ele>63</ele>
        <time>2013-01-13T11:15:22Z</time>
      </trkpt>
      <trkpt lat="48.91108" lon="2.04429">
        <ele>63</ele>
        <time>2013-01-13T11:15:24Z</time>
      </trkpt>
      <trkpt lat="48.91117" lon="2.04432">
        <ele>63</ele>
        <time>2013-01-13T11:15:32Z</time>
      </trkpt>
      <trkpt lat="48.91124" lon="2.04435">
        <ele>63</ele>
        <time>2013-01-13T11:15:35Z</time>
      </trkpt>
      <trkpt lat="48.91129" lon="2.04436">
        <ele>63</ele>
        <time>2013-01-13T11:15:39Z</time>
      </trkpt>
      <trkpt lat="48.91134" lon="2.04438">
        <ele>63</ele>
        <time>2013-01-13T11:15:44Z</time>
      </trkpt>
      <trkpt lat="48.91141" lon="2.04442">
        <ele>63</ele>
        <time>2013-01-13T11:15:47Z</time>
      </trkpt>
      <trkpt lat="48.91145" lon="2.04445">
        <ele>63</ele>
        <time>2013-01-13T11:15:50Z</time>
      </trkpt>
      <trkpt lat="48.91152" lon="2.04446">
        <ele>63</ele>
        <time>2013-01-13T11:15:57Z</time>
      </trkpt>
      <trkpt lat="48.91156" lon="2.04449">
        <ele>63</ele>
        <time>2013-01-13T11:15:59Z</time>
      </trkpt>
      <trkpt lat="48.91162" lon="2.04453">
        <ele>63</ele>
        <time>2013-01-13T11:16:02Z</time>
      </trkpt>
      <trkpt lat="48.91167" lon="2.04453">
        <ele>63</ele>
        <time>2013-01-13T11:16:08Z</time>
      </trkpt>
      <trkpt lat="48.91172" lon="2.04456">
        <ele>63</ele>
        <time>2013-01-13T11:16:12Z</time>
      </trkpt>
      <trkpt lat="48.91177" lon="2.04457">
        <ele>63</ele>
        <time>2013-01-13T11:16:15Z</time>
      </trkpt>
      <trkpt lat="48.91182" lon="2.04458">
        <ele>63</ele>
        <time>2013-01-13T11:16:18Z</time>
      </trkpt>
      <trkpt lat="48.91187" lon="2.04458">
        <ele>63</ele>
        <time>2013-01-13T11:16:22Z</time>
      </trkpt>
      <trkpt lat="48.91193" lon="2.04464">
        <ele>63</ele>
        <time>2013-01-13T11:16:27Z</time>
      </trkpt>
      <trkpt lat="48.91199" lon="2.04466">
        <ele>63</ele>
        <time>2013-01-13T11:16:32Z</time>
      </trkpt>
      <trkpt lat="48.91205" lon="2.04467">
        <ele>63</ele>
        <time>2013-01-13T11:16:35Z</time>
      </trkpt>
      <trkpt lat="48.91214" lon="2.04463">
        <ele>63</ele>
        <time>2013-01-13T11:16:39Z</time>
      </trkpt>
      <trkpt lat="48.91217" lon="2.04458">
        <ele>63</ele>
        <time>2013-01-13T11:16:42Z</time>
      </trkpt>
      <trkpt lat="48.91223" lon="2.04442">
        <ele>64</ele>
        <time>2013-01-13T11:16:52Z</time>
      </trkpt>
      <trkpt lat="48.91229" lon="2.04431">
        <ele>64</ele>
        <time>2013-01-13T11:16:58Z</time>
      </trkpt>
      <trkpt lat="48.91233" lon="2.04424">
        <ele>64</ele>
        <time>2013-01-13T11:17:02Z</time>
      </trkpt>
      <trkpt lat="48.91235" lon="2.04416">
        <ele>64</ele>
        <time>2013-01-13T11:17:07Z</time>
      </trkpt>
      <trkpt lat="48.91239" lon="2.04411">
        <ele>64</ele>
        <time>2013-01-13T11:17:10Z</time>
      </trkpt>
      <trkpt lat="48.91242" lon="2.04404">
        <ele>64</ele>
        <time>2013-01-13T11:17:13Z</time>
      </trkpt>
      <trkpt lat="48.91249" lon="2.04393">
        <ele>64</ele>
        <time>2013-01-13T11:17:22Z</time>
      </trkpt>
      <trkpt lat="48.91252" lon="2.04387">
        <ele>65</ele>
        <time>2013-01-13T11:17:24Z</time>
      </trkpt>
      <trkpt lat="48.91256" lon="2.0438">
        <ele>65</ele>
        <time>2013-01-13T11:17:27Z</time>
      </trkpt>
      <trkpt lat="48.91259" lon="2.04372">
        <ele>64</ele>
        <time>2013-01-13T11:17:33Z</time>
      </trkpt>
      <trkpt lat="48.91263" lon="2.04366">
        <ele>64</ele>
        <time>2013-01-13T11:17:37Z</time>
      </trkpt>
      <trkpt lat="48.91265" lon="2.04358">
        <ele>64</ele>
        <time>2013-01-13T11:17:42Z</time>
      </trkpt>
      <trkpt lat="48.91268" lon="2.04352">
        <ele>64</ele>
        <time>2013-01-13T11:17:45Z</time>
      </trkpt>
      <trkpt lat="48.91271" lon="2.04345">
        <ele>64</ele>
        <time>2013-01-13T11:17:49Z</time>
      </trkpt>
      <trkpt lat="48.91275" lon="2.04339">
        <ele>64</ele>
        <time>2013-01-13T11:17:54Z</time>
      </trkpt>
      <trkpt lat="48.91279" lon="2.04333">
        <ele>64</ele>
        <time>2013-01-13T11:17:58Z</time>
      </trkpt>
      <trkpt lat="48.91284" lon="2.04328">
        <ele>64</ele>
        <time>2013-01-13T11:18:03Z</time>
      </trkpt>
      <trkpt lat="48.9129" lon="2.04317">
        <ele>63</ele>
        <time>2013-01-13T11:18:08Z</time>
      </trkpt>
      <trkpt lat="48.91293" lon="2.04311">
        <ele>63</ele>
        <time>2013-01-13T11:18:14Z</time>
      </trkpt>
      <trkpt lat="48.91296" lon="2.04304">
        <ele>63</ele>
        <time>2013-01-13T11:18:17Z</time>
      </trkpt>
      <trkpt lat="48.913" lon="2.04298">
        <ele>63</ele>
        <time>2013-01-13T11:18:19Z</time>
      </trkpt>
      <trkpt lat="48.91303" lon="2.04292">
        <ele>63</ele>
        <time>2013-01-13T11:18:22Z</time>
      </trkpt>
      <trkpt lat="48.91305" lon="2.04285">
        <ele>63</ele>
        <time>2013-01-13T11:18:28Z</time>
      </trkpt>
      <trkpt lat="48.91312" lon="2.04275">
        <ele>62</ele>
        <time>2013-01-13T11:18:32Z</time>
      </trkpt>
      <trkpt lat="48.91316" lon="2.0427">
        <ele>62</ele>
        <time>2013-01-13T11:18:35Z</time>
      </trkpt>
      <trkpt lat="48.91319" lon="2.04264">
        <ele>62</ele>
        <time>2013-01-13T11:18:40Z</time>
      </trkpt>
      <trkpt lat="48.91324" lon="2.04256">
        <ele>62</ele>
        <time>2013-01-13T11:18:43Z</time>
      </trkpt>
      <trkpt lat="48.91327" lon="2.04249">
        <ele>61</ele>
        <time>2013-01-13T11:18:47Z</time>
      </trkpt>
      <trkpt lat="48.9133" lon="2.04241">
        <ele>61</ele>
        <time>2013-01-13T11:18:53Z</time>
      </trkpt>
      <trkpt lat="48.91335" lon="2.04236">
        <ele>61</ele>
        <time>2013-01-13T11:18:55Z</time>
      </trkpt>
      <trkpt lat="48.91338" lon="2.0423">
        <ele>61</ele>
        <time>2013-01-13T11:18:58Z</time>
      </trkpt>
      <trkpt lat="48.91339" lon="2.04223">
        <ele>61</ele>
        <time>2013-01-13T11:19:03Z</time>
      </trkpt>
      <trkpt lat="48.91343" lon="2.04217">
        <ele>60</ele>
        <time>2013-01-13T11:19:05Z</time>
      </trkpt>
      <trkpt lat="48.91345" lon="2.0421">
        <ele>60</ele>
        <time>2013-01-13T11:19:10Z</time>
      </trkpt>
      <trkpt lat="48.91348" lon="2.04204">
        <ele>60</ele>
        <time>2013-01-13T11:19:14Z</time>
      </trkpt>
      <trkpt lat="48.9135" lon="2.04197">
        <ele>61</ele>
        <time>2013-01-13T11:19:20Z</time>
      </trkpt>
      <trkpt lat="48.91352" lon="2.0419">
        <ele>61</ele>
        <time>2013-01-13T11:19:25Z</time>
      </trkpt>
      <trkpt lat="48.91356" lon="2.04183">
        <ele>61</ele>
        <time>2013-01-13T11:19:30Z</time>
      </trkpt>
      <trkpt lat="48.9136" lon="2.04175">
        <ele>61</ele>
        <time>2013-01-13T11:19:37Z</time>
      </trkpt>
      <trkpt lat="48.91362" lon="2.04165">
        <ele>61</ele>
        <time>2013-01-13T11:19:42Z</time>
      </trkpt>
      <trkpt lat="48.91368" lon="2.04152">
        <ele>61</ele>
        <time>2013-01-13T11:19:47Z</time>
      </trkpt>
      <trkpt lat="48.9137" lon="2.04144">
        <ele>61</ele>
        <time>2013-01-13T11:19:53Z</time>
      </trkpt>
      <trkpt lat="48.9137" lon="2.04136">
        <ele>61</ele>
        <time>2013-01-13T11:19:57Z</time>
      </trkpt>
      <trkpt lat="48.91372" lon="2.0413">
        <ele>61</ele>
        <time>2013-01-13T11:20:00Z</time>
      </trkpt>
      <trkpt lat="48.91374" lon="2.04124">
        <ele>61</ele>
        <time>2013-01-13T11:20:03Z</time>
      </trkpt>
      <trkpt lat="48.91374" lon="2.04117">
        <ele>62</ele>
        <time>2013-01-13T11:20:08Z</time>
      </trkpt>
      <trkpt lat="48.91375" lon="2.0411">
        <ele>62</ele>
        <time>2013-01-13T11:20:10Z</time>
      </trkpt>
      <trkpt lat="48.91378" lon="2.04096">
        <ele>62</ele>
        <time>2013-01-13T11:20:17Z</time>
      </trkpt>
      <trkpt lat="48.91381" lon="2.04085">
        <ele>62</ele>
        <time>2013-01-13T11:20:22Z</time>
      </trkpt>
      <trkpt lat="48.91381" lon="2.04077">
        <ele>63</ele>
        <time>2013-01-13T11:20:27Z</time>
      </trkpt>
      <trkpt lat="48.91383" lon="2.04069">
        <ele>63</ele>
        <time>2013-01-13T11:20:30Z</time>
      </trkpt>
      <trkpt lat="48.91383" lon="2.04061">
        <ele>63</ele>
        <time>2013-01-13T11:20:34Z</time>
      </trkpt>
      <trkpt lat="48.91385" lon="2.04052">
        <ele>63</ele>
        <time>2013-01-13T11:20:38Z</time>
      </trkpt>
      <trkpt lat="48.91386" lon="2.04044">
        <ele>63</ele>
        <time>2013-01-13T11:20:42Z</time>
      </trkpt>
      <trkpt lat="48.91386" lon="2.04033">
        <ele>63</ele>
        <time>2013-01-13T11:20:47Z</time>
      </trkpt>
      <trkpt lat="48.91386" lon="2.04026">
        <ele>63</ele>
        <time>2013-01-13T11:20:50Z</time>
      </trkpt>
      <trkpt lat="48.91391" lon="2.04022">
        <ele>63</ele>
        <time>2013-01-13T11:20:55Z</time>
      </trkpt>
      <trkpt lat="48.91396" lon="2.0402">
        <ele>63</ele>
        <time>2013-01-13T11:20:58Z</time>
      </trkpt>
      <trkpt lat="48.91402" lon="2.04021">
        <ele>64</ele>
        <time>2013-01-13T11:21:03Z</time>
      </trkpt>
      <trkpt lat="48.91407" lon="2.04022">
        <ele>64</ele>
        <time>2013-01-13T11:21:07Z</time>
      </trkpt>
      <trkpt lat="48.91412" lon="2.04019">
        <ele>64</ele>
        <time>2013-01-13T11:21:12Z</time>
      </trkpt>
      <trkpt lat="48.91418" lon="2.04013">
        <ele>65</ele>
        <time>2013-01-13T11:21:17Z</time>
      </trkpt>
      <trkpt lat="48.91424" lon="2.04002">
        <ele>65</ele>
        <time>2013-01-13T11:21:28Z</time>
      </trkpt>
      <trkpt lat="48.9143" lon="2.04003">
        <ele>65</ele>
        <time>2013-01-13T11:21:33Z</time>
      </trkpt>
      <trkpt lat="48.91437" lon="2.04004">
        <ele>65</ele>
        <time>2013-01-13T11:21:37Z</time>
      </trkpt>
      <trkpt lat="48.91441" lon="2.04002">
        <ele>65</ele>
        <time>2013-01-13T11:21:43Z</time>
      </trkpt>
      <trkpt lat="48.91449" lon="2.04004">
        <ele>65</ele>
        <time>2013-01-13T11:21:47Z</time>
      </trkpt>
      <trkpt lat="48.91454" lon="2.04006">
        <ele>65</ele>
        <time>2013-01-13T11:21:49Z</time>
      </trkpt>
      <trkpt lat="48.91462" lon="2.04007">
        <ele>66</ele>
        <time>2013-01-13T11:21:52Z</time>
      </trkpt>
      <trkpt lat="48.91474" lon="2.04007">
        <ele>66</ele>
        <time>2013-01-13T11:22:02Z</time>
      </trkpt>
      <trkpt lat="48.91479" lon="2.04008">
        <ele>66</ele>
        <time>2013-01-13T11:22:04Z</time>
      </trkpt>
      <trkpt lat="48.91487" lon="2.04011">
        <ele>66</ele>
        <time>2013-01-13T11:22:07Z</time>
      </trkpt>
      <trkpt lat="48.91492" lon="2.0401">
        <ele>66</ele>
        <time>2013-01-13T11:22:12Z</time>
      </trkpt>
      <trkpt lat="48.91497" lon="2.04009">
        <ele>66</ele>
        <time>2013-01-13T11:22:17Z</time>
      </trkpt>
      <trkpt lat="48.91509" lon="2.04009">
        <ele>67</ele>
        <time>2013-01-13T11:22:22Z</time>
      </trkpt>
      <trkpt lat="48.91515" lon="2.04008">
        <ele>67</ele>
        <time>2013-01-13T11:22:25Z</time>
      </trkpt>
      <trkpt lat="48.91518" lon="2.04002">
        <ele>68</ele>
        <time>2013-01-13T11:22:32Z</time>
      </trkpt>
      <trkpt lat="48.91525" lon="2.04001">
        <ele>68</ele>
        <time>2013-01-13T11:22:37Z</time>
      </trkpt>
      <trkpt lat="48.9153" lon="2.04">
        <ele>68</ele>
        <time>2013-01-13T11:22:39Z</time>
      </trkpt>
      <trkpt lat="48.91538" lon="2.04">
        <ele>68</ele>
        <time>2013-01-13T11:22:42Z</time>
      </trkpt>
      <trkpt lat="48.91543" lon="2.04">
        <ele>68</ele>
        <time>2013-01-13T11:22:44Z</time>
      </trkpt>
      <trkpt lat="48.91549" lon="2.03998">
        <ele>68</ele>
        <time>2013-01-13T11:22:47Z</time>
      </trkpt>
      <trkpt lat="48.91553" lon="2.03995">
        <ele>68</ele>
        <time>2013-01-13T11:22:55Z</time>
      </trkpt>
      <trkpt lat="48.91559" lon="2.03995">
        <ele>68</ele>
        <time>2013-01-13T11:22:59Z</time>
      </trkpt>
      <trkpt lat="48.91567" lon="2.03995">
        <ele>68</ele>
        <time>2013-01-13T11:23:02Z</time>
      </trkpt>
      <trkpt lat="48.91572" lon="2.03995">
        <ele>69</ele>
        <time>2013-01-13T11:23:04Z</time>
      </trkpt>
      <trkpt lat="48.91579" lon="2.03994">
        <ele>69</ele>
        <time>2013-01-13T11:23:07Z</time>
      </trkpt>
      <trkpt lat="48.91582" lon="2.03989">
        <ele>69</ele>
        <time>2013-01-13T11:23:13Z</time>
      </trkpt>
      <trkpt lat="48.91587" lon="2.03987">
        <ele>69</ele>
        <time>2013-01-13T11:23:17Z</time>
      </trkpt>
      <trkpt lat="48.91593" lon="2.03986">
        <ele>69</ele>
        <time>2013-01-13T11:23:20Z</time>
      </trkpt>
      <trkpt lat="48.91604" lon="2.03986">
        <ele>69</ele>
        <time>2013-01-13T11:23:25Z</time>
      </trkpt>
      <trkpt lat="48.91609" lon="2.03984">
        <ele>69</ele>
        <time>2013-01-13T11:23:28Z</time>
      </trkpt>
      <trkpt lat="48.91613" lon="2.0398">
        <ele>70</ele>
        <time>2013-01-13T11:23:35Z</time>
      </trkpt>
      <trkpt lat="48.91618" lon="2.0398">
        <ele>70</ele>
        <time>2013-01-13T11:23:38Z</time>
      </trkpt>
      <trkpt lat="48.91623" lon="2.03979">
        <ele>70</ele>
        <time>2013-01-13T11:23:40Z</time>
      </trkpt>
      <trkpt lat="48.91628" lon="2.03979">
        <ele>70</ele>
        <time>2013-01-13T11:23:42Z</time>
      </trkpt>
      <trkpt lat="48.91633" lon="2.03979">
        <ele>70</ele>
        <time>2013-01-13T11:23:44Z</time>
      </trkpt>
      <trkpt lat="48.91639" lon="2.03977">
        <ele>70</ele>
        <time>2013-01-13T11:23:47Z</time>
      </trkpt>
      <trkpt lat="48.91643" lon="2.03972">
        <ele>70</ele>
        <time>2013-01-13T11:23:54Z</time>
      </trkpt>
      <trkpt lat="48.91649" lon="2.03971">
        <ele>70</ele>
        <time>2013-01-13T11:23:57Z</time>
      </trkpt>
      <trkpt lat="48.91655" lon="2.03971">
        <ele>70</ele>
        <time>2013-01-13T11:23:59Z</time>
      </trkpt>
      <trkpt lat="48.91662" lon="2.03971">
        <ele>70</ele>
        <time>2013-01-13T11:24:02Z</time>
      </trkpt>
      <trkpt lat="48.91674" lon="2.03969">
        <ele>71</ele>
        <time>2013-01-13T11:24:12Z</time>
      </trkpt>
      <trkpt lat="48.91678" lon="2.0397">
        <ele>71</ele>
        <time>2013-01-13T11:24:23Z</time>
      </trkpt>
      <trkpt lat="48.91681" lon="2.03975">
        <ele>71</ele>
        <time>2013-01-13T11:25:40Z</time>
      </trkpt>
      <trkpt lat="48.91687" lon="2.03983">
        <ele>71</ele>
        <time>2013-01-13T11:26:10Z</time>
      </trkpt>
      <trkpt lat="48.91691" lon="2.03982">
        <ele>71</ele>
        <time>2013-01-13T11:26:37Z</time>
      </trkpt>
      <trkpt lat="48.91694" lon="2.03989">
        <ele>71</ele>
        <time>2013-01-13T11:26:42Z</time>
      </trkpt>
      <trkpt lat="48.91696" lon="2.03997">
        <ele>72</ele>
        <time>2013-01-13T11:26:47Z</time>
      </trkpt>
      <trkpt lat="48.91692" lon="2.03992">
        <ele>72</ele>
        <time>2013-01-13T11:27:13Z</time>
      </trkpt>
      <trkpt lat="48.91689" lon="2.03986">
        <ele>71</ele>
        <time>2013-01-13T11:27:24Z</time>
      </trkpt>
      <trkpt lat="48.91695" lon="2.03996">
        <ele>72</ele>
        <time>2013-01-13T11:31:00Z</time>
      </trkpt>
      <trkpt lat="48.91697" lon="2.04004">
        <ele>72</ele>
        <time>2013-01-13T11:31:04Z</time>
      </trkpt>
      <trkpt lat="48.91699" lon="2.04012">
        <ele>72</ele>
        <time>2013-01-13T11:31:08Z</time>
      </trkpt>
      <trkpt lat="48.91699" lon="2.04021">
        <ele>73</ele>
        <time>2013-01-13T11:31:12Z</time>
      </trkpt>
      <trkpt lat="48.91701" lon="2.04027">
        <ele>73</ele>
        <time>2013-01-13T11:31:15Z</time>
      </trkpt>
      <trkpt lat="48.91703" lon="2.04034">
        <ele>73</ele>
        <time>2013-01-13T11:31:19Z</time>
      </trkpt>
      <trkpt lat="48.91704" lon="2.04041">
        <ele>73</ele>
        <time>2013-01-13T11:31:24Z</time>
      </trkpt>
      <trkpt lat="48.91705" lon="2.04048">
        <ele>73</ele>
        <time>2013-01-13T11:31:28Z</time>
      </trkpt>
      <trkpt lat="48.91706" lon="2.04058">
        <ele>73</ele>
        <time>2013-01-13T11:31:34Z</time>
      </trkpt>
      <trkpt lat="48.91702" lon="2.04066">
        <ele>73</ele>
        <time>2013-01-13T11:31:37Z</time>
      </trkpt>
      <trkpt lat="48.91698" lon="2.04073">
        <ele>73</ele>
        <time>2013-01-13T11:31:40Z</time>
      </trkpt>
      <trkpt lat="48.91697" lon="2.04081">
        <ele>73</ele>
        <time>2013-01-13T11:31:44Z</time>
      </trkpt>
      <trkpt lat="48.91693" lon="2.04086">
        <ele>74</ele>
        <time>2013-01-13T11:31:47Z</time>
      </trkpt>
      <trkpt lat="48.9169" lon="2.04093">
        <ele>74</ele>
        <time>2013-01-13T11:31:50Z</time>
      </trkpt>
      <trkpt lat="48.91691" lon="2.041">
        <ele>74</ele>
        <time>2013-01-13T11:31:53Z</time>
      </trkpt>
      <trkpt lat="48.91692" lon="2.04107">
        <ele>74</ele>
        <time>2013-01-13T11:31:57Z</time>
      </trkpt>
      <trkpt lat="48.91692" lon="2.04117">
        <ele>74</ele>
        <time>2013-01-13T11:32:00Z</time>
      </trkpt>
      <trkpt lat="48.91688" lon="2.04126">
        <ele>74</ele>
        <time>2013-01-13T11:32:02Z</time>
      </trkpt>
      <trkpt lat="48.91685" lon="2.04133">
        <ele>74</ele>
        <time>2013-01-13T11:32:04Z</time>
      </trkpt>
      <trkpt lat="48.91682" lon="2.0414">
        <ele>74</ele>
        <time>2013-01-13T11:32:07Z</time>
      </trkpt>
      <trkpt lat="48.91681" lon="2.0415">
        <ele>74</ele>
        <time>2013-01-13T11:32:12Z</time>
      </trkpt>
      <trkpt lat="48.91677" lon="2.04158">
        <ele>74</ele>
        <time>2013-01-13T11:32:17Z</time>
      </trkpt>
      <trkpt lat="48.91674" lon="2.04165">
        <ele>75</ele>
        <time>2013-01-13T11:32:20Z</time>
      </trkpt>
      <trkpt lat="48.91673" lon="2.04172">
        <ele>75</ele>
        <time>2013-01-13T11:32:24Z</time>
      </trkpt>
      <trkpt lat="48.91671" lon="2.04179">
        <ele>75</ele>
        <time>2013-01-13T11:32:27Z</time>
      </trkpt>
      <trkpt lat="48.91669" lon="2.04189">
        <ele>75</ele>
        <time>2013-01-13T11:32:30Z</time>
      </trkpt>
      <trkpt lat="48.91666" lon="2.04195">
        <ele>74</ele>
        <time>2013-01-13T11:32:32Z</time>
      </trkpt>
      <trkpt lat="48.91664" lon="2.04202">
        <ele>74</ele>
        <time>2013-01-13T11:32:39Z</time>
      </trkpt>
      <trkpt lat="48.91661" lon="2.04208">
        <ele>74</ele>
        <time>2013-01-13T11:32:42Z</time>
      </trkpt>
      <trkpt lat="48.91658" lon="2.04214">
        <ele>74</ele>
        <time>2013-01-13T11:32:45Z</time>
      </trkpt>
      <trkpt lat="48.91656" lon="2.04221">
        <ele>74</ele>
        <time>2013-01-13T11:32:48Z</time>
      </trkpt>
      <trkpt lat="48.91655" lon="2.04228">
        <ele>74</ele>
        <time>2013-01-13T11:32:53Z</time>
      </trkpt>
      <trkpt lat="48.91651" lon="2.04236">
        <ele>74</ele>
        <time>2013-01-13T11:32:57Z</time>
      </trkpt>
      <trkpt lat="48.91649" lon="2.04245">
        <ele>74</ele>
        <time>2013-01-13T11:32:59Z</time>
      </trkpt>
      <trkpt lat="48.91647" lon="2.04253">
        <ele>74</ele>
        <time>2013-01-13T11:33:02Z</time>
      </trkpt>
      <trkpt lat="48.91645" lon="2.04263">
        <ele>74</ele>
        <time>2013-01-13T11:33:07Z</time>
      </trkpt>
      <trkpt lat="48.91642" lon="2.0427">
        <ele>74</ele>
        <time>2013-01-13T11:33:10Z</time>
      </trkpt>
      <trkpt lat="48.9164" lon="2.04276">
        <ele>74</ele>
        <time>2013-01-13T11:33:13Z</time>
      </trkpt>
      <trkpt lat="48.91638" lon="2.04283">
        <ele>74</ele>
        <time>2013-01-13T11:33:18Z</time>
      </trkpt>
      <trkpt lat="48.91642" lon="2.04288">
        <ele>74</ele>
        <time>2013-01-13T11:33:22Z</time>
      </trkpt>
      <trkpt lat="48.91645" lon="2.04293">
        <ele>75</ele>
        <time>2013-01-13T11:33:25Z</time>
      </trkpt>
      <trkpt lat="48.91649" lon="2.043">
        <ele>75</ele>
        <time>2013-01-13T11:33:29Z</time>
      </trkpt>
      <trkpt lat="48.91652" lon="2.04306">
        <ele>75</ele>
        <time>2013-01-13T11:33:35Z</time>
      </trkpt>
      <trkpt lat="48.91656" lon="2.04311">
        <ele>75</ele>
        <time>2013-01-13T11:33:38Z</time>
      </trkpt>
      <trkpt lat="48.91661" lon="2.04319">
        <ele>75</ele>
        <time>2013-01-13T11:33:42Z</time>
      </trkpt>
      <trkpt lat="48.91665" lon="2.04326">
        <ele>76</ele>
        <time>2013-01-13T11:33:47Z</time>
      </trkpt>
      <trkpt lat="48.91669" lon="2.04334">
        <ele>76</ele>
        <time>2013-01-13T11:33:50Z</time>
      </trkpt>
      <trkpt lat="48.91673" lon="2.04342">
        <ele>76</ele>
        <time>2013-01-13T11:33:53Z</time>
      </trkpt>
      <trkpt lat="48.91677" lon="2.0435">
        <ele>77</ele>
        <time>2013-01-13T11:33:57Z</time>
      </trkpt>
      <trkpt lat="48.91679" lon="2.04357">
        <ele>77</ele>
        <time>2013-01-13T11:34:03Z</time>
      </trkpt>
      <trkpt lat="48.91683" lon="2.04367">
        <ele>77</ele>
        <time>2013-01-13T11:34:07Z</time>
      </trkpt>
      <trkpt lat="48.91686" lon="2.04374">
        <ele>77</ele>
        <time>2013-01-13T11:34:09Z</time>
      </trkpt>
      <trkpt lat="48.91689" lon="2.0438">
        <ele>77</ele>
        <time>2013-01-13T11:34:13Z</time>
      </trkpt>
      <trkpt lat="48.91692" lon="2.04387">
        <ele>77</ele>
        <time>2013-01-13T11:34:17Z</time>
      </trkpt>
      <trkpt lat="48.91698" lon="2.04402">
        <ele>77</ele>
        <time>2013-01-13T11:34:22Z</time>
      </trkpt>
      <trkpt lat="48.91702" lon="2.04406">
        <ele>77</ele>
        <time>2013-01-13T11:34:25Z</time>
      </trkpt>
      <trkpt lat="48.91704" lon="2.04414">
        <ele>77</ele>
        <time>2013-01-13T11:34:33Z</time>
      </trkpt>
      <trkpt lat="48.91706" lon="2.04421">
        <ele>76</ele>
        <time>2013-01-13T11:34:35Z</time>
      </trkpt>
      <trkpt lat="48.9171" lon="2.04428">
        <ele>76</ele>
        <time>2013-01-13T11:34:37Z</time>
      </trkpt>
      <trkpt lat="48.91713" lon="2.04435">
        <ele>76</ele>
        <time>2013-01-13T11:34:40Z</time>
      </trkpt>
      <trkpt lat="48.91718" lon="2.0444">
        <ele>76</ele>
        <time>2013-01-13T11:34:44Z</time>
      </trkpt>
      <trkpt lat="48.91722" lon="2.04446">
        <ele>76</ele>
        <time>2013-01-13T11:34:48Z</time>
      </trkpt>
      <trkpt lat="48.91726" lon="2.04452">
        <ele>76</ele>
        <time>2013-01-13T11:34:52Z</time>
      </trkpt>
      <trkpt lat="48.91727" lon="2.0446">
        <ele>76</ele>
        <time>2013-01-13T11:34:55Z</time>
      </trkpt>
      <trkpt lat="48.91728" lon="2.04467">
        <ele>76</ele>
        <time>2013-01-13T11:34:59Z</time>
      </trkpt>
      <trkpt lat="48.9173" lon="2.04473">
        <ele>76</ele>
        <time>2013-01-13T11:35:02Z</time>
      </trkpt>
      <trkpt lat="48.91731" lon="2.04481">
        <ele>76</ele>
        <time>2013-01-13T11:35:04Z</time>
      </trkpt>
      <trkpt lat="48.91734" lon="2.04489">
        <ele>75</ele>
        <time>2013-01-13T11:35:08Z</time>
      </trkpt>
      <trkpt lat="48.91737" lon="2.04496">
        <ele>75</ele>
        <time>2013-01-13T11:35:12Z</time>
      </trkpt>
      <trkpt lat="48.91741" lon="2.04501">
        <ele>75</ele>
        <time>2013-01-13T11:35:18Z</time>
      </trkpt>
      <trkpt lat="48.91744" lon="2.0451">
        <ele>75</ele>
        <time>2013-01-13T11:35:22Z</time>
      </trkpt>
      <trkpt lat="48.91746" lon="2.04519">
        <ele>74</ele>
        <time>2013-01-13T11:35:27Z</time>
      </trkpt>
      <trkpt lat="48.9175" lon="2.04524">
        <ele>74</ele>
        <time>2013-01-13T11:35:32Z</time>
      </trkpt>
      <trkpt lat="48.91752" lon="2.04531">
        <ele>73</ele>
        <time>2013-01-13T11:35:35Z</time>
      </trkpt>
      <trkpt lat="48.91755" lon="2.04537">
        <ele>73</ele>
        <time>2013-01-13T11:35:37Z</time>
      </trkpt>
      <trkpt lat="48.91758" lon="2.04544">
        <ele>73</ele>
        <time>2013-01-13T11:35:40Z</time>
      </trkpt>
      <trkpt lat="48.91761" lon="2.0455">
        <ele>73</ele>
        <time>2013-01-13T11:35:43Z</time>
      </trkpt>
      <trkpt lat="48.91765" lon="2.04555">
        <ele>73</ele>
        <time>2013-01-13T11:35:48Z</time>
      </trkpt>
      <trkpt lat="48.91772" lon="2.04564">
        <ele>73</ele>
        <time>2013-01-13T11:35:52Z</time>
      </trkpt>
      <trkpt lat="48.91774" lon="2.04571">
        <ele>73</ele>
        <time>2013-01-13T11:35:54Z</time>
      </trkpt>
      <trkpt lat="48.91776" lon="2.04577">
        <ele>73</ele>
        <time>2013-01-13T11:35:57Z</time>
      </trkpt>
      <trkpt lat="48.91779" lon="2.04585">
        <ele>71</ele>
        <time>2013-01-13T11:36:02Z</time>
      </trkpt>
      <trkpt lat="48.91783" lon="2.04594">
        <ele>71</ele>
        <time>2013-01-13T11:36:07Z</time>
      </trkpt>
      <trkpt lat="48.91785" lon="2.04601">
        <ele>71</ele>
        <time>2013-01-13T11:36:09Z</time>
      </trkpt>
      <trkpt lat="48.91787" lon="2.04611">
        <ele>71</ele>
        <time>2013-01-13T11:36:12Z</time>
      </trkpt>
      <trkpt lat="48.9179" lon="2.04618">
        <ele>71</ele>
        <time>2013-01-13T11:36:15Z</time>
      </trkpt>
      <trkpt lat="48.91794" lon="2.04625">
        <ele>70</ele>
        <time>2013-01-13T11:36:22Z</time>
      </trkpt>
      <trkpt lat="48.91798" lon="2.04631">
        <ele>70</ele>
        <time>2013-01-13T11:36:25Z</time>
      </trkpt>
      <trkpt lat="48.91801" lon="2.04637">
        <ele>70</ele>
        <time>2013-01-13T11:36:28Z</time>
      </trkpt>
      <trkpt lat="48.91805" lon="2.04645">
        <ele>70</ele>
        <time>2013-01-13T11:36:33Z</time>
      </trkpt>
      <trkpt lat="48.91808" lon="2.04651">
        <ele>70</ele>
        <time>2013-01-13T11:36:37Z</time>
      </trkpt>
      <trkpt lat="48.91811" lon="2.04656">
        <ele>70</ele>
        <time>2013-01-13T11:36:40Z</time>
      </trkpt>
      <trkpt lat="48.91814" lon="2.04663">
        <ele>70</ele>
        <time>2013-01-13T11:36:43Z</time>
      </trkpt>
      <trkpt lat="48.91816" lon="2.04671">
        <ele>70</ele>
        <time>2013-01-13T11:36:48Z</time>
      </trkpt>
      <trkpt lat="48.91819" lon="2.04676">
        <ele>70</ele>
        <time>2013-01-13T11:36:52Z</time>
      </trkpt>
      <trkpt lat="48.91823" lon="2.04683">
        <ele>70</ele>
        <time>2013-01-13T11:36:55Z</time>
      </trkpt>
      <trkpt lat="48.91825" lon="2.0469">
        <ele>70</ele>
        <time>2013-01-13T11:36:59Z</time>
      </trkpt>
      <trkpt lat="48.91829" lon="2.04696">
        <ele>70</ele>
        <time>2013-01-13T11:37:03Z</time>
      </trkpt>
      <trkpt lat="48.9183" lon="2.04707">
        <ele>70</ele>
        <time>2013-01-13T11:37:07Z</time>
      </trkpt>
      <trkpt lat="48.91832" lon="2.04717">
        <ele>71</ele>
        <time>2013-01-13T11:37:10Z</time>
      </trkpt>
      <trkpt lat="48.91836" lon="2.04724">
        <ele>71</ele>
        <time>2013-01-13T11:37:13Z</time>
      </trkpt>
      <trkpt lat="48.9184" lon="2.04727">
        <ele>71</ele>
        <time>2013-01-13T11:37:17Z</time>
      </trkpt>
      <trkpt lat="48.91845" lon="2.04733">
        <ele>71</ele>
        <time>2013-01-13T11:37:22Z</time>
      </trkpt>
      <trkpt lat="48.91849" lon="2.0474">
        <ele>71</ele>
        <time>2013-01-13T11:37:24Z</time>
      </trkpt>
      <trkpt lat="48.91853" lon="2.04748">
        <ele>71</ele>
        <time>2013-01-13T11:37:27Z</time>
      </trkpt>
      <trkpt lat="48.91856" lon="2.04754">
        <ele>71</ele>
        <time>2013-01-13T11:37:32Z</time>
      </trkpt>
      <trkpt lat="48.9186" lon="2.0476">
        <ele>71</ele>
        <time>2013-01-13T11:37:35Z</time>
      </trkpt>
      <trkpt lat="48.91864" lon="2.04766">
        <ele>71</ele>
        <time>2013-01-13T11:37:38Z</time>
      </trkpt>
      <trkpt lat="48.91864" lon="2.04775">
        <ele>71</ele>
        <time>2013-01-13T11:37:43Z</time>
      </trkpt>
      <trkpt lat="48.91868" lon="2.04781">
        <ele>71</ele>
        <time>2013-01-13T11:37:47Z</time>
      </trkpt>
      <trkpt lat="48.91872" lon="2.04785">
        <ele>71</ele>
        <time>2013-01-13T11:37:52Z</time>
      </trkpt>
      <trkpt lat="48.91872" lon="2.04778">
        <ele>71</ele>
        <time>2013-01-13T11:38:05Z</time>
      </trkpt>
      <trkpt lat="48.91875" lon="2.04773">
        <ele>71</ele>
        <time>2013-01-13T11:38:47Z</time>
      </trkpt>
      <trkpt lat="48.91873" lon="2.04781">
        <ele>71</ele>
        <time>2013-01-13T11:38:52Z</time>
      </trkpt>
      <trkpt lat="48.91869" lon="2.04788">
        <ele>71</ele>
        <time>2013-01-13T11:38:55Z</time>
      </trkpt>
      <trkpt lat="48.91871" lon="2.04795">
        <ele>71</ele>
        <time>2013-01-13T11:38:57Z</time>
      </trkpt>
      <trkpt lat="48.91874" lon="2.04802">
        <ele>71</ele>
        <time>2013-01-13T11:38:59Z</time>
      </trkpt>
      <trkpt lat="48.9188" lon="2.04809">
        <ele>71</ele>
        <time>2013-01-13T11:39:02Z</time>
      </trkpt>
      <trkpt lat="48.91885" lon="2.04813">
        <ele>71</ele>
        <time>2013-01-13T11:39:04Z</time>
      </trkpt>
      <trkpt lat="48.91891" lon="2.04822">
        <ele>70</ele>
        <time>2013-01-13T11:39:07Z</time>
      </trkpt>
      <trkpt lat="48.91894" lon="2.0483">
        <ele>70</ele>
        <time>2013-01-13T11:39:09Z</time>
      </trkpt>
      <trkpt lat="48.91901" lon="2.04841">
        <ele>69</ele>
        <time>2013-01-13T11:39:12Z</time>
      </trkpt>
      <trkpt lat="48.91905" lon="2.04848">
        <ele>69</ele>
        <time>2013-01-13T11:39:14Z</time>
      </trkpt>
      <trkpt lat="48.91911" lon="2.04859">
        <ele>69</ele>
        <time>2013-01-13T11:39:17Z</time>
      </trkpt>
      <trkpt lat="48.91914" lon="2.04865">
        <ele>69</ele>
        <time>2013-01-13T11:39:19Z</time>
      </trkpt>
      <trkpt lat="48.9192" lon="2.04872">
        <ele>68</ele>
        <time>2013-01-13T11:39:22Z</time>
      </trkpt>
      <trkpt lat="48.91925" lon="2.04872">
        <ele>68</ele>
        <time>2013-01-13T11:39:25Z</time>
      </trkpt>
      <trkpt lat="48.91928" lon="2.04876">
        <ele>68</ele>
        <time>2013-01-13T11:39:28Z</time>
      </trkpt>
      <trkpt lat="48.91934" lon="2.04878">
        <ele>68</ele>
        <time>2013-01-13T11:39:33Z</time>
      </trkpt>
      <trkpt lat="48.9194" lon="2.04877">
        <ele>68</ele>
        <time>2013-01-13T11:39:44Z</time>
      </trkpt>
      <trkpt lat="48.91944" lon="2.04874">
        <ele>68</ele>
        <time>2013-01-13T11:39:48Z</time>
      </trkpt>
      <trkpt lat="48.91947" lon="2.04868">
        <ele>68</ele>
        <time>2013-01-13T11:39:53Z</time>
      </trkpt>
      <trkpt lat="48.91954" lon="2.0486">
        <ele>68</ele>
        <time>2013-01-13T11:39:57Z</time>
      </trkpt>
      <trkpt lat="48.91959" lon="2.04856">
        <ele>68</ele>
        <time>2013-01-13T11:40:00Z</time>
      </trkpt>
      <trkpt lat="48.91962" lon="2.04849">
        <ele>68</ele>
        <time>2013-01-13T11:40:04Z</time>
      </trkpt>
      <trkpt lat="48.91965" lon="2.04843">
        <ele>68</ele>
        <time>2013-01-13T11:40:07Z</time>
      </trkpt>
      <trkpt lat="48.91969" lon="2.04838">
        <ele>68</ele>
        <time>2013-01-13T11:40:12Z</time>
      </trkpt>
      <trkpt lat="48.91976" lon="2.04829">
        <ele>70</ele>
        <time>2013-01-13T11:40:20Z</time>
      </trkpt>
      <trkpt lat="48.9198" lon="2.04823">
        <ele>69</ele>
        <time>2013-01-13T11:40:24Z</time>
      </trkpt>
      <trkpt lat="48.91986" lon="2.04819">
        <ele>69</ele>
        <time>2013-01-13T11:40:28Z</time>
      </trkpt>
      <trkpt lat="48.9199" lon="2.04815">
        <ele>70</ele>
        <time>2013-01-13T11:40:32Z</time>
      </trkpt>
      <trkpt lat="48.91994" lon="2.04807">
        <ele>70</ele>
        <time>2013-01-13T11:40:37Z</time>
      </trkpt>
      <trkpt lat="48.91997" lon="2.04802">
        <ele>70</ele>
        <time>2013-01-13T11:40:39Z</time>
      </trkpt>
      <trkpt lat="48.92001" lon="2.04797">
        <ele>71</ele>
        <time>2013-01-13T11:40:43Z</time>
      </trkpt>
      <trkpt lat="48.92006" lon="2.04793">
        <ele>71</ele>
        <time>2013-01-13T11:40:47Z</time>
      </trkpt>
      <trkpt lat="48.9201" lon="2.04787">
        <ele>72</ele>
        <time>2013-01-13T11:40:50Z</time>
      </trkpt>
      <trkpt lat="48.92018" lon="2.04778">
        <ele>72</ele>
        <time>2013-01-13T11:40:58Z</time>
      </trkpt>
      <trkpt lat="48.92022" lon="2.04771">
        <ele>72</ele>
        <time>2013-01-13T11:41:02Z</time>
      </trkpt>
      <trkpt lat="48.92026" lon="2.04766">
        <ele>72</ele>
        <time>2013-01-13T11:41:08Z</time>
      </trkpt>
      <trkpt lat="48.9203" lon="2.0476">
        <ele>72</ele>
        <time>2013-01-13T11:41:12Z</time>
      </trkpt>
      <trkpt lat="48.92034" lon="2.04755">
        <ele>72</ele>
        <time>2013-01-13T11:41:15Z</time>
      </trkpt>
      <trkpt lat="48.92037" lon="2.04749">
        <ele>75</ele>
        <time>2013-01-13T11:41:17Z</time>
      </trkpt>
      <trkpt lat="48.92041" lon="2.04745">
        <ele>75</ele>
        <time>2013-01-13T11:41:20Z</time>
      </trkpt>
      <trkpt lat="48.92044" lon="2.04739">
        <ele>75</ele>
        <time>2013-01-13T11:41:25Z</time>
      </trkpt>
      <trkpt lat="48.92048" lon="2.04729">
        <ele>75</ele>
        <time>2013-01-13T11:41:32Z</time>
      </trkpt>
      <trkpt lat="48.92052" lon="2.0472">
        <ele>75</ele>
        <time>2013-01-13T11:41:37Z</time>
      </trkpt>
      <trkpt lat="48.92058" lon="2.04714">
        <ele>76</ele>
        <time>2013-01-13T11:41:42Z</time>
      </trkpt>
      <trkpt lat="48.92061" lon="2.04708">
        <ele>76</ele>
        <time>2013-01-13T11:41:45Z</time>
      </trkpt>
      <trkpt lat="48.92064" lon="2.04701">
        <ele>76</ele>
        <time>2013-01-13T11:41:50Z</time>
      </trkpt>
      <trkpt lat="48.92068" lon="2.04695">
        <ele>77</ele>
        <time>2013-01-13T11:41:53Z</time>
      </trkpt>
      <trkpt lat="48.9207" lon="2.04688">
        <ele>77</ele>
        <time>2013-01-13T11:41:58Z</time>
      </trkpt>
      <trkpt lat="48.92076" lon="2.04683">
        <ele>78</ele>
        <time>2013-01-13T11:42:02Z</time>
      </trkpt>
      <trkpt lat="48.9208" lon="2.04676">
        <ele>79</ele>
        <time>2013-01-13T11:42:07Z</time>
      </trkpt>
      <trkpt lat="48.92085" lon="2.04668">
        <ele>80</ele>
        <time>2013-01-13T11:42:12Z</time>
      </trkpt>
      <trkpt lat="48.92087" lon="2.04662">
        <ele>80</ele>
        <time>2013-01-13T11:42:17Z</time>
      </trkpt>
      <trkpt lat="48.92093" lon="2.04657">
        <ele>79</ele>
        <time>2013-01-13T11:42:22Z</time>
      </trkpt>
      <trkpt lat="48.92096" lon="2.04649">
        <ele>79</ele>
        <time>2013-01-13T11:42:27Z</time>
      </trkpt>
      <trkpt lat="48.92098" lon="2.04642">
        <ele>79</ele>
        <time>2013-01-13T11:42:32Z</time>
      </trkpt>
      <trkpt lat="48.92101" lon="2.04636">
        <ele>79</ele>
        <time>2013-01-13T11:42:35Z</time>
      </trkpt>
      <trkpt lat="48.92104" lon="2.0463">
        <ele>79</ele>
        <time>2013-01-13T11:42:40Z</time>
      </trkpt>
      <trkpt lat="48.92107" lon="2.04625">
        <ele>79</ele>
        <time>2013-01-13T11:42:43Z</time>
      </trkpt>
      <trkpt lat="48.9211" lon="2.04618">
        <ele>79</ele>
        <time>2013-01-13T11:42:48Z</time>
      </trkpt>
      <trkpt lat="48.92113" lon="2.04611">
        <ele>79</ele>
        <time>2013-01-13T11:42:52Z</time>
      </trkpt>
      <trkpt lat="48.92116" lon="2.04604">
        <ele>79</ele>
        <time>2013-01-13T11:42:57Z</time>
      </trkpt>
      <trkpt lat="48.9212" lon="2.04601">
        <ele>79</ele>
        <time>2013-01-13T11:43:00Z</time>
      </trkpt>
      <trkpt lat="48.92125" lon="2.04597">
        <ele>79</ele>
        <time>2013-01-13T11:43:03Z</time>
      </trkpt>
      <trkpt lat="48.92128" lon="2.04592">
        <ele>79</ele>
        <time>2013-01-13T11:43:07Z</time>
      </trkpt>
      <trkpt lat="48.92131" lon="2.04587">
        <ele>79</ele>
        <time>2013-01-13T11:43:10Z</time>
      </trkpt>
      <trkpt lat="48.92135" lon="2.04583">
        <ele>80</ele>
        <time>2013-01-13T11:43:14Z</time>
      </trkpt>
      <trkpt lat="48.92139" lon="2.04576">
        <ele>80</ele>
        <time>2013-01-13T11:43:17Z</time>
      </trkpt>
      <trkpt lat="48.92144" lon="2.0457">
        <ele>80</ele>
        <time>2013-01-13T11:43:22Z</time>
      </trkpt>
      <trkpt lat="48.92148" lon="2.04563">
        <ele>80</ele>
        <time>2013-01-13T11:43:25Z</time>
      </trkpt>
      <trkpt lat="48.92155" lon="2.04555">
        <ele>80</ele>
        <time>2013-01-13T11:43:33Z</time>
      </trkpt>
      <trkpt lat="48.92159" lon="2.0455">
        <ele>80</ele>
        <time>2013-01-13T11:43:37Z</time>
      </trkpt>
      <trkpt lat="48.92163" lon="2.0454">
        <ele>80</ele>
        <time>2013-01-13T11:43:42Z</time>
      </trkpt>
      <trkpt lat="48.92165" lon="2.04531">
        <ele>81</ele>
        <time>2013-01-13T11:43:48Z</time>
      </trkpt>
      <trkpt lat="48.9217" lon="2.04527">
        <ele>79</ele>
        <time>2013-01-13T11:43:52Z</time>
      </trkpt>
      <trkpt lat="48.92174" lon="2.04521">
        <ele>79</ele>
        <time>2013-01-13T11:43:55Z</time>
      </trkpt>
      <trkpt lat="48.92177" lon="2.04516">
        <ele>79</ele>
        <time>2013-01-13T11:43:57Z</time>
      </trkpt>
      <trkpt lat="48.9218" lon="2.04511">
        <ele>79</ele>
        <time>2013-01-13T11:44:03Z</time>
      </trkpt>
      <trkpt lat="48.92183" lon="2.04505">
        <ele>79</ele>
        <time>2013-01-13T11:44:07Z</time>
      </trkpt>
      <trkpt lat="48.92188" lon="2.04499">
        <ele>80</ele>
        <time>2013-01-13T11:44:12Z</time>
      </trkpt>
      <trkpt lat="48.92191" lon="2.0449">
        <ele>80</ele>
        <time>2013-01-13T11:44:17Z</time>
      </trkpt>
      <trkpt lat="48.92196" lon="2.04485">
        <ele>80</ele>
        <time>2013-01-13T11:44:19Z</time>
      </trkpt>
      <trkpt lat="48.922" lon="2.0448">
        <ele>79</ele>
        <time>2013-01-13T11:44:24Z</time>
      </trkpt>
      <trkpt lat="48.92205" lon="2.04476">
        <ele>79</ele>
        <time>2013-01-13T11:44:27Z</time>
      </trkpt>
      <trkpt lat="48.9221" lon="2.0447">
        <ele>79</ele>
        <time>2013-01-13T11:44:32Z</time>
      </trkpt>
      <trkpt lat="48.92212" lon="2.04462">
        <ele>79</ele>
        <time>2013-01-13T11:44:35Z</time>
      </trkpt>
      <trkpt lat="48.92214" lon="2.04455">
        <ele>79</ele>
        <time>2013-01-13T11:44:42Z</time>
      </trkpt>
      <trkpt lat="48.92219" lon="2.04452">
        <ele>79</ele>
        <time>2013-01-13T11:44:45Z</time>
      </trkpt>
      <trkpt lat="48.92224" lon="2.04448">
        <ele>79</ele>
        <time>2013-01-13T11:44:47Z</time>
      </trkpt>
      <trkpt lat="48.92228" lon="2.04445">
        <ele>79</ele>
        <time>2013-01-13T11:44:49Z</time>
      </trkpt>
      <trkpt lat="48.92232" lon="2.04441">
        <ele>78</ele>
        <time>2013-01-13T11:44:55Z</time>
      </trkpt>
      <trkpt lat="48.92237" lon="2.04437">
        <ele>78</ele>
        <time>2013-01-13T11:44:59Z</time>
      </trkpt>
      <trkpt lat="48.9224" lon="2.04424">
        <ele>77</ele>
        <time>2013-01-13T11:45:08Z</time>
      </trkpt>
      <trkpt lat="48.92243" lon="2.04415">
        <ele>77</ele>
        <time>2013-01-13T11:45:12Z</time>
      </trkpt>
      <trkpt lat="48.92247" lon="2.04408">
        <ele>77</ele>
        <time>2013-01-13T11:45:17Z</time>
      </trkpt>
      <trkpt lat="48.9225" lon="2.044">
        <ele>77</ele>
        <time>2013-01-13T11:45:20Z</time>
      </trkpt>
      <trkpt lat="48.92253" lon="2.04395">
        <ele>73</ele>
        <time>2013-01-13T11:45:24Z</time>
      </trkpt>
      <trkpt lat="48.92258" lon="2.04394">
        <ele>73</ele>
        <time>2013-01-13T11:45:29Z</time>
      </trkpt>
      <trkpt lat="48.92262" lon="2.0439">
        <ele>72</ele>
        <time>2013-01-13T11:45:33Z</time>
      </trkpt>
      <trkpt lat="48.92266" lon="2.04384">
        <ele>72</ele>
        <time>2013-01-13T11:45:37Z</time>
      </trkpt>
      <trkpt lat="48.92269" lon="2.04378">
        <ele>72</ele>
        <time>2013-01-13T11:45:42Z</time>
      </trkpt>
      <trkpt lat="48.92271" lon="2.04371">
        <ele>72</ele>
        <time>2013-01-13T11:45:49Z</time>
      </trkpt>
      <trkpt lat="48.92278" lon="2.04363">
        <ele>71</ele>
        <time>2013-01-13T11:46:23Z</time>
      </trkpt>
      <trkpt lat="48.92284" lon="2.04359">
        <ele>71</ele>
        <time>2013-01-13T11:46:27Z</time>
      </trkpt>
      <trkpt lat="48.92285" lon="2.04351">
        <ele>71</ele>
        <time>2013-01-13T11:46:32Z</time>
      </trkpt>
      <trkpt lat="48.92288" lon="2.04346">
        <ele>71</ele>
        <time>2013-01-13T11:46:39Z</time>
      </trkpt>
      <trkpt lat="48.92293" lon="2.04343">
        <ele>71</ele>
        <time>2013-01-13T11:46:44Z</time>
      </trkpt>
      <trkpt lat="48.92298" lon="2.0434">
        <ele>70</ele>
        <time>2013-01-13T11:46:49Z</time>
      </trkpt>
      <trkpt lat="48.92303" lon="2.04337">
        <ele>70</ele>
        <time>2013-01-13T11:46:54Z</time>
      </trkpt>
      <trkpt lat="48.92308" lon="2.04334">
        <ele>69</ele>
        <time>2013-01-13T11:46:58Z</time>
      </trkpt>
      <trkpt lat="48.92313" lon="2.04331">
        <ele>69</ele>
        <time>2013-01-13T11:47:03Z</time>
      </trkpt>
      <trkpt lat="48.92318" lon="2.04329">
        <ele>68</ele>
        <time>2013-01-13T11:47:08Z</time>
      </trkpt>
      <trkpt lat="48.92323" lon="2.04327">
        <ele>68</ele>
        <time>2013-01-13T11:47:12Z</time>
      </trkpt>
      <trkpt lat="48.92328" lon="2.04325">
        <ele>67</ele>
        <time>2013-01-13T11:47:17Z</time>
      </trkpt>
      <trkpt lat="48.92333" lon="2.04323">
        <ele>67</ele>
        <time>2013-01-13T11:47:20Z</time>
      </trkpt>
      <trkpt lat="48.92337" lon="2.0432">
        <ele>65</ele>
        <time>2013-01-13T11:47:23Z</time>
      </trkpt>
      <trkpt lat="48.92343" lon="2.04315">
        <ele>64</ele>
        <time>2013-01-13T11:47:27Z</time>
      </trkpt>
      <trkpt lat="48.92348" lon="2.04311">
        <ele>64</ele>
        <time>2013-01-13T11:47:32Z</time>
      </trkpt>
      <trkpt lat="48.92352" lon="2.04308">
        <ele>63</ele>
        <time>2013-01-13T11:47:35Z</time>
      </trkpt>
      <trkpt lat="48.92357" lon="2.04307">
        <ele>63</ele>
        <time>2013-01-13T11:47:37Z</time>
      </trkpt>
      <trkpt lat="48.92363" lon="2.04305">
        <ele>63</ele>
        <time>2013-01-13T11:47:40Z</time>
      </trkpt>
      <trkpt lat="48.92369" lon="2.043">
        <ele>63</ele>
        <time>2013-01-13T11:47:47Z</time>
      </trkpt>
      <trkpt lat="48.92374" lon="2.04297">
        <ele>63</ele>
        <time>2013-01-13T11:47:52Z</time>
      </trkpt>
      <trkpt lat="48.92383" lon="2.04294">
        <ele>62</ele>
        <time>2013-01-13T11:48:00Z</time>
      </trkpt>
      <trkpt lat="48.92387" lon="2.04289">
        <ele>62</ele>
        <time>2013-01-13T11:48:03Z</time>
      </trkpt>
      <trkpt lat="48.92392" lon="2.04286">
        <ele>62</ele>
        <time>2013-01-13T11:48:08Z</time>
      </trkpt>
      <trkpt lat="48.92397" lon="2.04285">
        <ele>62</ele>
        <time>2013-01-13T11:48:10Z</time>
      </trkpt>
      <trkpt lat="48.92402" lon="2.04282">
        <ele>62</ele>
        <time>2013-01-13T11:48:15Z</time>
      </trkpt>
      <trkpt lat="48.92406" lon="2.04279">
        <ele>62</ele>
        <time>2013-01-13T11:48:18Z</time>
      </trkpt>
      <trkpt lat="48.92411" lon="2.04275">
        <ele>61</ele>
        <time>2013-01-13T11:48:24Z</time>
      </trkpt>
      <trkpt lat="48.92415" lon="2.04273">
        <ele>61</ele>
        <time>2013-01-13T11:48:28Z</time>
      </trkpt>
      <trkpt lat="48.9242" lon="2.0427">
        <ele>57</ele>
        <time>2013-01-13T11:48:33Z</time>
      </trkpt>
      <trkpt lat="48.92426" lon="2.04267">
        <ele>57</ele>
        <time>2013-01-13T11:48:37Z</time>
      </trkpt>
      <trkpt lat="48.9243" lon="2.04264">
        <ele>57</ele>
        <time>2013-01-13T11:48:40Z</time>
      </trkpt>
      <trkpt lat="48.92435" lon="2.0426">
        <ele>57</ele>
        <time>2013-01-13T11:48:43Z</time>
      </trkpt>
      <trkpt lat="48.92439" lon="2.04256">
        <ele>57</ele>
        <time>2013-01-13T11:48:48Z</time>
      </trkpt>
      <trkpt lat="48.92445" lon="2.04254">
        <ele>56</ele>
        <time>2013-01-13T11:48:52Z</time>
      </trkpt>
      <trkpt lat="48.92452" lon="2.04249">
        <ele>56</ele>
        <time>2013-01-13T11:48:57Z</time>
      </trkpt>
      <trkpt lat="48.92456" lon="2.04242">
        <ele>55</ele>
        <time>2013-01-13T11:49:02Z</time>
      </trkpt>
      <trkpt lat="48.92461" lon="2.0424">
        <ele>55</ele>
        <time>2013-01-13T11:49:07Z</time>
      </trkpt>
      <trkpt lat="48.9247" lon="2.04233">
        <ele>54</ele>
        <time>2013-01-13T11:49:14Z</time>
      </trkpt>
      <trkpt lat="48.92476" lon="2.0423">
        <ele>54</ele>
        <time>2013-01-13T11:49:17Z</time>
      </trkpt>
      <trkpt lat="48.92481" lon="2.04224">
        <ele>54</ele>
        <time>2013-01-13T11:49:22Z</time>
      </trkpt>
      <trkpt lat="48.92486" lon="2.04221">
        <ele>53</ele>
        <time>2013-01-13T11:49:25Z</time>
      </trkpt>
      <trkpt lat="48.9249" lon="2.04217">
        <ele>53</ele>
        <time>2013-01-13T11:49:29Z</time>
      </trkpt>
      <trkpt lat="48.92496" lon="2.04214">
        <ele>53</ele>
        <time>2013-01-13T11:49:32Z</time>
      </trkpt>
      <trkpt lat="48.925" lon="2.04209">
        <ele>53</ele>
        <time>2013-01-13T11:49:37Z</time>
      </trkpt>
      <trkpt lat="48.92506" lon="2.04205">
        <ele>47</ele>
        <time>2013-01-13T11:49:42Z</time>
      </trkpt>
      <trkpt lat="48.92514" lon="2.04196">
        <ele>47</ele>
        <time>2013-01-13T11:49:50Z</time>
      </trkpt>
      <trkpt lat="48.92519" lon="2.04192">
        <ele>47</ele>
        <time>2013-01-13T11:49:54Z</time>
      </trkpt>
      <trkpt lat="48.92523" lon="2.04188">
        <ele>47</ele>
        <time>2013-01-13T11:49:59Z</time>
      </trkpt>
      <trkpt lat="48.92528" lon="2.04185">
        <ele>47</ele>
        <time>2013-01-13T11:50:02Z</time>
      </trkpt>
      <trkpt lat="48.92531" lon="2.0418">
        <ele>47</ele>
        <time>2013-01-13T11:50:07Z</time>
      </trkpt>
      <trkpt lat="48.92537" lon="2.04176">
        <ele>46</ele>
        <time>2013-01-13T11:50:10Z</time>
      </trkpt>
      <trkpt lat="48.92542" lon="2.04173">
        <ele>46</ele>
        <time>2013-01-13T11:50:14Z</time>
      </trkpt>
      <trkpt lat="48.92545" lon="2.04165">
        <ele>46</ele>
        <time>2013-01-13T11:50:18Z</time>
      </trkpt>
      <trkpt lat="48.92551" lon="2.04159">
        <ele>45</ele>
        <time>2013-01-13T11:50:27Z</time>
      </trkpt>
      <trkpt lat="48.92556" lon="2.04156">
        <ele>45</ele>
        <time>2013-01-13T11:50:34Z</time>
      </trkpt>
      <trkpt lat="48.92559" lon="2.04142">
        <ele>45</ele>
        <time>2013-01-13T11:50:43Z</time>
      </trkpt>
      <trkpt lat="48.9256" lon="2.04134">
        <ele>45</ele>
        <time>2013-01-13T11:50:48Z</time>
      </trkpt>
      <trkpt lat="48.9256" lon="2.04119">
        <ele>45</ele>
        <time>2013-01-13T11:50:57Z</time>
      </trkpt>
      <trkpt lat="48.92563" lon="2.04113">
        <ele>45</ele>
        <time>2013-01-13T11:51:02Z</time>
      </trkpt>
      <trkpt lat="48.92567" lon="2.04107">
        <ele>44</ele>
        <time>2013-01-13T11:51:08Z</time>
      </trkpt>
      <trkpt lat="48.92573" lon="2.04102">
        <ele>44</ele>
        <time>2013-01-13T11:51:12Z</time>
      </trkpt>
      <trkpt lat="48.92575" lon="2.0409">
        <ele>43</ele>
        <time>2013-01-13T11:51:18Z</time>
      </trkpt>
      <trkpt lat="48.92574" lon="2.04083">
        <ele>43</ele>
        <time>2013-01-13T11:51:22Z</time>
      </trkpt>
      <trkpt lat="48.92573" lon="2.04075">
        <ele>43</ele>
        <time>2013-01-13T11:51:25Z</time>
      </trkpt>
      <trkpt lat="48.92573" lon="2.04067">
        <ele>44</ele>
        <time>2013-01-13T11:51:29Z</time>
      </trkpt>
      <trkpt lat="48.92573" lon="2.04059">
        <ele>44</ele>
        <time>2013-01-13T11:51:32Z</time>
      </trkpt>
      <trkpt lat="48.92575" lon="2.04045">
        <ele>45</ele>
        <time>2013-01-13T11:51:37Z</time>
      </trkpt>
      <trkpt lat="48.92578" lon="2.04036">
        <ele>45</ele>
        <time>2013-01-13T11:51:42Z</time>
      </trkpt>
      <trkpt lat="48.9258" lon="2.0403">
        <ele>45</ele>
        <time>2013-01-13T11:51:45Z</time>
      </trkpt>
      <trkpt lat="48.9258" lon="2.04023">
        <ele>45</ele>
        <time>2013-01-13T11:51:47Z</time>
      </trkpt>
      <trkpt lat="48.9258" lon="2.04014">
        <ele>44</ele>
        <time>2013-01-13T11:51:52Z</time>
      </trkpt>
      <trkpt lat="48.92586" lon="2.04008">
        <ele>42</ele>
        <time>2013-01-13T11:51:57Z</time>
      </trkpt>
      <trkpt lat="48.92591" lon="2.04002">
        <ele>42</ele>
        <time>2013-01-13T11:52:02Z</time>
      </trkpt>
      <trkpt lat="48.92594" lon="2.03995">
        <ele>42</ele>
        <time>2013-01-13T11:52:05Z</time>
      </trkpt>
      <trkpt lat="48.92596" lon="2.03988">
        <ele>42</ele>
        <time>2013-01-13T11:52:10Z</time>
      </trkpt>
      <trkpt lat="48.92599" lon="2.0398">
        <ele>41</ele>
        <time>2013-01-13T11:52:13Z</time>
      </trkpt>
      <trkpt lat="48.92602" lon="2.03974">
        <ele>41</ele>
        <time>2013-01-13T11:52:17Z</time>
      </trkpt>
      <trkpt lat="48.92605" lon="2.03968">
        <ele>41</ele>
        <time>2013-01-13T11:52:20Z</time>
      </trkpt>
      <trkpt lat="48.92609" lon="2.03963">
        <ele>41</ele>
        <time>2013-01-13T11:52:23Z</time>
      </trkpt>
      <trkpt lat="48.92613" lon="2.03957">
        <ele>41</ele>
        <time>2013-01-13T11:52:28Z</time>
      </trkpt>
      <trkpt lat="48.92617" lon="2.03953">
        <ele>41</ele>
        <time>2013-01-13T11:52:30Z</time>
      </trkpt>
      <trkpt lat="48.92624" lon="2.03943">
        <ele>41</ele>
        <time>2013-01-13T11:52:37Z</time>
      </trkpt>
      <trkpt lat="48.92628" lon="2.03938">
        <ele>40</ele>
        <time>2013-01-13T11:52:40Z</time>
      </trkpt>
      <trkpt lat="48.9263" lon="2.03924">
        <ele>40</ele>
        <time>2013-01-13T11:52:48Z</time>
      </trkpt>
      <trkpt lat="48.92634" lon="2.03917">
        <ele>41</ele>
        <time>2013-01-13T11:52:53Z</time>
      </trkpt>
      <trkpt lat="48.9264" lon="2.0391">
        <ele>40</ele>
        <time>2013-01-13T11:52:57Z</time>
      </trkpt>
      <trkpt lat="48.92642" lon="2.03902">
        <ele>40</ele>
        <time>2013-01-13T11:53:00Z</time>
      </trkpt>
      <trkpt lat="48.92646" lon="2.03897">
        <ele>40</ele>
        <time>2013-01-13T11:53:05Z</time>
      </trkpt>
      <trkpt lat="48.9265" lon="2.0389">
        <ele>40</ele>
        <time>2013-01-13T11:53:08Z</time>
      </trkpt>
      <trkpt lat="48.92654" lon="2.03885">
        <ele>40</ele>
        <time>2013-01-13T11:53:12Z</time>
      </trkpt>
      <trkpt lat="48.92652" lon="2.03874">
        <ele>41</ele>
        <time>2013-01-13T11:53:17Z</time>
      </trkpt>
      <trkpt lat="48.92649" lon="2.03866">
        <ele>41</ele>
        <time>2013-01-13T11:53:20Z</time>
      </trkpt>
      <trkpt lat="48.92647" lon="2.03857">
        <ele>41</ele>
        <time>2013-01-13T11:53:22Z</time>
      </trkpt>
      <trkpt lat="48.92645" lon="2.03851">
        <ele>41</ele>
        <time>2013-01-13T11:53:24Z</time>
      </trkpt>
      <trkpt lat="48.9264" lon="2.03847">
        <ele>41</ele>
        <time>2013-01-13T11:53:29Z</time>
      </trkpt>
      <trkpt lat="48.9264" lon="2.03838">
        <ele>41</ele>
        <time>2013-01-13T11:53:32Z</time>
      </trkpt>
      <trkpt lat="48.92644" lon="2.03831">
        <ele>41</ele>
        <time>2013-01-13T11:53:37Z</time>
      </trkpt>
      <trkpt lat="48.92648" lon="2.0383">
        <ele>41</ele>
        <time>2013-01-13T11:53:40Z</time>
      </trkpt>
      <trkpt lat="48.92651" lon="2.0382">
        <ele>41</ele>
        <time>2013-01-13T11:53:48Z</time>
      </trkpt>
      <trkpt lat="48.92649" lon="2.03813">
        <ele>42</ele>
        <time>2013-01-13T11:53:52Z</time>
      </trkpt>
      <trkpt lat="48.92648" lon="2.03805">
        <ele>42</ele>
        <time>2013-01-13T11:53:57Z</time>
      </trkpt>
      <trkpt lat="48.92646" lon="2.03798">
        <ele>42</ele>
        <time>2013-01-13T11:54:00Z</time>
      </trkpt>
      <trkpt lat="48.92645" lon="2.03791">
        <ele>43</ele>
        <time>2013-01-13T11:54:05Z</time>
      </trkpt>
      <trkpt lat="48.92643" lon="2.03782">
        <ele>43</ele>
        <time>2013-01-13T11:54:12Z</time>
      </trkpt>
      <trkpt lat="48.92643" lon="2.03774">
        <ele>43</ele>
        <time>2013-01-13T11:54:17Z</time>
      </trkpt>
      <trkpt lat="48.92642" lon="2.03765">
        <ele>43</ele>
        <time>2013-01-13T11:54:22Z</time>
      </trkpt>
      <trkpt lat="48.92641" lon="2.03753">
        <ele>43</ele>
        <time>2013-01-13T11:54:27Z</time>
      </trkpt>
      <trkpt lat="48.92638" lon="2.03748">
        <ele>45</ele>
        <time>2013-01-13T11:54:30Z</time>
      </trkpt>
      <trkpt lat="48.92636" lon="2.0374">
        <ele>45</ele>
        <time>2013-01-13T11:54:33Z</time>
      </trkpt>
      <trkpt lat="48.92634" lon="2.03732">
        <ele>45</ele>
        <time>2013-01-13T11:54:37Z</time>
      </trkpt>
      <trkpt lat="48.92632" lon="2.0372">
        <ele>45</ele>
        <time>2013-01-13T11:54:42Z</time>
      </trkpt>
      <trkpt lat="48.9263" lon="2.03711">
        <ele>46</ele>
        <time>2013-01-13T11:54:47Z</time>
      </trkpt>
      <trkpt lat="48.92627" lon="2.03699">
        <ele>46</ele>
        <time>2013-01-13T11:54:52Z</time>
      </trkpt>
      <trkpt lat="48.92625" lon="2.03692">
        <ele>46</ele>
        <time>2013-01-13T11:54:57Z</time>
      </trkpt>
      <trkpt lat="48.92623" lon="2.03686">
        <ele>46</ele>
        <time>2013-01-13T11:55:00Z</time>
      </trkpt>
      <trkpt lat="48.92622" lon="2.03677">
        <ele>47</ele>
        <time>2013-01-13T11:55:03Z</time>
      </trkpt>
      <trkpt lat="48.92618" lon="2.03671">
        <ele>47</ele>
        <time>2013-01-13T11:55:05Z</time>
      </trkpt>
      <trkpt lat="48.92615" lon="2.03666">
        <ele>48</ele>
        <time>2013-01-13T11:55:10Z</time>
      </trkpt>
      <trkpt lat="48.92611" lon="2.03659">
        <ele>48</ele>
        <time>2013-01-13T11:55:13Z</time>
      </trkpt>
      <trkpt lat="48.92606" lon="2.03651">
        <ele>48</ele>
        <time>2013-01-13T11:55:17Z</time>
      </trkpt>
      <trkpt lat="48.92604" lon="2.03644">
        <ele>48</ele>
        <time>2013-01-13T11:55:23Z</time>
      </trkpt>
      <trkpt lat="48.92601" lon="2.03638">
        <ele>48</ele>
        <time>2013-01-13T11:55:29Z</time>
      </trkpt>
      <trkpt lat="48.92598" lon="2.03631">
        <ele>48</ele>
        <time>2013-01-13T11:55:32Z</time>
      </trkpt>
      <trkpt lat="48.92595" lon="2.03624">
        <ele>48</ele>
        <time>2013-01-13T11:55:35Z</time>
      </trkpt>
      <trkpt lat="48.92592" lon="2.03619">
        <ele>48</ele>
        <time>2013-01-13T11:55:39Z</time>
      </trkpt>
      <trkpt lat="48.9259" lon="2.03612">
        <ele>48</ele>
        <time>2013-01-13T11:55:42Z</time>
      </trkpt>
      <trkpt lat="48.92586" lon="2.03605">
        <ele>48</ele>
        <time>2013-01-13T11:55:47Z</time>
      </trkpt>
      <trkpt lat="48.9258" lon="2.03596">
        <ele>52</ele>
        <time>2013-01-13T11:55:52Z</time>
      </trkpt>
      <trkpt lat="48.92577" lon="2.03589">
        <ele>51</ele>
        <time>2013-01-13T11:55:55Z</time>
      </trkpt>
      <trkpt lat="48.9258" lon="2.03582">
        <ele>51</ele>
        <time>2013-01-13T11:55:59Z</time>
      </trkpt>
      <trkpt lat="48.92584" lon="2.03577">
        <ele>49</ele>
        <time>2013-01-13T11:56:02Z</time>
      </trkpt>
      <trkpt lat="48.92588" lon="2.03573">
        <ele>49</ele>
        <time>2013-01-13T11:56:05Z</time>
      </trkpt>
      <trkpt lat="48.92593" lon="2.03568">
        <ele>48</ele>
        <time>2013-01-13T11:56:10Z</time>
      </trkpt>
      <trkpt lat="48.92598" lon="2.03563">
        <ele>48</ele>
        <time>2013-01-13T11:56:13Z</time>
      </trkpt>
      <trkpt lat="48.92603" lon="2.0356">
        <ele>47</ele>
        <time>2013-01-13T11:56:15Z</time>
      </trkpt>
      <trkpt lat="48.92606" lon="2.03555">
        <ele>47</ele>
        <time>2013-01-13T11:56:18Z</time>
      </trkpt>
      <trkpt lat="48.92616" lon="2.03545">
        <ele>47</ele>
        <time>2013-01-13T11:56:27Z</time>
      </trkpt>
      <trkpt lat="48.9262" lon="2.03542">
        <ele>46</ele>
        <time>2013-01-13T11:56:30Z</time>
      </trkpt>
      <trkpt lat="48.92624" lon="2.03536">
        <ele>46</ele>
        <time>2013-01-13T11:56:35Z</time>
      </trkpt>
      <trkpt lat="48.92628" lon="2.03532">
        <ele>46</ele>
        <time>2013-01-13T11:56:38Z</time>
      </trkpt>
      <trkpt lat="48.92635" lon="2.03528">
        <ele>46</ele>
        <time>2013-01-13T11:56:42Z</time>
      </trkpt>
      <trkpt lat="48.92638" lon="2.03523">
        <ele>46</ele>
        <time>2013-01-13T11:56:47Z</time>
      </trkpt>
      <trkpt lat="48.92643" lon="2.03519">
        <ele>45</ele>
        <time>2013-01-13T11:56:50Z</time>
      </trkpt>
      <trkpt lat="48.92647" lon="2.03514">
        <ele>45</ele>
        <time>2013-01-13T11:56:53Z</time>
      </trkpt>
      <trkpt lat="48.92651" lon="2.03508">
        <ele>45</ele>
        <time>2013-01-13T11:56:57Z</time>
      </trkpt>
      <trkpt lat="48.92657" lon="2.03502">
        <ele>44</ele>
        <time>2013-01-13T11:57:02Z</time>
      </trkpt>
      <trkpt lat="48.92664" lon="2.03494">
        <ele>44</ele>
        <time>2013-01-13T11:57:09Z</time>
      </trkpt>
      <trkpt lat="48.92669" lon="2.03492">
        <ele>42</ele>
        <time>2013-01-13T11:57:14Z</time>
      </trkpt>
      <trkpt lat="48.92673" lon="2.03486">
        <ele>42</ele>
        <time>2013-01-13T11:57:19Z</time>
      </trkpt>
      <trkpt lat="48.92678" lon="2.03481">
        <ele>42</ele>
        <time>2013-01-13T11:57:22Z</time>
      </trkpt>
      <trkpt lat="48.92682" lon="2.03474">
        <ele>41</ele>
        <time>2013-01-13T11:57:25Z</time>
      </trkpt>
      <trkpt lat="48.92687" lon="2.03472">
        <ele>41</ele>
        <time>2013-01-13T11:57:28Z</time>
      </trkpt>
      <trkpt lat="48.92692" lon="2.03471">
        <ele>41</ele>
        <time>2013-01-13T11:57:30Z</time>
      </trkpt>
      <trkpt lat="48.92696" lon="2.03474">
        <ele>41</ele>
        <time>2013-01-13T11:57:32Z</time>
      </trkpt>
      <trkpt lat="48.927" lon="2.03481">
        <ele>41</ele>
        <time>2013-01-13T11:57:37Z</time>
      </trkpt>
      <trkpt lat="48.92703" lon="2.03487">
        <ele>40</ele>
        <time>2013-01-13T11:57:40Z</time>
      </trkpt>
      <trkpt lat="48.92705" lon="2.03494">
        <ele>40</ele>
        <time>2013-01-13T11:57:42Z</time>
      </trkpt>
      <trkpt lat="48.92711" lon="2.03504">
        <ele>40</ele>
        <time>2013-01-13T11:57:49Z</time>
      </trkpt>
      <trkpt lat="48.92715" lon="2.03508">
        <ele>40</ele>
        <time>2013-01-13T11:57:52Z</time>
      </trkpt>
      <trkpt lat="48.92718" lon="2.03515">
        <ele>40</ele>
        <time>2013-01-13T11:57:54Z</time>
      </trkpt>
      <trkpt lat="48.92723" lon="2.03519">
        <ele>39</ele>
        <time>2013-01-13T11:57:57Z</time>
      </trkpt>
      <trkpt lat="48.92728" lon="2.03521">
        <ele>39</ele>
        <time>2013-01-13T11:58:02Z</time>
      </trkpt>
      <trkpt lat="48.92731" lon="2.03527">
        <ele>39</ele>
        <time>2013-01-13T11:58:05Z</time>
      </trkpt>
      <trkpt lat="48.92744" lon="2.03525">
        <ele>39</ele>
        <time>2013-01-13T11:58:12Z</time>
      </trkpt>
      <trkpt lat="48.92748" lon="2.03534">
        <ele>39</ele>
        <time>2013-01-13T11:58:15Z</time>
      </trkpt>
      <trkpt lat="48.9275" lon="2.0354">
        <ele>35</ele>
        <time>2013-01-13T11:58:18Z</time>
      </trkpt>
      <trkpt lat="48.92751" lon="2.03548">
        <ele>35</ele>
        <time>2013-01-13T11:58:23Z</time>
      </trkpt>
      <trkpt lat="48.92754" lon="2.03557">
        <ele>35</ele>
        <time>2013-01-13T11:58:27Z</time>
      </trkpt>
      <trkpt lat="48.92758" lon="2.03562">
        <ele>35</ele>
        <time>2013-01-13T11:58:32Z</time>
      </trkpt>
      <trkpt lat="48.9276" lon="2.03569">
        <ele>35</ele>
        <time>2013-01-13T11:58:35Z</time>
      </trkpt>
      <trkpt lat="48.92762" lon="2.03577">
        <ele>35</ele>
        <time>2013-01-13T11:58:39Z</time>
      </trkpt>
      <trkpt lat="48.92765" lon="2.03584">
        <ele>35</ele>
        <time>2013-01-13T11:58:42Z</time>
      </trkpt>
      <trkpt lat="48.92768" lon="2.03591">
        <ele>35</ele>
        <time>2013-01-13T11:58:48Z</time>
      </trkpt>
      <trkpt lat="48.9277" lon="2.03598">
        <ele>35</ele>
        <time>2013-01-13T11:58:50Z</time>
      </trkpt>
      <trkpt lat="48.92774" lon="2.03606">
        <ele>35</ele>
        <time>2013-01-13T11:58:57Z</time>
      </trkpt>
      <trkpt lat="48.92779" lon="2.03612">
        <ele>34</ele>
        <time>2013-01-13T11:59:02Z</time>
      </trkpt>
      <trkpt lat="48.92785" lon="2.03625">
        <ele>34</ele>
        <time>2013-01-13T11:59:10Z</time>
      </trkpt>
      <trkpt lat="48.92787" lon="2.03632">
        <ele>34</ele>
        <time>2013-01-13T11:59:14Z</time>
      </trkpt>
      <trkpt lat="48.92786" lon="2.03639">
        <ele>34</ele>
        <time>2013-01-13T11:59:19Z</time>
      </trkpt>
      <trkpt lat="48.92781" lon="2.03653">
        <ele>35</ele>
        <time>2013-01-13T11:59:27Z</time>
      </trkpt>
      <trkpt lat="48.92778" lon="2.03659">
        <ele>35</ele>
        <time>2013-01-13T11:59:32Z</time>
      </trkpt>
      <trkpt lat="48.9278" lon="2.03666">
        <ele>35</ele>
        <time>2013-01-13T11:59:35Z</time>
      </trkpt>
      <trkpt lat="48.92781" lon="2.03675">
        <ele>35</ele>
        <time>2013-01-13T11:59:37Z</time>
      </trkpt>
      <trkpt lat="48.92782" lon="2.03682">
        <ele>35</ele>
        <time>2013-01-13T11:59:39Z</time>
      </trkpt>
      <trkpt lat="48.92786" lon="2.03688">
        <ele>35</ele>
        <time>2013-01-13T11:59:42Z</time>
      </trkpt>
      <trkpt lat="48.9279" lon="2.03695">
        <ele>34</ele>
        <time>2013-01-13T11:59:47Z</time>
      </trkpt>
      <trkpt lat="48.92795" lon="2.03697">
        <ele>34</ele>
        <time>2013-01-13T11:59:50Z</time>
      </trkpt>
      <trkpt lat="48.92798" lon="2.03704">
        <ele>34</ele>
        <time>2013-01-13T11:59:53Z</time>
      </trkpt>
      <trkpt lat="48.92804" lon="2.03708">
        <ele>34</ele>
        <time>2013-01-13T11:59:57Z</time>
      </trkpt>
      <trkpt lat="48.92809" lon="2.03715">
        <ele>34</ele>
        <time>2013-01-13T12:00:02Z</time>
      </trkpt>
      <trkpt lat="48.92813" lon="2.0372">
        <ele>34</ele>
        <time>2013-01-13T12:00:12Z</time>
      </trkpt>
      <trkpt lat="48.92817" lon="2.03724">
        <ele>33</ele>
        <time>2013-01-13T12:00:20Z</time>
      </trkpt>
      <trkpt lat="48.92821" lon="2.03728">
        <ele>33</ele>
        <time>2013-01-13T12:00:25Z</time>
      </trkpt>
      <trkpt lat="48.92825" lon="2.03734">
        <ele>33</ele>
        <time>2013-01-13T12:00:28Z</time>
      </trkpt>
      <trkpt lat="48.92826" lon="2.0374">
        <ele>33</ele>
        <time>2013-01-13T12:00:30Z</time>
      </trkpt>
      <trkpt lat="48.92829" lon="2.03748">
        <ele>32</ele>
        <time>2013-01-13T12:00:33Z</time>
      </trkpt>
      <trkpt lat="48.92833" lon="2.0375">
        <ele>32</ele>
        <time>2013-01-13T12:00:38Z</time>
      </trkpt>
      <trkpt lat="48.92837" lon="2.03758">
        <ele>32</ele>
        <time>2013-01-13T12:00:42Z</time>
      </trkpt>
      <trkpt lat="48.92845" lon="2.03767">
        <ele>32</ele>
        <time>2013-01-13T12:00:49Z</time>
      </trkpt>
      <trkpt lat="48.92848" lon="2.03773">
        <ele>32</ele>
        <time>2013-01-13T12:00:53Z</time>
      </trkpt>
      <trkpt lat="48.9285" lon="2.03781">
        <ele>31</ele>
        <time>2013-01-13T12:01:02Z</time>
      </trkpt>
      <trkpt lat="48.9285" lon="2.03789">
        <ele>31</ele>
        <time>2013-01-13T12:01:07Z</time>
      </trkpt>
      <trkpt lat="48.92849" lon="2.03797">
        <ele>31</ele>
        <time>2013-01-13T12:01:12Z</time>
      </trkpt>
      <trkpt lat="48.92851" lon="2.03803">
        <ele>31</ele>
        <time>2013-01-13T12:01:15Z</time>
      </trkpt>
      <trkpt lat="48.92855" lon="2.03806">
        <ele>31</ele>
        <time>2013-01-13T12:01:17Z</time>
      </trkpt>
      <trkpt lat="48.9286" lon="2.0381">
        <ele>31</ele>
        <time>2013-01-13T12:01:22Z</time>
      </trkpt>
      <trkpt lat="48.92861" lon="2.03817">
        <ele>31</ele>
        <time>2013-01-13T12:01:33Z</time>
      </trkpt>
      <trkpt lat="48.9286" lon="2.03824">
        <ele>31</ele>
        <time>2013-01-13T12:01:48Z</time>
      </trkpt>
      <trkpt lat="48.92859" lon="2.03831">
        <ele>32</ele>
        <time>2013-01-13T12:01:54Z</time>
      </trkpt>
      <trkpt lat="48.92859" lon="2.03838">
        <ele>31</ele>
        <time>2013-01-13T12:02:02Z</time>
      </trkpt>
      <trkpt lat="48.92868" lon="2.03839">
        <ele>31</ele>
        <time>2013-01-13T12:02:13Z</time>
      </trkpt>
      <trkpt lat="48.92873" lon="2.03843">
        <ele>31</ele>
        <time>2013-01-13T12:02:17Z</time>
      </trkpt>
      <trkpt lat="48.92877" lon="2.03839">
        <ele>31</ele>
        <time>2013-01-13T12:02:24Z</time>
      </trkpt>
      <trkpt lat="48.92881" lon="2.03836">
        <ele>31</ele>
        <time>2013-01-13T12:02:28Z</time>
      </trkpt>
      <trkpt lat="48.92888" lon="2.03826">
        <ele>31</ele>
        <time>2013-01-13T12:02:50Z</time>
      </trkpt>
      <trkpt lat="48.92893" lon="2.03819">
        <ele>31</ele>
        <time>2013-01-13T12:02:57Z</time>
      </trkpt>
      <trkpt lat="48.92898" lon="2.03814">
        <ele>31</ele>
        <time>2013-01-13T12:03:02Z</time>
      </trkpt>
      <trkpt lat="48.92903" lon="2.0381">
        <ele>31</ele>
        <time>2013-01-13T12:03:08Z</time>
      </trkpt>
      <trkpt lat="48.92907" lon="2.03804">
        <ele>31</ele>
        <time>2013-01-13T12:03:12Z</time>
      </trkpt>
      <trkpt lat="48.92911" lon="2.03802">
        <ele>31</ele>
        <time>2013-01-13T12:03:15Z</time>
      </trkpt>
      <trkpt lat="48.92914" lon="2.03795">
        <ele>31</ele>
        <time>2013-01-13T12:03:20Z</time>
      </trkpt>
      <trkpt lat="48.92916" lon="2.03789">
        <ele>31</ele>
        <time>2013-01-13T12:03:24Z</time>
      </trkpt>
      <trkpt lat="48.92919" lon="2.03782">
        <ele>30</ele>
        <time>2013-01-13T12:03:29Z</time>
      </trkpt>
      <trkpt lat="48.92924" lon="2.03776">
        <ele>30</ele>
        <time>2013-01-13T12:03:32Z</time>
      </trkpt>
      <trkpt lat="48.92929" lon="2.0377">
        <ele>30</ele>
        <time>2013-01-13T12:03:35Z</time>
      </trkpt>
      <trkpt lat="48.92934" lon="2.03765">
        <ele>30</ele>
        <time>2013-01-13T12:03:39Z</time>
      </trkpt>
      <trkpt lat="48.92939" lon="2.03765">
        <ele>30</ele>
        <time>2013-01-13T12:03:42Z</time>
      </trkpt>
      <trkpt lat="48.92945" lon="2.03763">
        <ele>30</ele>
        <time>2013-01-13T12:04:02Z</time>
      </trkpt>
      <trkpt lat="48.92952" lon="2.03763">
        <ele>30</ele>
        <time>2013-01-13T12:04:07Z</time>
      </trkpt>
      <trkpt lat="48.92957" lon="2.03765">
        <ele>30</ele>
        <time>2013-01-13T12:04:10Z</time>
      </trkpt>
      <trkpt lat="48.92967" lon="2.03761">
        <ele>29</ele>
        <time>2013-01-13T12:04:18Z</time>
      </trkpt>
      <trkpt lat="48.92972" lon="2.03763">
        <ele>29</ele>
        <time>2013-01-13T12:04:20Z</time>
      </trkpt>
      <trkpt lat="48.92977" lon="2.03765">
        <ele>29</ele>
        <time>2013-01-13T12:04:23Z</time>
      </trkpt>
      <trkpt lat="48.92984" lon="2.03765">
        <ele>29</ele>
        <time>2013-01-13T12:04:27Z</time>
      </trkpt>
      <trkpt lat="48.92989" lon="2.03764">
        <ele>29</ele>
        <time>2013-01-13T12:04:32Z</time>
      </trkpt>
      <trkpt lat="48.92994" lon="2.03766">
        <ele>29</ele>
        <time>2013-01-13T12:04:35Z</time>
      </trkpt>
      <trkpt lat="48.92997" lon="2.03772">
        <ele>29</ele>
        <time>2013-01-13T12:04:37Z</time>
      </trkpt>
      <trkpt lat="48.93001" lon="2.03778">
        <ele>28</ele>
        <time>2013-01-13T12:04:39Z</time>
      </trkpt>
      <trkpt lat="48.93005" lon="2.03784">
        <ele>28</ele>
        <time>2013-01-13T12:04:43Z</time>
      </trkpt>
      <trkpt lat="48.93009" lon="2.03792">
        <ele>28</ele>
        <time>2013-01-13T12:04:47Z</time>
      </trkpt>
      <trkpt lat="48.93013" lon="2.03801">
        <ele>28</ele>
        <time>2013-01-13T12:04:52Z</time>
      </trkpt>
      <trkpt lat="48.93016" lon="2.03807">
        <ele>28</ele>
        <time>2013-01-13T12:04:55Z</time>
      </trkpt>
      <trkpt lat="48.93019" lon="2.03813">
        <ele>28</ele>
        <time>2013-01-13T12:05:00Z</time>
      </trkpt>
      <trkpt lat="48.93023" lon="2.0382">
        <ele>28</ele>
        <time>2013-01-13T12:05:03Z</time>
      </trkpt>
      <trkpt lat="48.93027" lon="2.03827">
        <ele>28</ele>
        <time>2013-01-13T12:05:09Z</time>
      </trkpt>
      <trkpt lat="48.93029" lon="2.03836">
        <ele>29</ele>
        <time>2013-01-13T12:05:12Z</time>
      </trkpt>
      <trkpt lat="48.93031" lon="2.03842">
        <ele>29</ele>
        <time>2013-01-13T12:05:18Z</time>
      </trkpt>
      <trkpt lat="48.93035" lon="2.0385">
        <ele>29</ele>
        <time>2013-01-13T12:05:22Z</time>
      </trkpt>
      <trkpt lat="48.93035" lon="2.03858">
        <ele>29</ele>
        <time>2013-01-13T12:05:27Z</time>
      </trkpt>
      <trkpt lat="48.93041" lon="2.03857">
        <ele>29</ele>
        <time>2013-01-13T12:05:33Z</time>
      </trkpt>
      <trkpt lat="48.93046" lon="2.0386">
        <ele>29</ele>
        <time>2013-01-13T12:05:37Z</time>
      </trkpt>
      <trkpt lat="48.93052" lon="2.03861">
        <ele>29</ele>
        <time>2013-01-13T12:05:55Z</time>
      </trkpt>
      <trkpt lat="48.93057" lon="2.03867">
        <ele>29</ele>
        <time>2013-01-13T12:06:02Z</time>
      </trkpt>
      <trkpt lat="48.93063" lon="2.03872">
        <ele>29</ele>
        <time>2013-01-13T12:06:04Z</time>
      </trkpt>
      <trkpt lat="48.93067" lon="2.03879">
        <ele>29</ele>
        <time>2013-01-13T12:06:07Z</time>
      </trkpt>
      <trkpt lat="48.93071" lon="2.03884">
        <ele>29</ele>
        <time>2013-01-13T12:06:10Z</time>
      </trkpt>
      <trkpt lat="48.93071" lon="2.03891">
        <ele>29</ele>
        <time>2013-01-13T12:06:13Z</time>
      </trkpt>
      <trkpt lat="48.93077" lon="2.03896">
        <ele>29</ele>
        <time>2013-01-13T12:06:37Z</time>
      </trkpt>
      <trkpt lat="48.93081" lon="2.03891">
        <ele>29</ele>
        <time>2013-01-13T12:06:44Z</time>
      </trkpt>
      <trkpt lat="48.93084" lon="2.03885">
        <ele>27</ele>
        <time>2013-01-13T12:06:49Z</time>
      </trkpt>
      <trkpt lat="48.93088" lon="2.03888">
        <ele>27</ele>
        <time>2013-01-13T12:06:52Z</time>
      </trkpt>
      <trkpt lat="48.93093" lon="2.03888">
        <ele>27</ele>
        <time>2013-01-13T12:06:57Z</time>
      </trkpt>
      <trkpt lat="48.93099" lon="2.03889">
        <ele>27</ele>
        <time>2013-01-13T12:06:59Z</time>
      </trkpt>
      <trkpt lat="48.93104" lon="2.03892">
        <ele>27</ele>
        <time>2013-01-13T12:07:02Z</time>
      </trkpt>
      <trkpt lat="48.93111" lon="2.03897">
        <ele>27</ele>
        <time>2013-01-13T12:07:12Z</time>
      </trkpt>
      <trkpt lat="48.93116" lon="2.03901">
        <ele>27</ele>
        <time>2013-01-13T12:07:14Z</time>
      </trkpt>
      <trkpt lat="48.93122" lon="2.03908">
        <ele>27</ele>
        <time>2013-01-13T12:07:17Z</time>
      </trkpt>
      <trkpt lat="48.93131" lon="2.03908">
        <ele>26</ele>
        <time>2013-01-13T12:07:23Z</time>
      </trkpt>
      <trkpt lat="48.93137" lon="2.03909">
        <ele>26</ele>
        <time>2013-01-13T12:07:27Z</time>
      </trkpt>
      <trkpt lat="48.93142" lon="2.03905">
        <ele>26</ele>
        <time>2013-01-13T12:07:33Z</time>
      </trkpt>
      <trkpt lat="48.93147" lon="2.03902">
        <ele>26</ele>
        <time>2013-01-13T12:07:37Z</time>
      </trkpt>
      <trkpt lat="48.9315" lon="2.03896">
        <ele>26</ele>
        <time>2013-01-13T12:07:42Z</time>
      </trkpt>
      <trkpt lat="48.93153" lon="2.03889">
        <ele>26</ele>
        <time>2013-01-13T12:07:47Z</time>
      </trkpt>
      <trkpt lat="48.93158" lon="2.03887">
        <ele>26</ele>
        <time>2013-01-13T12:07:52Z</time>
      </trkpt>
      <trkpt lat="48.93167" lon="2.0388">
        <ele>24</ele>
        <time>2013-01-13T12:08:02Z</time>
      </trkpt>
      <trkpt lat="48.93174" lon="2.03876">
        <ele>24</ele>
        <time>2013-01-13T12:08:07Z</time>
      </trkpt>
      <trkpt lat="48.9318" lon="2.03874">
        <ele>24</ele>
        <time>2013-01-13T12:08:10Z</time>
      </trkpt>
      <trkpt lat="48.93185" lon="2.03872">
        <ele>24</ele>
        <time>2013-01-13T12:08:13Z</time>
      </trkpt>
      <trkpt lat="48.93192" lon="2.03869">
        <ele>24</ele>
        <time>2013-01-13T12:08:17Z</time>
      </trkpt>
      <trkpt lat="48.93196" lon="2.03866">
        <ele>24</ele>
        <time>2013-01-13T12:08:20Z</time>
      </trkpt>
      <trkpt lat="48.93201" lon="2.03865">
        <ele>24</ele>
        <time>2013-01-13T12:08:24Z</time>
      </trkpt>
      <trkpt lat="48.93206" lon="2.03864">
        <ele>24</ele>
        <time>2013-01-13T12:08:27Z</time>
      </trkpt>
      <trkpt lat="48.93211" lon="2.03864">
        <ele>24</ele>
        <time>2013-01-13T12:08:30Z</time>
      </trkpt>
      <trkpt lat="48.93216" lon="2.03857">
        <ele>24</ele>
        <time>2013-01-13T12:08:39Z</time>
      </trkpt>
      <trkpt lat="48.93222" lon="2.03855">
        <ele>24</ele>
        <time>2013-01-13T12:08:43Z</time>
      </trkpt>
      <trkpt lat="48.93229" lon="2.03856">
        <ele>24</ele>
        <time>2013-01-13T12:08:47Z</time>
      </trkpt>
      <trkpt lat="48.93235" lon="2.03854">
        <ele>24</ele>
        <time>2013-01-13T12:08:49Z</time>
      </trkpt>
      <trkpt lat="48.93239" lon="2.03852">
        <ele>24</ele>
        <time>2013-01-13T12:08:53Z</time>
      </trkpt>
      <trkpt lat="48.93244" lon="2.03849">
        <ele>24</ele>
        <time>2013-01-13T12:08:57Z</time>
      </trkpt>
      <trkpt lat="48.93249" lon="2.03847">
        <ele>24</ele>
        <time>2013-01-13T12:09:00Z</time>
      </trkpt>
      <trkpt lat="48.93254" lon="2.03844">
        <ele>24</ele>
        <time>2013-01-13T12:09:03Z</time>
      </trkpt>
      <trkpt lat="48.93259" lon="2.03846">
        <ele>24</ele>
        <time>2013-01-13T12:09:05Z</time>
      </trkpt>
      <trkpt lat="48.93266" lon="2.03852">
        <ele>24</ele>
        <time>2013-01-13T12:09:10Z</time>
      </trkpt>
      <trkpt lat="48.9327" lon="2.03855">
        <ele>24</ele>
        <time>2013-01-13T12:09:12Z</time>
      </trkpt>
      <trkpt lat="48.93275" lon="2.0386">
        <ele>24</ele>
        <time>2013-01-13T12:09:14Z</time>
      </trkpt>
      <trkpt lat="48.93279" lon="2.03865">
        <ele>24</ele>
        <time>2013-01-13T12:09:18Z</time>
      </trkpt>
      <trkpt lat="48.93285" lon="2.0387">
        <ele>24</ele>
        <time>2013-01-13T12:09:22Z</time>
      </trkpt>
      <trkpt lat="48.93291" lon="2.03873">
        <ele>23</ele>
        <time>2013-01-13T12:09:25Z</time>
      </trkpt>
      <trkpt lat="48.93297" lon="2.03873">
        <ele>23</ele>
        <time>2013-01-13T12:09:28Z</time>
      </trkpt>
      <trkpt lat="48.93302" lon="2.03869">
        <ele>23</ele>
        <time>2013-01-13T12:09:32Z</time>
      </trkpt>
      <trkpt lat="48.93307" lon="2.03868">
        <ele>23</ele>
        <time>2013-01-13T12:09:35Z</time>
      </trkpt>
      <trkpt lat="48.93311" lon="2.03866">
        <ele>23</ele>
        <time>2013-01-13T12:09:39Z</time>
      </trkpt>
      <trkpt lat="48.93315" lon="2.03859">
        <ele>23</ele>
        <time>2013-01-13T12:09:52Z</time>
      </trkpt>
      <trkpt lat="48.9332" lon="2.03859">
        <ele>23</ele>
        <time>2013-01-13T12:09:57Z</time>
      </trkpt>
      <trkpt lat="48.93325" lon="2.03859">
        <ele>23</ele>
        <time>2013-01-13T12:10:02Z</time>
      </trkpt>
      <trkpt lat="48.93332" lon="2.03865">
        <ele>23</ele>
        <time>2013-01-13T12:10:07Z</time>
      </trkpt>
      <trkpt lat="48.93336" lon="2.03868">
        <ele>23</ele>
        <time>2013-01-13T12:10:10Z</time>
      </trkpt>
      <trkpt lat="48.93342" lon="2.03868">
        <ele>23</ele>
        <time>2013-01-13T12:10:13Z</time>
      </trkpt>
      <trkpt lat="48.93346" lon="2.03864">
        <ele>23</ele>
        <time>2013-01-13T12:10:19Z</time>
      </trkpt>
      <trkpt lat="48.93351" lon="2.03861">
        <ele>23</ele>
        <time>2013-01-13T12:10:24Z</time>
      </trkpt>
      <trkpt lat="48.93356" lon="2.03861">
        <ele>23</ele>
        <time>2013-01-13T12:10:27Z</time>
      </trkpt>
      <trkpt lat="48.93361" lon="2.03861">
        <ele>23</ele>
        <time>2013-01-13T12:10:30Z</time>
      </trkpt>
      <trkpt lat="48.93366" lon="2.0386">
        <ele>23</ele>
        <time>2013-01-13T12:10:34Z</time>
      </trkpt>
      <trkpt lat="48.93376" lon="2.0386">
        <ele>23</ele>
        <time>2013-01-13T12:10:39Z</time>
      </trkpt>
      <trkpt lat="48.93382" lon="2.0386">
        <ele>23</ele>
        <time>2013-01-13T12:10:42Z</time>
      </trkpt>
      <trkpt lat="48.93388" lon="2.03861">
        <ele>23</ele>
        <time>2013-01-13T12:10:47Z</time>
      </trkpt>
      <trkpt lat="48.93393" lon="2.03862">
        <ele>23</ele>
        <time>2013-01-13T12:10:52Z</time>
      </trkpt>
      <trkpt lat="48.93399" lon="2.03864">
        <ele>23</ele>
        <time>2013-01-13T12:10:57Z</time>
      </trkpt>
      <trkpt lat="48.93405" lon="2.03865">
        <ele>23</ele>
        <time>2013-01-13T12:11:02Z</time>
      </trkpt>
      <trkpt lat="48.93412" lon="2.03865">
        <ele>24</ele>
        <time>2013-01-13T12:11:07Z</time>
      </trkpt>
      <trkpt lat="48.93418" lon="2.03867">
        <ele>22</ele>
        <time>2013-01-13T12:11:12Z</time>
      </trkpt>
      <trkpt lat="48.93426" lon="2.03871">
        <ele>22</ele>
        <time>2013-01-13T12:11:17Z</time>
      </trkpt>
      <trkpt lat="48.93432" lon="2.03873">
        <ele>22</ele>
        <time>2013-01-13T12:11:20Z</time>
      </trkpt>
      <trkpt lat="48.93441" lon="2.03878">
        <ele>22</ele>
        <time>2013-01-13T12:11:28Z</time>
      </trkpt>
      <trkpt lat="48.93447" lon="2.03879">
        <ele>22</ele>
        <time>2013-01-13T12:11:32Z</time>
      </trkpt>
      <trkpt lat="48.93453" lon="2.03884">
        <ele>22</ele>
        <time>2013-01-13T12:11:37Z</time>
      </trkpt>
      <trkpt lat="48.93461" lon="2.0389">
        <ele>21</ele>
        <time>2013-01-13T12:11:42Z</time>
      </trkpt>
      <trkpt lat="48.93469" lon="2.03894">
        <ele>21</ele>
        <time>2013-01-13T12:11:47Z</time>
      </trkpt>
      <trkpt lat="48.93472" lon="2.039">
        <ele>21</ele>
        <time>2013-01-13T12:11:53Z</time>
      </trkpt>
      <trkpt lat="48.93476" lon="2.03904">
        <ele>21</ele>
        <time>2013-01-13T12:11:57Z</time>
      </trkpt>
      <trkpt lat="48.93482" lon="2.03907">
        <ele>21</ele>
        <time>2013-01-13T12:12:02Z</time>
      </trkpt>
      <trkpt lat="48.93487" lon="2.0391">
        <ele>21</ele>
        <time>2013-01-13T12:12:05Z</time>
      </trkpt>
      <trkpt lat="48.93491" lon="2.03914">
        <ele>21</ele>
        <time>2013-01-13T12:12:07Z</time>
      </trkpt>
      <trkpt lat="48.93496" lon="2.03916">
        <ele>21</ele>
        <time>2013-01-13T12:12:09Z</time>
      </trkpt>
      <trkpt lat="48.935" lon="2.03918">
        <ele>21</ele>
        <time>2013-01-13T12:12:13Z</time>
      </trkpt>
      <trkpt lat="48.93504" lon="2.03924">
        <ele>21</ele>
        <time>2013-01-13T12:12:17Z</time>
      </trkpt>
      <trkpt lat="48.93506" lon="2.03933">
        <ele>21</ele>
        <time>2013-01-13T12:12:22Z</time>
      </trkpt>
      <trkpt lat="48.93509" lon="2.03941">
        <ele>21</ele>
        <time>2013-01-13T12:12:27Z</time>
      </trkpt>
      <trkpt lat="48.93512" lon="2.03946">
        <ele>21</ele>
        <time>2013-01-13T12:12:30Z</time>
      </trkpt>
      <trkpt lat="48.93521" lon="2.0395">
        <ele>21</ele>
        <time>2013-01-13T12:12:37Z</time>
      </trkpt>
      <trkpt lat="48.93526" lon="2.03953">
        <ele>21</ele>
        <time>2013-01-13T12:12:40Z</time>
      </trkpt>
      <trkpt lat="48.93531" lon="2.03956">
        <ele>21</ele>
        <time>2013-01-13T12:12:43Z</time>
      </trkpt>
      <trkpt lat="48.93539" lon="2.03961">
        <ele>21</ele>
        <time>2013-01-13T12:12:49Z</time>
      </trkpt>
      <trkpt lat="48.93545" lon="2.03964">
        <ele>21</ele>
        <time>2013-01-13T12:12:52Z</time>
      </trkpt>
      <trkpt lat="48.9355" lon="2.03966">
        <ele>21</ele>
        <time>2013-01-13T12:12:57Z</time>
      </trkpt>
      <trkpt lat="48.93556" lon="2.03977">
        <ele>22</ele>
        <time>2013-01-13T12:13:02Z</time>
      </trkpt>
      <trkpt lat="48.93559" lon="2.03983">
        <ele>22</ele>
        <time>2013-01-13T12:13:04Z</time>
      </trkpt>
      <trkpt lat="48.93564" lon="2.03987">
        <ele>22</ele>
        <time>2013-01-13T12:13:07Z</time>
      </trkpt>
      <trkpt lat="48.93567" lon="2.03992">
        <ele>23</ele>
        <time>2013-01-13T12:13:13Z</time>
      </trkpt>
      <trkpt lat="48.93571" lon="2.03996">
        <ele>23</ele>
        <time>2013-01-13T12:13:23Z</time>
      </trkpt>
      <trkpt lat="48.93574" lon="2.04002">
        <ele>24</ele>
        <time>2013-01-13T12:13:28Z</time>
      </trkpt>
      <trkpt lat="48.93579" lon="2.04001">
        <ele>24</ele>
        <time>2013-01-13T12:13:34Z</time>
      </trkpt>
      <trkpt lat="48.93583" lon="2.03996">
        <ele>24</ele>
        <time>2013-01-13T12:13:37Z</time>
      </trkpt>
      <trkpt lat="48.93587" lon="2.03989">
        <ele>22</ele>
        <time>2013-01-13T12:13:43Z</time>
      </trkpt>
      <trkpt lat="48.93593" lon="2.03981">
        <ele>21</ele>
        <time>2013-01-13T12:13:47Z</time>
      </trkpt>
      <trkpt lat="48.93597" lon="2.03976">
        <ele>20</ele>
        <time>2013-01-13T12:13:54Z</time>
      </trkpt>
      <trkpt lat="48.93602" lon="2.03969">
        <ele>19</ele>
        <time>2013-01-13T12:13:57Z</time>
      </trkpt>
      <trkpt lat="48.93606" lon="2.03963">
        <ele>19</ele>
        <time>2013-01-13T12:14:00Z</time>
      </trkpt>
      <trkpt lat="48.93611" lon="2.03956">
        <ele>19</ele>
        <time>2013-01-13T12:14:07Z</time>
      </trkpt>
      <trkpt lat="48.93615" lon="2.0395">
        <ele>18</ele>
        <time>2013-01-13T12:14:10Z</time>
      </trkpt>
      <trkpt lat="48.93619" lon="2.03943">
        <ele>18</ele>
        <time>2013-01-13T12:14:15Z</time>
      </trkpt>
      <trkpt lat="48.93624" lon="2.03937">
        <ele>18</ele>
        <time>2013-01-13T12:14:18Z</time>
      </trkpt>
      <trkpt lat="48.93628" lon="2.03933">
        <ele>18</ele>
        <time>2013-01-13T12:14:20Z</time>
      </trkpt>
      <trkpt lat="48.93632" lon="2.03928">
        <ele>18</ele>
        <time>2013-01-13T12:14:23Z</time>
      </trkpt>
      <trkpt lat="48.93636" lon="2.03923">
        <ele>17</ele>
        <time>2013-01-13T12:14:29Z</time>
      </trkpt>
      <trkpt lat="48.93641" lon="2.03915">
        <ele>16</ele>
        <time>2013-01-13T12:14:32Z</time>
      </trkpt>
      <trkpt lat="48.93644" lon="2.03908">
        <ele>16</ele>
        <time>2013-01-13T12:14:35Z</time>
      </trkpt>
      <trkpt lat="48.93649" lon="2.03904">
        <ele>16</ele>
        <time>2013-01-13T12:14:40Z</time>
      </trkpt>
      <trkpt lat="48.93654" lon="2.03897">
        <ele>16</ele>
        <time>2013-01-13T12:14:43Z</time>
      </trkpt>
      <trkpt lat="48.93659" lon="2.03889">
        <ele>16</ele>
        <time>2013-01-13T12:14:47Z</time>
      </trkpt>
      <trkpt lat="48.93662" lon="2.03883">
        <ele>16</ele>
        <time>2013-01-13T12:14:54Z</time>
      </trkpt>
      <trkpt lat="48.93666" lon="2.03876">
        <ele>16</ele>
        <time>2013-01-13T12:14:57Z</time>
      </trkpt>
      <trkpt lat="48.93669" lon="2.03871">
        <ele>16</ele>
        <time>2013-01-13T12:15:00Z</time>
      </trkpt>
      <trkpt lat="48.93673" lon="2.03865">
        <ele>16</ele>
        <time>2013-01-13T12:15:03Z</time>
      </trkpt>
      <trkpt lat="48.93676" lon="2.03857">
        <ele>16</ele>
        <time>2013-01-13T12:15:07Z</time>
      </trkpt>
      <trkpt lat="48.93678" lon="2.03852">
        <ele>16</ele>
        <time>2013-01-13T12:15:12Z</time>
      </trkpt>
      <trkpt lat="48.93683" lon="2.03844">
        <ele>16</ele>
        <time>2013-01-13T12:15:15Z</time>
      </trkpt>
      <trkpt lat="48.93688" lon="2.03839">
        <ele>17</ele>
        <time>2013-01-13T12:15:17Z</time>
      </trkpt>
      <trkpt lat="48.93692" lon="2.03834">
        <ele>17</ele>
        <time>2013-01-13T12:15:19Z</time>
      </trkpt>
      <trkpt lat="48.93697" lon="2.03828">
        <ele>17</ele>
        <time>2013-01-13T12:15:22Z</time>
      </trkpt>
      <trkpt lat="48.93701" lon="2.03821">
        <ele>18</ele>
        <time>2013-01-13T12:15:25Z</time>
      </trkpt>
      <trkpt lat="48.93703" lon="2.03814">
        <ele>18</ele>
        <time>2013-01-13T12:15:30Z</time>
      </trkpt>
      <trkpt lat="48.93707" lon="2.03806">
        <ele>18</ele>
        <time>2013-01-13T12:15:37Z</time>
      </trkpt>
      <trkpt lat="48.93713" lon="2.038">
        <ele>18</ele>
        <time>2013-01-13T12:15:40Z</time>
      </trkpt>
      <trkpt lat="48.93718" lon="2.03796">
        <ele>18</ele>
        <time>2013-01-13T12:15:42Z</time>
      </trkpt>
      <trkpt lat="48.93722" lon="2.03792">
        <ele>18</ele>
        <time>2013-01-13T12:15:44Z</time>
      </trkpt>
      <trkpt lat="48.93726" lon="2.03785">
        <ele>18</ele>
        <time>2013-01-13T12:15:48Z</time>
      </trkpt>
      <trkpt lat="48.93727" lon="2.03778">
        <ele>19</ele>
        <time>2013-01-13T12:15:52Z</time>
      </trkpt>
      <trkpt lat="48.93723" lon="2.03783">
        <ele>18</ele>
        <time>2013-01-13T12:16:05Z</time>
      </trkpt>
      <trkpt lat="48.9372" lon="2.0379">
        <ele>18</ele>
        <time>2013-01-13T12:16:09Z</time>
      </trkpt>
      <trkpt lat="48.93715" lon="2.03794">
        <ele>18</ele>
        <time>2013-01-13T12:16:15Z</time>
      </trkpt>
      <trkpt lat="48.9371" lon="2.03798">
        <ele>18</ele>
        <time>2013-01-13T12:16:20Z</time>
      </trkpt>
      <trkpt lat="48.93713" lon="2.03803">
        <ele>18</ele>
        <time>2013-01-13T12:16:27Z</time>
      </trkpt>
      <trkpt lat="48.93718" lon="2.03813">
        <ele>18</ele>
        <time>2013-01-13T12:16:30Z</time>
      </trkpt>
      <trkpt lat="48.93719" lon="2.0382">
        <ele>18</ele>
        <time>2013-01-13T12:16:33Z</time>
      </trkpt>
      <trkpt lat="48.93726" lon="2.03821">
        <ele>18</ele>
        <time>2013-01-13T12:16:37Z</time>
      </trkpt>
      <trkpt lat="48.93735" lon="2.03823">
        <ele>19</ele>
        <time>2013-01-13T12:16:43Z</time>
      </trkpt>
      <trkpt lat="48.93741" lon="2.03825">
        <ele>19</ele>
        <time>2013-01-13T12:16:47Z</time>
      </trkpt>
      <trkpt lat="48.93746" lon="2.03827">
        <ele>19</ele>
        <time>2013-01-13T12:16:52Z</time>
      </trkpt>
      <trkpt lat="48.93751" lon="2.03833">
        <ele>19</ele>
        <time>2013-01-13T12:16:55Z</time>
      </trkpt>
      <trkpt lat="48.93755" lon="2.03837">
        <ele>19</ele>
        <time>2013-01-13T12:16:58Z</time>
      </trkpt>
      <trkpt lat="48.9376" lon="2.03839">
        <ele>19</ele>
        <time>2013-01-13T12:17:04Z</time>
      </trkpt>
      <trkpt lat="48.93764" lon="2.03845">
        <ele>19</ele>
        <time>2013-01-13T12:17:07Z</time>
      </trkpt>
      <trkpt lat="48.9377" lon="2.03849">
        <ele>19</ele>
        <time>2013-01-13T12:17:10Z</time>
      </trkpt>
      <trkpt lat="48.93775" lon="2.03851">
        <ele>19</ele>
        <time>2013-01-13T12:17:15Z</time>
      </trkpt>
      <trkpt lat="48.9378" lon="2.03857">
        <ele>19</ele>
        <time>2013-01-13T12:17:18Z</time>
      </trkpt>
      <trkpt lat="48.93784" lon="2.03861">
        <ele>19</ele>
        <time>2013-01-13T12:17:20Z</time>
      </trkpt>
      <trkpt lat="48.93789" lon="2.03862">
        <ele>20</ele>
        <time>2013-01-13T12:17:25Z</time>
      </trkpt>
      <trkpt lat="48.93794" lon="2.03868">
        <ele>20</ele>
        <time>2013-01-13T12:17:29Z</time>
      </trkpt>
      <trkpt lat="48.938" lon="2.03874">
        <ele>20</ele>
        <time>2013-01-13T12:17:32Z</time>
      </trkpt>
      <trkpt lat="48.93805" lon="2.03876">
        <ele>20</ele>
        <time>2013-01-13T12:17:37Z</time>
      </trkpt>
      <trkpt lat="48.9381" lon="2.03882">
        <ele>20</ele>
        <time>2013-01-13T12:17:42Z</time>
      </trkpt>
      <trkpt lat="48.93814" lon="2.03884">
        <ele>20</ele>
        <time>2013-01-13T12:17:45Z</time>
      </trkpt>
      <trkpt lat="48.93818" lon="2.0389">
        <ele>20</ele>
        <time>2013-01-13T12:17:50Z</time>
      </trkpt>
      <trkpt lat="48.93823" lon="2.03896">
        <ele>20</ele>
        <time>2013-01-13T12:17:53Z</time>
      </trkpt>
      <trkpt lat="48.9383" lon="2.039">
        <ele>21</ele>
        <time>2013-01-13T12:17:57Z</time>
      </trkpt>
      <trkpt lat="48.93835" lon="2.03901">
        <ele>22</ele>
        <time>2013-01-13T12:18:02Z</time>
      </trkpt>
      <trkpt lat="48.93842" lon="2.03906">
        <ele>22</ele>
        <time>2013-01-13T12:18:07Z</time>
      </trkpt>
      <trkpt lat="48.93847" lon="2.03911">
        <ele>22</ele>
        <time>2013-01-13T12:18:10Z</time>
      </trkpt>
      <trkpt lat="48.93851" lon="2.03916">
        <ele>22</ele>
        <time>2013-01-13T12:18:12Z</time>
      </trkpt>
      <trkpt lat="48.93859" lon="2.03923">
        <ele>21</ele>
        <time>2013-01-13T12:18:22Z</time>
      </trkpt>
      <trkpt lat="48.93864" lon="2.03928">
        <ele>21</ele>
        <time>2013-01-13T12:18:28Z</time>
      </trkpt>
      <trkpt lat="48.93869" lon="2.03934">
        <ele>21</ele>
        <time>2013-01-13T12:18:32Z</time>
      </trkpt>
      <trkpt lat="48.93873" lon="2.03938">
        <ele>21</ele>
        <time>2013-01-13T12:18:37Z</time>
      </trkpt>
      <trkpt lat="48.9388" lon="2.03941">
        <ele>21</ele>
        <time>2013-01-13T12:18:42Z</time>
      </trkpt>
      <trkpt lat="48.93884" lon="2.03944">
        <ele>21</ele>
        <time>2013-01-13T12:18:45Z</time>
      </trkpt>
      <trkpt lat="48.9389" lon="2.03948">
        <ele>20</ele>
        <time>2013-01-13T12:18:48Z</time>
      </trkpt>
      <trkpt lat="48.93894" lon="2.03952">
        <ele>20</ele>
        <time>2013-01-13T12:18:53Z</time>
      </trkpt>
      <trkpt lat="48.93899" lon="2.03959">
        <ele>20</ele>
        <time>2013-01-13T12:18:57Z</time>
      </trkpt>
      <trkpt lat="48.93904" lon="2.0396">
        <ele>20</ele>
        <time>2013-01-13T12:19:02Z</time>
      </trkpt>
      <trkpt lat="48.93908" lon="2.03963">
        <ele>20</ele>
        <time>2013-01-13T12:19:04Z</time>
      </trkpt>
      <trkpt lat="48.93913" lon="2.03968">
        <ele>20</ele>
        <time>2013-01-13T12:19:08Z</time>
      </trkpt>
      <trkpt lat="48.93917" lon="2.03972">
        <ele>21</ele>
        <time>2013-01-13T12:19:12Z</time>
      </trkpt>
      <trkpt lat="48.93922" lon="2.03977">
        <ele>20</ele>
        <time>2013-01-13T12:19:15Z</time>
      </trkpt>
      <trkpt lat="48.93926" lon="2.03978">
        <ele>20</ele>
        <time>2013-01-13T12:19:20Z</time>
      </trkpt>
      <trkpt lat="48.93931" lon="2.03983">
        <ele>20</ele>
        <time>2013-01-13T12:19:23Z</time>
      </trkpt>
      <trkpt lat="48.93935" lon="2.03987">
        <ele>20</ele>
        <time>2013-01-13T12:19:25Z</time>
      </trkpt>
      <trkpt lat="48.93941" lon="2.0399">
        <ele>20</ele>
        <time>2013-01-13T12:19:32Z</time>
      </trkpt>
      <trkpt lat="48.93949" lon="2.03996">
        <ele>21</ele>
        <time>2013-01-13T12:19:37Z</time>
      </trkpt>
      <trkpt lat="48.93956" lon="2.03996">
        <ele>21</ele>
        <time>2013-01-13T12:19:42Z</time>
      </trkpt>
      <trkpt lat="48.93961" lon="2.04001">
        <ele>19</ele>
        <time>2013-01-13T12:19:45Z</time>
      </trkpt>
      <trkpt lat="48.93965" lon="2.04006">
        <ele>19</ele>
        <time>2013-01-13T12:19:48Z</time>
      </trkpt>
      <trkpt lat="48.93971" lon="2.04009">
        <ele>19</ele>
        <time>2013-01-13T12:19:52Z</time>
      </trkpt>
      <trkpt lat="48.93977" lon="2.04013">
        <ele>19</ele>
        <time>2013-01-13T12:19:58Z</time>
      </trkpt>
      <trkpt lat="48.93982" lon="2.04018">
        <ele>19</ele>
        <time>2013-01-13T12:20:00Z</time>
      </trkpt>
      <trkpt lat="48.93986" lon="2.04023">
        <ele>19</ele>
        <time>2013-01-13T12:20:02Z</time>
      </trkpt>
      <trkpt lat="48.9399" lon="2.04026">
        <ele>19</ele>
        <time>2013-01-13T12:20:07Z</time>
      </trkpt>
      <trkpt lat="48.93997" lon="2.04032">
        <ele>19</ele>
        <time>2013-01-13T12:20:12Z</time>
      </trkpt>
      <trkpt lat="48.94002" lon="2.04035">
        <ele>20</ele>
        <time>2013-01-13T12:20:17Z</time>
      </trkpt>
      <trkpt lat="48.94005" lon="2.04042">
        <ele>20</ele>
        <time>2013-01-13T12:20:20Z</time>
      </trkpt>
      <trkpt lat="48.94009" lon="2.04046">
        <ele>20</ele>
        <time>2013-01-13T12:20:23Z</time>
      </trkpt>
      <trkpt lat="48.94017" lon="2.04054">
        <ele>20</ele>
        <time>2013-01-13T12:20:30Z</time>
      </trkpt>
      <trkpt lat="48.94022" lon="2.04057">
        <ele>20</ele>
        <time>2013-01-13T12:20:34Z</time>
      </trkpt>
      <trkpt lat="48.94027" lon="2.04055">
        <ele>20</ele>
        <time>2013-01-13T12:20:37Z</time>
      </trkpt>
      <trkpt lat="48.94033" lon="2.04058">
        <ele>20</ele>
        <time>2013-01-13T12:20:42Z</time>
      </trkpt>
      <trkpt lat="48.94038" lon="2.0406">
        <ele>20</ele>
        <time>2013-01-13T12:20:49Z</time>
      </trkpt>
      <trkpt lat="48.94043" lon="2.04066">
        <ele>20</ele>
        <time>2013-01-13T12:20:53Z</time>
      </trkpt>
      <trkpt lat="48.94046" lon="2.04072">
        <ele>21</ele>
        <time>2013-01-13T12:20:55Z</time>
      </trkpt>
      <trkpt lat="48.94049" lon="2.04078">
        <ele>21</ele>
        <time>2013-01-13T12:20:57Z</time>
      </trkpt>
      <trkpt lat="48.94053" lon="2.04085">
        <ele>19</ele>
        <time>2013-01-13T12:21:00Z</time>
      </trkpt>
      <trkpt lat="48.94063" lon="2.04088">
        <ele>20</ele>
        <time>2013-01-13T12:21:07Z</time>
      </trkpt>
      <trkpt lat="48.94068" lon="2.04086">
        <ele>20</ele>
        <time>2013-01-13T12:21:10Z</time>
      </trkpt>
      <trkpt lat="48.94073" lon="2.04089">
        <ele>21</ele>
        <time>2013-01-13T12:21:12Z</time>
      </trkpt>
      <trkpt lat="48.94078" lon="2.04094">
        <ele>21</ele>
        <time>2013-01-13T12:21:14Z</time>
      </trkpt>
      <trkpt lat="48.94083" lon="2.04096">
        <ele>21</ele>
        <time>2013-01-13T12:21:17Z</time>
      </trkpt>
      <trkpt lat="48.94088" lon="2.04096">
        <ele>22</ele>
        <time>2013-01-13T12:21:24Z</time>
      </trkpt>
      <trkpt lat="48.94095" lon="2.04101">
        <ele>21</ele>
        <time>2013-01-13T12:21:27Z</time>
      </trkpt>
      <trkpt lat="48.941" lon="2.04105">
        <ele>21</ele>
        <time>2013-01-13T12:21:30Z</time>
      </trkpt>
      <trkpt lat="48.94107" lon="2.04109">
        <ele>21</ele>
        <time>2013-01-13T12:21:37Z</time>
      </trkpt>
      <trkpt lat="48.94113" lon="2.04112">
        <ele>20</ele>
        <time>2013-01-13T12:21:40Z</time>
      </trkpt>
      <trkpt lat="48.9412" lon="2.04116">
        <ele>20</ele>
        <time>2013-01-13T12:21:47Z</time>
      </trkpt>
      <trkpt lat="48.94126" lon="2.04121">
        <ele>20</ele>
        <time>2013-01-13T12:21:52Z</time>
      </trkpt>
      <trkpt lat="48.94134" lon="2.04126">
        <ele>20</ele>
        <time>2013-01-13T12:21:57Z</time>
      </trkpt>
      <trkpt lat="48.94138" lon="2.04128">
        <ele>20</ele>
        <time>2013-01-13T12:22:00Z</time>
      </trkpt>
      <trkpt lat="48.94143" lon="2.04131">
        <ele>20</ele>
        <time>2013-01-13T12:22:05Z</time>
      </trkpt>
      <trkpt lat="48.94147" lon="2.04134">
        <ele>20</ele>
        <time>2013-01-13T12:22:07Z</time>
      </trkpt>
      <trkpt lat="48.94153" lon="2.04137">
        <ele>20</ele>
        <time>2013-01-13T12:22:10Z</time>
      </trkpt>
      <trkpt lat="48.94163" lon="2.0414">
        <ele>20</ele>
        <time>2013-01-13T12:22:17Z</time>
      </trkpt>
      <trkpt lat="48.94167" lon="2.04143">
        <ele>20</ele>
        <time>2013-01-13T12:22:20Z</time>
      </trkpt>
      <trkpt lat="48.94172" lon="2.04146">
        <ele>20</ele>
        <time>2013-01-13T12:22:25Z</time>
      </trkpt>
      <trkpt lat="48.94175" lon="2.04152">
        <ele>20</ele>
        <time>2013-01-13T12:22:30Z</time>
      </trkpt>
      <trkpt lat="48.94179" lon="2.04156">
        <ele>20</ele>
        <time>2013-01-13T12:22:33Z</time>
      </trkpt>
      <trkpt lat="48.94184" lon="2.04157">
        <ele>20</ele>
        <time>2013-01-13T12:22:37Z</time>
      </trkpt>
      <trkpt lat="48.94191" lon="2.04163">
        <ele>20</ele>
        <time>2013-01-13T12:22:42Z</time>
      </trkpt>
      <trkpt lat="48.94196" lon="2.04168">
        <ele>19</ele>
        <time>2013-01-13T12:22:45Z</time>
      </trkpt>
      <trkpt lat="48.94201" lon="2.0417">
        <ele>19</ele>
        <time>2013-01-13T12:22:48Z</time>
      </trkpt>
      <trkpt lat="48.94207" lon="2.04172">
        <ele>19</ele>
        <time>2013-01-13T12:22:52Z</time>
      </trkpt>
      <trkpt lat="48.94213" lon="2.04175">
        <ele>19</ele>
        <time>2013-01-13T12:22:55Z</time>
      </trkpt>
      <trkpt lat="48.9422" lon="2.04177">
        <ele>19</ele>
        <time>2013-01-13T12:22:58Z</time>
      </trkpt>
      <trkpt lat="48.94226" lon="2.04179">
        <ele>19</ele>
        <time>2013-01-13T12:23:02Z</time>
      </trkpt>
      <trkpt lat="48.94231" lon="2.04182">
        <ele>19</ele>
        <time>2013-01-13T12:23:09Z</time>
      </trkpt>
      <trkpt lat="48.94236" lon="2.04183">
        <ele>19</ele>
        <time>2013-01-13T12:23:12Z</time>
      </trkpt>
      <trkpt lat="48.94241" lon="2.04185">
        <ele>19</ele>
        <time>2013-01-13T12:23:14Z</time>
      </trkpt>
      <trkpt lat="48.94247" lon="2.04188">
        <ele>19</ele>
        <time>2013-01-13T12:23:17Z</time>
      </trkpt>
      <trkpt lat="48.94254" lon="2.04191">
        <ele>20</ele>
        <time>2013-01-13T12:23:20Z</time>
      </trkpt>
      <trkpt lat="48.94262" lon="2.04197">
        <ele>20</ele>
        <time>2013-01-13T12:23:29Z</time>
      </trkpt>
      <trkpt lat="48.94268" lon="2.04198">
        <ele>20</ele>
        <time>2013-01-13T12:23:32Z</time>
      </trkpt>
      <trkpt lat="48.94274" lon="2.04198">
        <ele>20</ele>
        <time>2013-01-13T12:23:35Z</time>
      </trkpt>
      <trkpt lat="48.94278" lon="2.042">
        <ele>20</ele>
        <time>2013-01-13T12:23:40Z</time>
      </trkpt>
      <trkpt lat="48.94284" lon="2.04202">
        <ele>20</ele>
        <time>2013-01-13T12:23:44Z</time>
      </trkpt>
      <trkpt lat="48.94289" lon="2.04203">
        <ele>21</ele>
        <time>2013-01-13T12:23:47Z</time>
      </trkpt>
      <trkpt lat="48.94294" lon="2.04204">
        <ele>21</ele>
        <time>2013-01-13T12:23:50Z</time>
      </trkpt>
      <trkpt lat="48.94299" lon="2.04207">
        <ele>21</ele>
        <time>2013-01-13T12:23:55Z</time>
      </trkpt>
      <trkpt lat="48.94308" lon="2.0421">
        <ele>21</ele>
        <time>2013-01-13T12:24:02Z</time>
      </trkpt>
      <trkpt lat="48.94314" lon="2.04212">
        <ele>21</ele>
        <time>2013-01-13T12:24:05Z</time>
      </trkpt>
      <trkpt lat="48.94318" lon="2.04218">
        <ele>21</ele>
        <time>2013-01-13T12:24:08Z</time>
      </trkpt>
      <trkpt lat="48.94322" lon="2.04222">
        <ele>21</ele>
        <time>2013-01-13T12:24:12Z</time>
      </trkpt>
      <trkpt lat="48.94329" lon="2.04223">
        <ele>21</ele>
        <time>2013-01-13T12:24:17Z</time>
      </trkpt>
      <trkpt lat="48.94335" lon="2.04226">
        <ele>22</ele>
        <time>2013-01-13T12:24:20Z</time>
      </trkpt>
      <trkpt lat="48.9434" lon="2.0423">
        <ele>22</ele>
        <time>2013-01-13T12:24:23Z</time>
      </trkpt>
      <trkpt lat="48.94345" lon="2.04232">
        <ele>22</ele>
        <time>2013-01-13T12:24:27Z</time>
      </trkpt>
      <trkpt lat="48.9435" lon="2.04232">
        <ele>22</ele>
        <time>2013-01-13T12:24:32Z</time>
      </trkpt>
      <trkpt lat="48.94355" lon="2.04236">
        <ele>22</ele>
        <time>2013-01-13T12:24:35Z</time>
      </trkpt>
      <trkpt lat="48.9436" lon="2.04239">
        <ele>22</ele>
        <time>2013-01-13T12:24:37Z</time>
      </trkpt>
      <trkpt lat="48.94365" lon="2.04242">
        <ele>22</ele>
        <time>2013-01-13T12:24:40Z</time>
      </trkpt>
      <trkpt lat="48.94371" lon="2.04242">
        <ele>22</ele>
        <time>2013-01-13T12:24:45Z</time>
      </trkpt>
      <trkpt lat="48.94375" lon="2.04244">
        <ele>22</ele>
        <time>2013-01-13T12:24:48Z</time>
      </trkpt>
      <trkpt lat="48.94384" lon="2.04251">
        <ele>20</ele>
        <time>2013-01-13T12:24:53Z</time>
      </trkpt>
      <trkpt lat="48.94389" lon="2.04251">
        <ele>20</ele>
        <time>2013-01-13T12:24:58Z</time>
      </trkpt>
      <trkpt lat="48.94395" lon="2.04255">
        <ele>20</ele>
        <time>2013-01-13T12:25:02Z</time>
      </trkpt>
      <trkpt lat="48.944" lon="2.04259">
        <ele>20</ele>
        <time>2013-01-13T12:25:05Z</time>
      </trkpt>
      <trkpt lat="48.94407" lon="2.0426">
        <ele>20</ele>
        <time>2013-01-13T12:25:12Z</time>
      </trkpt>
      <trkpt lat="48.94413" lon="2.04265">
        <ele>20</ele>
        <time>2013-01-13T12:25:15Z</time>
      </trkpt>
      <trkpt lat="48.94417" lon="2.04269">
        <ele>20</ele>
        <time>2013-01-13T12:25:19Z</time>
      </trkpt>
      <trkpt lat="48.94422" lon="2.04269">
        <ele>20</ele>
        <time>2013-01-13T12:25:24Z</time>
      </trkpt>
      <trkpt lat="48.94427" lon="2.04271">
        <ele>20</ele>
        <time>2013-01-13T12:25:28Z</time>
      </trkpt>
      <trkpt lat="48.94433" lon="2.04275">
        <ele>20</ele>
        <time>2013-01-13T12:25:32Z</time>
      </trkpt>
      <trkpt lat="48.94438" lon="2.04277">
        <ele>19</ele>
        <time>2013-01-13T12:25:35Z</time>
      </trkpt>
      <trkpt lat="48.94443" lon="2.04279">
        <ele>19</ele>
        <time>2013-01-13T12:25:38Z</time>
      </trkpt>
      <trkpt lat="48.94448" lon="2.0428">
        <ele>19</ele>
        <time>2013-01-13T12:25:42Z</time>
      </trkpt>
      <trkpt lat="48.94452" lon="2.04282">
        <ele>19</ele>
        <time>2013-01-13T12:25:45Z</time>
      </trkpt>
      <trkpt lat="48.94458" lon="2.04285">
        <ele>19</ele>
        <time>2013-01-13T12:25:48Z</time>
      </trkpt>
      <trkpt lat="48.94463" lon="2.04288">
        <ele>19</ele>
        <time>2013-01-13T12:25:50Z</time>
      </trkpt>
      <trkpt lat="48.94468" lon="2.0429">
        <ele>19</ele>
        <time>2013-01-13T12:25:53Z</time>
      </trkpt>
      <trkpt lat="48.94479" lon="2.04293">
        <ele>19</ele>
        <time>2013-01-13T12:26:02Z</time>
      </trkpt>
      <trkpt lat="48.94484" lon="2.04296">
        <ele>19</ele>
        <time>2013-01-13T12:26:05Z</time>
      </trkpt>
      <trkpt lat="48.94489" lon="2.04301">
        <ele>19</ele>
        <time>2013-01-13T12:26:08Z</time>
      </trkpt>
      <trkpt lat="48.94494" lon="2.04306">
        <ele>18</ele>
        <time>2013-01-13T12:26:12Z</time>
      </trkpt>
      <trkpt lat="48.945" lon="2.04306">
        <ele>19</ele>
        <time>2013-01-13T12:26:17Z</time>
      </trkpt>
      <trkpt lat="48.94506" lon="2.04307">
        <ele>19</ele>
        <time>2013-01-13T12:26:22Z</time>
      </trkpt>
      <trkpt lat="48.94511" lon="2.0431">
        <ele>19</ele>
        <time>2013-01-13T12:26:25Z</time>
      </trkpt>
      <trkpt lat="48.94515" lon="2.04312">
        <ele>19</ele>
        <time>2013-01-13T12:26:28Z</time>
      </trkpt>
      <trkpt lat="48.9452" lon="2.04312">
        <ele>20</ele>
        <time>2013-01-13T12:26:33Z</time>
      </trkpt>
      <trkpt lat="48.94526" lon="2.04315">
        <ele>20</ele>
        <time>2013-01-13T12:26:37Z</time>
      </trkpt>
      <trkpt lat="48.94532" lon="2.0432">
        <ele>20</ele>
        <time>2013-01-13T12:26:40Z</time>
      </trkpt>
      <trkpt lat="48.94538" lon="2.04323">
        <ele>20</ele>
        <time>2013-01-13T12:26:42Z</time>
      </trkpt>
      <trkpt lat="48.94543" lon="2.04326">
        <ele>20</ele>
        <time>2013-01-13T12:26:44Z</time>
      </trkpt>
      <trkpt lat="48.94548" lon="2.04326">
        <ele>20</ele>
        <time>2013-01-13T12:26:49Z</time>
      </trkpt>
      <trkpt lat="48.94553" lon="2.04328">
        <ele>21</ele>
        <time>2013-01-13T12:26:54Z</time>
      </trkpt>
      <trkpt lat="48.94557" lon="2.04333">
        <ele>21</ele>
        <time>2013-01-13T12:26:57Z</time>
      </trkpt>
      <trkpt lat="48.94562" lon="2.04337">
        <ele>20</ele>
        <time>2013-01-13T12:26:59Z</time>
      </trkpt>
      <trkpt lat="48.94569" lon="2.0434">
        <ele>20</ele>
        <time>2013-01-13T12:27:02Z</time>
      </trkpt>
      <trkpt lat="48.94574" lon="2.0434">
        <ele>21</ele>
        <time>2013-01-13T12:27:07Z</time>
      </trkpt>
      <trkpt lat="48.94579" lon="2.04341">
        <ele>21</ele>
        <time>2013-01-13T12:27:12Z</time>
      </trkpt>
      <trkpt lat="48.94585" lon="2.04345">
        <ele>21</ele>
        <time>2013-01-13T12:27:15Z</time>
      </trkpt>
      <trkpt lat="48.94591" lon="2.04348">
        <ele>21</ele>
        <time>2013-01-13T12:27:17Z</time>
      </trkpt>
      <trkpt lat="48.94597" lon="2.04352">
        <ele>21</ele>
        <time>2013-01-13T12:27:20Z</time>
      </trkpt>
      <trkpt lat="48.94602" lon="2.04353">
        <ele>21</ele>
        <time>2013-01-13T12:27:24Z</time>
      </trkpt>
      <trkpt lat="48.94608" lon="2.04354">
        <ele>21</ele>
        <time>2013-01-13T12:27:29Z</time>
      </trkpt>
      <trkpt lat="48.94614" lon="2.04357">
        <ele>20</ele>
        <time>2013-01-13T12:27:33Z</time>
      </trkpt>
      <trkpt lat="48.94618" lon="2.04358">
        <ele>20</ele>
        <time>2013-01-13T12:27:35Z</time>
      </trkpt>
      <trkpt lat="48.94623" lon="2.0436">
        <ele>20</ele>
        <time>2013-01-13T12:27:39Z</time>
      </trkpt>
      <trkpt lat="48.94628" lon="2.04363">
        <ele>20</ele>
        <time>2013-01-13T12:27:43Z</time>
      </trkpt>
      <trkpt lat="48.94632" lon="2.04366">
        <ele>20</ele>
        <time>2013-01-13T12:27:45Z</time>
      </trkpt>
      <trkpt lat="48.94637" lon="2.04368">
        <ele>20</ele>
        <time>2013-01-13T12:27:49Z</time>
      </trkpt>
      <trkpt lat="48.94643" lon="2.0437">
        <ele>20</ele>
        <time>2013-01-13T12:27:54Z</time>
      </trkpt>
      <trkpt lat="48.94646" lon="2.04375">
        <ele>20</ele>
        <time>2013-01-13T12:27:57Z</time>
      </trkpt>
      <trkpt lat="48.94651" lon="2.04378">
        <ele>20</ele>
        <time>2013-01-13T12:28:00Z</time>
      </trkpt>
      <trkpt lat="48.94657" lon="2.04381">
        <ele>20</ele>
        <time>2013-01-13T12:28:03Z</time>
      </trkpt>
      <trkpt lat="48.94661" lon="2.04381">
        <ele>20</ele>
        <time>2013-01-13T12:28:08Z</time>
      </trkpt>
      <trkpt lat="48.94667" lon="2.04384">
        <ele>20</ele>
        <time>2013-01-13T12:28:12Z</time>
      </trkpt>
      <trkpt lat="48.94672" lon="2.04386">
        <ele>20</ele>
        <time>2013-01-13T12:28:15Z</time>
      </trkpt>
      <trkpt lat="48.94678" lon="2.04388">
        <ele>20</ele>
        <time>2013-01-13T12:28:22Z</time>
      </trkpt>
      <trkpt lat="48.94685" lon="2.04391">
        <ele>20</ele>
        <time>2013-01-13T12:28:25Z</time>
      </trkpt>
      <trkpt lat="48.94691" lon="2.04393">
        <ele>20</ele>
        <time>2013-01-13T12:28:27Z</time>
      </trkpt>
      <trkpt lat="48.94696" lon="2.04397">
        <ele>20</ele>
        <time>2013-01-13T12:28:29Z</time>
      </trkpt>
      <trkpt lat="48.94701" lon="2.04402">
        <ele>20</ele>
        <time>2013-01-13T12:28:32Z</time>
      </trkpt>
      <trkpt lat="48.94706" lon="2.04402">
        <ele>20</ele>
        <time>2013-01-13T12:28:37Z</time>
      </trkpt>
      <trkpt lat="48.94711" lon="2.04404">
        <ele>20</ele>
        <time>2013-01-13T12:28:42Z</time>
      </trkpt>
      <trkpt lat="48.94715" lon="2.04408">
        <ele>20</ele>
        <time>2013-01-13T12:28:45Z</time>
      </trkpt>
      <trkpt lat="48.9472" lon="2.04413">
        <ele>20</ele>
        <time>2013-01-13T12:28:48Z</time>
      </trkpt>
      <trkpt lat="48.94725" lon="2.04414">
        <ele>20</ele>
        <time>2013-01-13T12:28:52Z</time>
      </trkpt>
      <trkpt lat="48.9473" lon="2.04414">
        <ele>20</ele>
        <time>2013-01-13T12:28:57Z</time>
      </trkpt>
      <trkpt lat="48.94735" lon="2.04419">
        <ele>19</ele>
        <time>2013-01-13T12:29:00Z</time>
      </trkpt>
      <trkpt lat="48.94739" lon="2.04423">
        <ele>19</ele>
        <time>2013-01-13T12:29:02Z</time>
      </trkpt>
      <trkpt lat="48.94744" lon="2.04426">
        <ele>19</ele>
        <time>2013-01-13T12:29:07Z</time>
      </trkpt>
      <trkpt lat="48.94752" lon="2.04427">
        <ele>20</ele>
        <time>2013-01-13T12:29:12Z</time>
      </trkpt>
      <trkpt lat="48.94763" lon="2.04432">
        <ele>20</ele>
        <time>2013-01-13T12:29:22Z</time>
      </trkpt>
      <trkpt lat="48.94767" lon="2.04438">
        <ele>20</ele>
        <time>2013-01-13T12:29:29Z</time>
      </trkpt>
      <trkpt lat="48.9477" lon="2.04443">
        <ele>19</ele>
        <time>2013-01-13T12:29:32Z</time>
      </trkpt>
      <trkpt lat="48.94776" lon="2.04446">
        <ele>19</ele>
        <time>2013-01-13T12:29:37Z</time>
      </trkpt>
      <trkpt lat="48.94781" lon="2.0445">
        <ele>19</ele>
        <time>2013-01-13T12:29:42Z</time>
      </trkpt>
      <trkpt lat="48.94786" lon="2.04452">
        <ele>19</ele>
        <time>2013-01-13T12:29:45Z</time>
      </trkpt>
      <trkpt lat="48.94791" lon="2.04456">
        <ele>19</ele>
        <time>2013-01-13T12:29:49Z</time>
      </trkpt>
      <trkpt lat="48.94796" lon="2.04458">
        <ele>19</ele>
        <time>2013-01-13T12:29:53Z</time>
      </trkpt>
      <trkpt lat="48.94804" lon="2.04461">
        <ele>19</ele>
        <time>2013-01-13T12:30:10Z</time>
      </trkpt>
    </trkseg>
  </trk>
</gpx>